GFSGL_prec_kuchsnow24_015.txt.gz
Snowfall_Accumulation
0.0 0.0 0.0 0.0 0.0 0.0 0.0 0.0 0.0 0.0 0.0 0.0 0.0 0.0 0.0 0.0 0.0 0.0 0.0 0.0 0.0 0.0 0.0 0.0 0.0 0.0 0.0 0.0 0.0 0.0 0.0 0.0 0.0 0.0 0.0 0.0 0.0 0.0 0.0 0.0 0.0 0.0 0.0
0.0 0.0 0.0 0.0 0.0 0.0 0.0 0.0 0.0 0.0 0.0 0.0 0.0 0.0 0.0 0.0 0.0 0.0 0.0 0.0 0.0 0.0 0.0 0.0 0.0 0.0 0.0 0.0 0.0 0.0 0.0 0.0 0.0 0.0 0.0 0.0 0.0 0.0 0.0 0.0 0.0 0.0 0.0
0.0 0.0 0.0 0.0 0.0 0.0 0.0 0.0 0.0 0.0 0.0 0.0 0.0 0.0 0.0 0.0 0.0 0.0 0.0 0.0 0.0 0.0 0.0 0.0 0.0 0.0 0.0 0.0 0.0 0.0 0.0 0.0 0.0 0.0 0.0 0.0 0.0 0.0 0.0 0.0 0.0 0.0 0.0
0.0 0.0 0.0 0.0 0.0 0.0 0.0 0.0 0.0 0.0 0.0 0.0 0.0 0.0 0.0 0.0 0.0 0.0 0.0 0.0 0.0 0.0 0.0 0.0 0.0 0.0 0.0 0.0 0.0 0.0 0.0 0.0 0.0 0.0 0.0 0.0 0.0 0.0 0.0 0.0 0.0 0.0 0.0
0.0 0.0 0.0 0.0 0.0 0.0 0.0 0.0 0.0 0.0 0.0 0.0 0.0 0.0 0.0 0.0 0.0 0.0 0.0 0.0 0.0 0.0 0.0 0.0 0.0 0.0 0.0 0.0 0.0 0.0 0.0 0.0 0.0 0.0 0.0 0.0 0.0 0.0 0.0 0.0 0.0 0.0 0.0
0.0 0.0 0.0 0.0 0.0 0.0 0.0 0.0 0.0 0.0 0.0 0.0 0.0 0.0 0.0 0.0 0.0 0.0 0.0 0.0 0.0 0.0 0.0 0.0 0.0 0.0 0.0 0.0 0.0 0.0 0.0 0.0 0.0 0.0 0.0 0.0 0.0 0.0 0.0 0.0 0.0 0.0 0.0
0.0 0.0 0.0 0.0 0.0 0.0 0.0 0.0 0.0 0.0 0.0 0.0 0.0 0.0 0.0 0.0 0.0 0.0 0.0 0.0 0.0 0.0 0.0 0.0 0.0 0.0 0.0 0.0 0.0 0.0 0.0 0.0 0.0 0.0 0.2 0.1 0.0 0.0 0.0 0.0 0.0 0.0 0.0
0.0 0.0 0.0 0.0 0.0 0.0 0.0 0.0 0.0 0.0 0.0 0.0 0.0 0.0 0.0 0.0 0.0 0.0 0.0 0.0 0.0 0.0 0.0 0.0 0.0 0.0 0.0 0.0 0.0 0.0 0.1 0.0 0.0 0.0 0.1 0.0 0.0 0.0 0.0 0.1 0.1 0.1 0.0
0.0 0.0 0.0 0.0 0.0 0.0 0.0 0.0 0.0 0.0 0.0 0.0 0.0 0.0 0.0 0.0 0.0 0.0 0.0 0.0 0.0 0.0 0.0 0.0 0.0 0.0 0.0 0.0 0.2 0.5 0.2 0.1 0.0 0.0 0.1 0.1 0.0 0.0 0.1 0.2 0.5 0.5 0.4
0.0 0.0 0.0 0.0 0.0 0.0 0.0 0.0 0.0 0.0 0.0 0.0 0.0 0.0 0.0 0.0 0.0 0.0 0.0 0.1 0.2 0.1 0.1 0.1 0.0 0.1 0.6 0.6 1.2 1.3 1.1 0.3 0.1 0.1 0.1 0.1 0.1 0.0 0.0 0.0 0.2 0.6 0.5
0.0 0.0 0.0 0.0 0.0 0.0 0.0 0.0 0.0 0.0 0.0 0.0 0.0 0.0 0.0 0.0 0.0 0.0 0.0 0.1 0.5 0.8 0.2 0.1 0.2 1.9 1.1 0.7 0.1 0.3 0.3 0.2 0.1 0.1 0.1 0.1 0.0 0.0 0.0 0.0 0.1 0.3 0.3
0.0 0.0 0.0 0.0 0.0 0.0 0.0 0.0 0.0 0.0 0.0 0.0 0.1 0.0 0.0 0.0 0.0 0.0 0.0 0.1 0.3 1.2 0.9 1.1 2.1 0.7 0.0 0.0 0.1 0.3 0.3 0.0 0.3 0.5 0.5 0.4 0.4 0.4 0.0 0.2 0.2 0.1 0.1
0.0 0.0 0.0 0.0 0.0 0.0 0.0 0.0 0.0 0.0 0.0 0.0 0.0 0.0 0.0 0.0 0.0 0.0 0.1 0.2 0.1 0.7 1.7 1.9 1.2 1.0 0.2 0.2 0.8 0.4 0.3 1.1 1.8 1.6 1.1 0.5 0.6 0.2 0.2 0.4 0.2 0.1 0.1
0.0 0.0 0.0 0.0 0.0 0.0 0.0 0.0 0.0 0.0 0.0 0.0 0.0 0.0 0.0 0.0 0.0 0.1 0.3 0.2 0.3 1.0 0.9 1.6 1.7 0.8 0.8 1.2 1.2 0.6 1.1 1.3 0.9 1.1 0.8 0.5 0.5 0.6 0.9 0.5 0.8 0.8 1.0
0.0 0.0 0.0 0.0 0.0 0.0 0.0 0.0 0.0 0.0 0.0 0.0 0.0 0.0 0.2 0.3 0.2 0.6 0.8 1.2 1.6 1.3 1.5 1.6 1.2 1.2 1.2 1.1 0.3 0.2 0.6 0.3 0.7 0.7 0.8 0.8 0.6 0.4 0.3 0.3 0.6 0.4 1.2
0.0 0.0 0.0 0.0 0.0 0.0 0.0 0.0 0.0 0.0 0.0 0.0 0.0 0.0 0.0 0.1 0.3 0.4 0.5 1.0 1.3 1.0 1.5 1.8 2.2 2.0 1.6 1.2 1.1 0.8 0.6 0.7 0.5 0.6 0.8 0.6 0.5 0.5 0.4 0.2 0.2 0.2 0.5
0.0 0.0 0.0 0.0 0.0 0.0 0.0 0.0 0.0 0.0 0.0 0.0 0.0 0.0 0.0 0.1 0.3 0.3 0.6 0.8 1.3 0.8 1.3 1.7 1.9 1.5 0.9 0.1 0.5 0.5 1.0 1.0 0.4 0.6 0.8 0.8 0.5 0.3 0.4 0.3 0.3 0.3 0.2
0.0 0.0 0.0 0.0 0.0 0.0 0.0 0.0 0.0 0.0 0.1 0.1 0.1 0.0 0.0 0.0 0.1 0.2 0.4 0.7 1.0 0.8 1.1 1.5 1.2 0.7 0.1 0.1 0.0 0.2 0.3 0.5 0.3 0.5 0.6 0.6 0.5 0.5 0.4 0.2 0.2 0.3 0.2
0.0 0.0 0.0 0.0 0.0 0.0 0.0 0.1 0.0 0.0 0.1 0.0 0.0 0.0 0.0 0.0 0.0 0.2 0.3 0.6 1.0 0.9 0.9 0.8 0.7 0.4 0.2 0.1 0.3 0.3 0.5 0.6 0.3 0.3 0.5 0.7 0.5 0.6 0.3 0.2 0.1 0.1 0.1
0.0 0.0 0.0 0.0 0.0 0.0 0.0 0.0 0.0 0.0 0.1 0.0 0.0 0.0 0.0 0.0 0.2 0.2 0.2 0.3 0.3 0.4 0.3 0.3 0.2 0.2 0.2 0.2 0.2 0.2 0.1 0.2 0.2 0.2 0.3 0.4 0.7 0.6 0.8 0.4 0.2 0.2 0.1
0.0 0.0 0.0 0.0 0.0 0.0 0.0 0.0 0.0 0.0 0.0 0.0 0.0 0.0 0.0 0.0 0.2 0.2 0.2 0.0 0.0 0.0 0.0 0.0 0.0 0.1 0.1 0.0 0.0 0.1 0.1 0.1 0.2 0.3 0.3 0.3 0.3 0.3 0.4 0.4 0.2 0.2 0.1
0.0 0.0 0.1 0.0 0.0 0.1 0.1 0.0 0.0 0.1 0.0 0.2 0.1 0.0 0.0 0.2 0.2 0.2 0.0 0.0 0.0 0.0 0.0 0.0 0.0 0.0 0.0 0.1 0.1 0.2 0.1 0.0 0.0 0.1 0.2 0.1 0.2 0.2 0.2 0.2 0.2 0.1 0.1
0.0 0.1 0.1 0.1 0.1 0.0 0.1 0.2 0.2 0.1 0.3 0.1 0.1 0.0 0.0 0.1 0.2 0.3 0.1 0.1 0.0 0.0 0.0 0.0 0.0 0.0 0.0 0.0 0.0 0.0 0.0 0.1 0.1 0.0 0.0 0.0 0.0 0.1 0.2 0.2 0.2 0.1 0.1
0.0 0.2 0.1 0.1 0.1 0.1 0.2 0.2 0.3 0.2 0.1 0.1 0.1 0.1 0.0 0.0 0.1 0.2 0.1 0.1 0.1 0.0 0.0 0.0 0.0 0.0 0.0 0.0 0.0 0.0 0.0 0.0 0.0 0.0 0.0 0.0 0.0 0.0 0.0 0.0 0.1 0.1 0.1
0.1 0.2 0.3 0.2 0.3 0.2 0.2 0.1 0.2 0.3 0.2 0.3 0.3 0.2 0.0 0.0 0.0 0.0 0.2 0.2 0.1 0.0 0.0 0.0 0.0 0.0 0.0 0.0 0.0 0.0 0.0 0.0 0.0 0.0 0.0 0.0 0.0 0.0 0.0 0.0 0.0 0.0 0.0
0.1 0.2 0.2 0.3 0.2 0.2 0.2 0.3 0.2 0.3 0.2 0.2 0.3 0.2 0.2 0.0 0.0 0.0 0.0 0.0 0.0 0.0 0.0 0.0 0.0 0.0 0.0 0.0 0.0 0.0 0.0 0.0 0.0 0.0 0.0 0.0 0.0 0.0 0.0 0.0 0.0 0.0 0.0

GFSGL_prec_kuchsnow24_018.txt.gz
Snowfall_Accumulation
0.0 0.0 0.0 0.0 0.0 0.0 0.0 0.0 0.0 0.0 0.0 0.0 0.0 0.0 0.0 0.0 0.0 0.0 0.0 0.0 0.0 0.0 0.0 0.0 0.0 0.0 0.0 0.0 0.0 0.0 0.0 0.0 0.0 0.0 0.0 0.0 0.0 0.0 0.0 0.0 0.0 0.0 0.0
0.0 0.0 0.0 0.0 0.0 0.0 0.0 0.0 0.0 0.0 0.0 0.0 0.0 0.0 0.0 0.0 0.0 0.0 0.0 0.0 0.0 0.0 0.0 0.0 0.0 0.0 0.0 0.0 0.0 0.0 0.0 0.0 0.0 0.0 0.0 0.0 0.0 0.0 0.0 0.0 0.0 0.0 0.0
0.0 0.0 0.0 0.0 0.0 0.0 0.0 0.0 0.0 0.0 0.0 0.0 0.0 0.0 0.0 0.0 0.0 0.0 0.0 0.0 0.0 0.0 0.0 0.0 0.0 0.0 0.0 0.0 0.0 0.0 0.0 0.0 0.0 0.0 0.0 0.0 0.0 0.0 0.0 0.0 0.0 0.0 0.0
0.0 0.0 0.0 0.0 0.0 0.0 0.0 0.0 0.0 0.0 0.0 0.0 0.0 0.0 0.0 0.0 0.0 0.0 0.0 0.0 0.0 0.0 0.0 0.0 0.0 0.0 0.0 0.0 0.0 0.0 0.0 0.0 0.0 0.0 0.0 0.0 0.0 0.0 0.0 0.0 0.0 0.0 0.0
0.0 0.0 0.0 0.0 0.0 0.0 0.0 0.0 0.0 0.0 0.0 0.0 0.0 0.0 0.0 0.0 0.0 0.0 0.0 0.0 0.0 0.0 0.0 0.0 0.0 0.0 0.0 0.0 0.0 0.0 0.1 0.0 0.0 0.0 0.0 0.0 0.0 0.0 0.0 0.0 0.0 0.0 0.0
0.0 0.0 0.0 0.0 0.0 0.0 0.0 0.0 0.0 0.0 0.0 0.0 0.0 0.0 0.0 0.0 0.0 0.0 0.0 0.0 0.0 0.0 0.0 0.0 0.0 0.0 0.0 0.0 0.0 0.0 0.1 0.3 0.0 0.1 0.1 0.0 0.0 0.0 0.0 0.0 0.0 0.0 0.0
0.0 0.0 0.0 0.0 0.0 0.0 0.0 0.0 0.0 0.0 0.0 0.0 0.0 0.0 0.0 0.0 0.0 0.0 0.0 0.0 0.0 0.0 0.0 0.0 0.0 0.0 0.0 0.0 0.0 0.0 0.0 0.0 0.1 0.1 0.2 0.1 0.0 0.0 0.0 0.0 0.0 0.0 0.0
0.0 0.0 0.0 0.0 0.0 0.0 0.0 0.0 0.0 0.0 0.0 0.0 0.0 0.0 0.0 0.0 0.0 0.0 0.0 0.0 0.0 0.0 0.0 0.0 0.0 0.0 0.0 0.0 0.1 0.1 0.1 0.0 0.0 0.0 0.1 0.0 0.0 0.0 0.0 0.1 0.1 0.1 0.0
0.0 0.0 0.0 0.0 0.0 0.0 0.0 0.0 0.0 0.0 0.0 0.0 0.0 0.0 0.0 0.0 0.0 0.0 0.0 0.0 0.0 0.0 0.0 0.0 0.0 0.0 0.0 0.2 0.2 0.7 0.2 0.1 0.0 0.0 0.1 0.1 0.0 0.0 0.1 0.3 0.5 0.7 0.6
0.0 0.0 0.0 0.0 0.0 0.0 0.0 0.0 0.0 0.0 0.0 0.0 0.0 0.0 0.0 0.0 0.0 0.0 0.0 0.1 0.2 0.1 0.1 0.1 0.0 0.2 0.8 0.8 1.7 1.5 1.2 0.3 0.1 0.1 0.1 0.1 0.1 0.0 0.0 0.0 0.2 0.6 0.5
0.0 0.0 0.0 0.0 0.0 0.0 0.0 0.0 0.0 0.0 0.0 0.0 0.0 0.0 0.0 0.0 0.0 0.0 0.0 0.1 0.5 0.8 0.2 0.1 0.2 1.9 1.4 0.7 0.1 0.3 0.3 0.2 0.2 0.1 0.1 0.1 0.0 0.0 0.0 0.0 0.1 0.3 0.3
0.0 0.0 0.0 0.0 0.0 0.0 0.0 0.0 0.0 0.0 0.0 0.0 0.1 0.0 0.0 0.0 0.0 0.0 0.0 0.1 0.3 1.2 1.0 1.1 2.3 0.9 0.2 0.2 0.5 0.8 0.5 0.0 0.4 0.7 0.7 0.5 0.4 0.4 0.0 0.2 0.2 0.1 0.1
0.0 0.0 0.0 0.0 0.0 0.0 0.0 0.0 0.0 0.0 0.0 0.0 0.0 0.0 0.0 0.0 0.0 0.0 0.1 0.2 0.1 0.8 1.7 2.1 1.2 1.1 0.4 0.4 1.1 0.6 0.5 1.4 2.0 1.8 1.4 0.7 0.9 0.5 0.4 0.6 0.3 0.2 0.1
0.0 0.0 0.0 0.0 0.0 0.0 0.0 0.0 0.0 0.0 0.0 0.0 0.0 0.0 0.0 0.0 0.0 0.1 0.3 0.2 0.3 1.0 0.9 1.6 1.7 0.8 0.8 1.5 1.4 0.9 1.3 1.5 1.2 1.4 1.1 0.8 0.8 0.8 1.1 0.9 0.9 1.1 1.0
0.0 0.0 0.0 0.0 0.0 0.0 0.0 0.0 0.0 0.0 0.0 0.0 0.0 0.0 0.2 0.3 0.2 0.6 0.8 1.2 1.6 1.3 1.5 1.6 1.2 1.2 1.2 1.1 0.3 0.4 0.7 0.5 0.8 0.9 1.0 0.9 0.7 0.7 0.6 0.5 0.7 0.4 1.3
0.0 0.0 0.0 0.0 0.0 0.0 0.0 0.0 0.0 0.0 0.0 0.0 0.0 0.0 0.0 0.1 0.3 0.4 0.5 1.0 1.3 1.0 1.5 1.8 2.2 2.0 1.6 1.2 1.1 0.8 0.6 0.9 0.7 0.8 0.9 0.8 0.8 0.8 0.6 0.2 0.2 0.2 0.6
0.0 0.0 0.0 0.0 0.0 0.0 0.0 0.0 0.0 0.0 0.0 0.0 0.0 0.0 0.0 0.1 0.3 0.3 0.6 0.8 1.3 0.8 1.3 1.7 1.9 1.5 0.9 0.1 0.5 0.5 1.1 1.0 0.6 0.8 1.0 1.0 0.7 0.5 0.4 0.3 0.3 0.3 0.4
0.0 0.0 0.0 0.0 0.0 0.0 0.0 0.0 0.0 0.0 0.1 0.1 0.1 0.0 0.0 0.0 0.1 0.2 0.4 0.7 1.0 0.8 1.1 1.5 1.3 0.7 0.1 0.1 0.0 0.2 0.3 0.5 0.3 0.7 0.9 0.9 0.7 0.7 0.4 0.2 0.2 0.3 0.2
0.0 0.0 0.0 0.0 0.0 0.0 0.0 0.1 0.0 0.0 0.1 0.0 0.0 0.0 0.0 0.0 0.0 0.2 0.3 0.6 1.0 0.9 0.9 0.8 0.7 0.4 0.2 0.1 0.3 0.3 0.5 0.6 0.3 0.3 0.5 0.9 0.7 0.8 0.3 0.2 0.1 0.1 0.1
0.0 0.0 0.0 0.0 0.0 0.0 0.0 0.0 0.0 0.0 0.1 0.0 0.0 0.0 0.0 0.0 0.2 0.2 0.2 0.3 0.3 0.4 0.3 0.3 0.2 0.2 0.2 0.2 0.2 0.2 0.1 0.2 0.2 0.2 0.3 0.4 0.7 0.8 1.0 0.6 0.2 0.2 0.1
0.0 0.0 0.0 0.0 0.0 0.0 0.0 0.0 0.1 0.0 0.0 0.0 0.0 0.1 0.0 0.0 0.2 0.2 0.2 0.0 0.0 0.0 0.0 0.0 0.0 0.1 0.1 0.0 0.0 0.1 0.1 0.1 0.2 0.3 0.3 0.3 0.3 0.3 0.4 0.4 0.2 0.2 0.1
0.0 0.0 0.1 0.0 0.0 0.1 0.1 0.0 0.1 0.1 0.0 0.2 0.1 0.0 0.0 0.2 0.2 0.2 0.0 0.0 0.0 0.0 0.0 0.0 0.0 0.0 0.0 0.1 0.1 0.2 0.1 0.0 0.0 0.1 0.2 0.1 0.2 0.2 0.2 0.2 0.2 0.1 0.1
0.0 0.1 0.1 0.1 0.1 0.0 0.1 0.2 0.2 0.1 0.3 0.1 0.1 0.0 0.0 0.1 0.2 0.3 0.1 0.1 0.0 0.0 0.0 0.0 0.0 0.0 0.0 0.0 0.0 0.0 0.0 0.1 0.1 0.0 0.0 0.0 0.0 0.1 0.2 0.2 0.2 0.1 0.1
0.0 0.2 0.1 0.1 0.1 0.1 0.2 0.2 0.3 0.2 0.1 0.1 0.1 0.1 0.0 0.0 0.1 0.2 0.1 0.1 0.1 0.0 0.0 0.0 0.0 0.0 0.0 0.0 0.0 0.0 0.0 0.0 0.0 0.0 0.0 0.0 0.0 0.0 0.0 0.0 0.1 0.1 0.1
0.1 0.2 0.3 0.2 0.3 0.2 0.2 0.1 0.2 0.3 0.2 0.3 0.3 0.2 0.0 0.0 0.0 0.0 0.2 0.2 0.1 0.0 0.0 0.0 0.0 0.0 0.0 0.0 0.0 0.0 0.0 0.0 0.0 0.0 0.0 0.0 0.0 0.0 0.0 0.0 0.0 0.0 0.0
0.1 0.2 0.2 0.3 0.2 0.2 0.2 0.3 0.2 0.3 0.2 0.2 0.3 0.2 0.2 0.0 0.0 0.0 0.0 0.0 0.0 0.0 0.0 0.0 0.0 0.0 0.0 0.0 0.0 0.0 0.0 0.0 0.0 0.0 0.0 0.0 0.0 0.0 0.0 0.0 0.0 0.0 0.0

GFSGL_prec_kuchsnow24_021.txt.gz
Snowfall_Accumulation
0.0 0.0 0.0 0.0 0.0 0.0 0.0 0.0 0.0 0.0 0.0 0.0 0.0 0.0 0.0 0.0 0.0 0.0 0.0 0.0 0.0 0.0 0.0 0.0 0.0 0.0 0.0 0.0 0.0 0.0 0.0 0.0 0.0 0.0 0.0 0.0 0.0 0.0 0.0 0.0 0.0 0.0 0.0
0.0 0.0 0.0 0.0 0.0 0.0 0.0 0.0 0.0 0.0 0.0 0.0 0.0 0.0 0.0 0.0 0.0 0.0 0.0 0.0 0.0 0.0 0.0 0.0 0.0 0.0 0.0 0.0 0.0 0.0 0.0 0.0 0.0 0.0 0.0 0.0 0.0 0.0 0.0 0.0 0.0 0.0 0.0
0.0 0.0 0.0 0.0 0.0 0.0 0.0 0.0 0.0 0.0 0.0 0.0 0.0 0.0 0.0 0.0 0.0 0.0 0.0 0.0 0.0 0.0 0.0 0.0 0.0 0.0 0.0 0.0 0.0 0.0 0.0 0.0 0.0 0.0 0.0 0.0 0.0 0.0 0.0 0.0 0.0 0.0 0.0
0.0 0.0 0.0 0.0 0.0 0.0 0.0 0.0 0.0 0.0 0.0 0.0 0.0 0.0 0.0 0.0 0.0 0.0 0.0 0.0 0.0 0.0 0.0 0.0 0.0 0.0 0.0 0.0 0.0 0.0 0.0 0.0 0.0 0.1 0.0 0.0 0.0 0.0 0.0 0.0 0.0 0.0 0.0
0.0 0.0 0.0 0.0 0.0 0.0 0.0 0.0 0.0 0.0 0.0 0.0 0.0 0.0 0.0 0.0 0.0 0.0 0.0 0.0 0.0 0.0 0.0 0.0 0.0 0.0 0.0 0.0 0.0 0.0 0.1 0.2 0.2 0.2 0.1 0.0 0.0 0.0 0.0 0.0 0.0 0.0 0.0
0.0 0.0 0.0 0.0 0.0 0.0 0.0 0.0 0.0 0.0 0.0 0.0 0.0 0.0 0.0 0.0 0.0 0.0 0.0 0.0 0.0 0.0 0.0 0.0 0.0 0.0 0.0 0.0 0.0 0.0 0.1 0.5 0.2 0.2 0.1 0.2 0.1 0.0 0.0 0.0 0.0 0.0 0.0
0.0 0.0 0.0 0.0 0.0 0.0 0.0 0.0 0.0 0.0 0.0 0.0 0.0 0.0 0.0 0.0 0.0 0.0 0.0 0.0 0.0 0.0 0.0 0.0 0.0 0.0 0.0 0.0 0.0 0.0 0.0 0.0 0.2 0.3 0.3 0.1 0.0 0.0 0.0 0.0 0.0 0.0 0.0
0.0 0.0 0.0 0.0 0.0 0.0 0.0 0.0 0.0 0.0 0.0 0.0 0.0 0.0 0.0 0.0 0.0 0.0 0.0 0.0 0.0 0.0 0.0 0.0 0.0 0.0 0.0 0.0 0.4 0.4 0.1 0.0 0.0 0.0 0.2 0.1 0.0 0.0 0.0 0.1 0.1 0.1 0.0
0.0 0.0 0.0 0.0 0.0 0.0 0.0 0.0 0.0 0.0 0.0 0.0 0.0 0.0 0.0 0.0 0.0 0.0 0.0 0.0 0.0 0.0 0.0 0.0 0.0 0.0 0.0 0.3 0.6 0.9 0.3 0.1 0.0 0.0 0.1 0.1 0.0 0.1 0.2 0.6 0.5 0.8 0.7
0.0 0.0 0.0 0.0 0.0 0.0 0.0 0.0 0.0 0.0 0.0 0.0 0.0 0.0 0.0 0.0 0.0 0.0 0.0 0.1 0.2 0.1 0.1 0.1 0.0 0.2 0.9 1.0 2.1 1.8 1.5 0.3 0.1 0.1 0.1 0.1 0.1 0.0 0.0 0.0 0.2 0.6 0.5
0.0 0.0 0.0 0.0 0.0 0.0 0.0 0.0 0.0 0.0 0.0 0.0 0.0 0.0 0.0 0.0 0.0 0.0 0.0 0.1 0.5 0.8 0.2 0.1 0.2 2.0 1.5 0.9 0.4 0.8 0.8 0.4 0.3 0.2 0.1 0.1 0.0 0.0 0.0 0.0 0.1 0.3 0.3
0.0 0.0 0.0 0.0 0.0 0.0 0.0 0.0 0.0 0.0 0.0 0.0 0.1 0.0 0.0 0.0 0.0 0.0 0.0 0.1 0.3 1.3 1.0 1.1 2.4 1.0 0.4 0.3 0.7 1.2 0.7 0.1 0.6 0.7 0.7 0.5 0.5 0.5 0.0 0.2 0.2 0.1 0.1
0.0 0.0 0.0 0.0 0.0 0.0 0.0 0.0 0.0 0.0 0.0 0.0 0.0 0.0 0.0 0.0 0.0 0.0 0.1 0.2 0.1 0.8 1.7 2.1 1.2 1.1 0.4 0.4 1.2 0.9 0.5 1.5 2.0 1.9 1.5 0.9 1.2 0.9 0.8 0.8 0.4 0.4 0.4
0.0 0.0 0.0 0.0 0.0 0.0 0.0 0.0 0.0 0.0 0.0 0.0 0.0 0.0 0.0 0.0 0.0 0.1 0.3 0.2 0.3 1.0 0.9 1.6 1.7 0.8 0.8 1.5 1.4 0.9 1.3 1.8 1.5 1.8 1.4 1.0 1.0 1.1 1.6 1.3 1.4 1.6 1.3
0.0 0.0 0.0 0.0 0.0 0.0 0.0 0.0 0.0 0.0 0.0 0.0 0.0 0.0 0.2 0.3 0.2 0.6 0.8 1.2 1.6 1.3 1.5 1.6 1.2 1.2 1.2 1.1 0.3 0.4 0.7 0.5 0.8 1.1 1.3 1.2 1.1 1.0 1.0 1.0 1.1 0.6 1.3
0.0 0.0 0.0 0.0 0.0 0.0 0.0 0.0 0.0 0.0 0.0 0.0 0.0 0.0 0.0 0.1 0.3 0.4 0.5 1.0 1.3 1.0 1.5 1.8 2.2 2.0 1.6 1.2 1.1 0.8 0.6 0.9 0.8 1.0 1.1 1.1 1.1 1.1 0.9 0.3 0.3 0.4 0.8
0.0 0.0 0.0 0.0 0.0 0.0 0.0 0.0 0.0 0.0 0.0 0.0 0.0 0.0 0.0 0.1 0.3 0.3 0.6 0.8 1.3 0.8 1.3 1.7 1.9 1.5 0.9 0.1 0.5 0.5 1.1 1.0 0.6 1.0 1.3 1.2 0.9 0.7 0.6 0.4 0.3 0.4 0.5
0.0 0.0 0.0 0.0 0.0 0.0 0.0 0.0 0.0 0.0 0.1 0.1 0.1 0.0 0.0 0.0 0.1 0.2 0.4 0.7 1.0 0.8 1.1 1.5 1.3 0.7 0.1 0.1 0.0 0.2 0.3 0.5 0.3 0.7 1.1 1.0 0.8 0.9 0.5 0.4 0.3 0.3 0.2
0.0 0.0 0.0 0.0 0.0 0.0 0.0 0.1 0.0 0.0 0.1 0.0 0.0 0.0 0.0 0.0 0.0 0.2 0.3 0.6 1.0 0.9 0.9 0.8 0.7 0.4 0.2 0.1 0.3 0.3 0.5 0.6 0.3 0.3 0.5 0.9 0.8 0.9 0.4 0.2 0.1 0.1 0.1
0.0 0.0 0.0 0.0 0.0 0.0 0.0 0.0 0.0 0.0 0.1 0.0 0.0 0.0 0.0 0.0 0.2 0.2 0.2 0.3 0.3 0.4 0.3 0.3 0.2 0.2 0.2 0.2 0.2 0.2 0.1 0.2 0.2 0.2 0.3 0.4 0.7 0.8 1.0 0.6 0.3 0.2 0.1
0.1 0.1 0.1 0.0 0.0 0.0 0.0 0.1 0.1 0.0 0.0 0.0 0.0 0.1 0.0 0.0 0.2 0.2 0.2 0.0 0.0 0.0 0.0 0.0 0.0 0.1 0.1 0.0 0.0 0.1 0.1 0.1 0.2 0.3 0.3 0.3 0.3 0.3 0.4 0.4 0.2 0.2 0.1
0.1 0.1 0.1 0.0 0.0 0.1 0.1 0.0 0.1 0.1 0.1 0.2 0.1 0.0 0.0 0.2 0.2 0.2 0.0 0.0 0.0 0.0 0.0 0.0 0.0 0.0 0.0 0.1 0.1 0.2 0.1 0.0 0.0 0.1 0.2 0.1 0.2 0.2 0.2 0.2 0.2 0.1 0.1
0.0 0.3 0.2 0.1 0.1 0.0 0.1 0.2 0.2 0.1 0.3 0.1 0.1 0.0 0.0 0.1 0.2 0.3 0.1 0.1 0.0 0.0 0.0 0.0 0.0 0.0 0.0 0.0 0.0 0.0 0.0 0.1 0.1 0.0 0.0 0.0 0.0 0.1 0.2 0.2 0.2 0.1 0.1
0.1 0.3 0.3 0.1 0.1 0.1 0.2 0.2 0.3 0.2 0.1 0.1 0.1 0.1 0.0 0.0 0.1 0.2 0.1 0.1 0.1 0.0 0.0 0.0 0.0 0.0 0.0 0.0 0.0 0.0 0.0 0.0 0.0 0.0 0.0 0.0 0.0 0.0 0.0 0.0 0.1 0.1 0.1
0.2 0.4 0.4 0.2 0.3 0.2 0.2 0.1 0.2 0.3 0.2 0.3 0.3 0.2 0.0 0.0 0.0 0.0 0.2 0.2 0.1 0.0 0.0 0.0 0.0 0.0 0.0 0.0 0.0 0.0 0.0 0.0 0.0 0.0 0.0 0.0 0.0 0.0 0.0 0.0 0.0 0.0 0.0
0.2 0.3 0.3 0.3 0.2 0.2 0.2 0.3 0.2 0.3 0.2 0.2 0.3 0.2 0.2 0.0 0.0 0.0 0.0 0.0 0.0 0.0 0.0 0.0 0.0 0.0 0.0 0.0 0.0 0.0 0.0 0.0 0.0 0.0 0.0 0.0 0.0 0.0 0.0 0.0 0.0 0.0 0.0

GFSGL_prec_kuchsnow24_027.txt.gz
Snowfall_Accumulation
0.0 0.0 0.0 0.0 0.0 0.0 0.0 0.0 0.0 0.0 0.0 0.0 0.0 0.0 0.0 0.0 0.0 0.0 0.0 0.0 0.0 0.0 0.0 0.0 0.0 0.0 0.0 0.0 0.0 0.0 0.0 0.0 0.0 0.0 0.0 0.0 0.0 0.0 0.0 0.0 0.0 0.0 0.0
0.0 0.0 0.0 0.0 0.0 0.0 0.0 0.0 0.0 0.0 0.0 0.0 0.0 0.0 0.0 0.0 0.0 0.0 0.0 0.0 0.0 0.0 0.0 0.0 0.0 0.0 0.0 0.0 0.0 0.0 0.0 0.0 0.0 0.0 0.0 0.0 0.0 0.0 0.0 0.0 0.0 0.0 0.0
0.0 0.0 0.0 0.0 0.0 0.0 0.0 0.0 0.0 0.0 0.0 0.0 0.0 0.0 0.0 0.0 0.0 0.0 0.0 0.0 0.0 0.0 0.0 0.0 0.0 0.0 0.0 0.0 0.0 0.0 0.0 0.0 0.0 0.3 0.1 0.0 0.0 0.0 0.0 0.0 0.0 0.0 0.0
0.0 0.0 0.0 0.0 0.0 0.0 0.0 0.0 0.0 0.0 0.0 0.0 0.0 0.0 0.0 0.0 0.0 0.0 0.0 0.0 0.0 0.0 0.0 0.0 0.0 0.0 0.0 0.0 0.0 0.0 0.0 0.1 0.1 0.1 0.0 0.0 0.0 0.0 0.0 0.0 0.0 0.0 0.0
0.0 0.0 0.0 0.0 0.0 0.0 0.0 0.0 0.0 0.0 0.0 0.0 0.0 0.0 0.0 0.0 0.0 0.0 0.0 0.0 0.0 0.0 0.0 0.0 0.0 0.0 0.0 0.0 0.0 0.0 0.1 0.3 0.4 0.6 0.2 0.3 0.1 0.0 0.0 0.0 0.1 0.0 0.0
0.0 0.0 0.0 0.0 0.0 0.0 0.0 0.0 0.0 0.0 0.0 0.0 0.0 0.0 0.0 0.0 0.0 0.0 0.0 0.0 0.0 0.0 0.0 0.0 0.0 0.0 0.0 0.0 0.0 0.1 0.2 0.8 1.0 0.7 0.4 0.4 0.1 0.1 0.0 0.2 0.3 0.2 0.1
0.0 0.0 0.0 0.0 0.0 0.0 0.0 0.0 0.0 0.0 0.0 0.0 0.0 0.0 0.0 0.0 0.0 0.0 0.0 0.0 0.0 0.0 0.0 0.0 0.0 0.0 0.0 0.0 0.0 0.0 0.0 0.0 0.7 1.3 1.3 0.3 0.3 0.0 0.1 0.2 0.2 0.2 0.1
0.0 0.0 0.0 0.0 0.0 0.0 0.0 0.0 0.0 0.0 0.0 0.0 0.0 0.0 0.0 0.0 0.0 0.0 0.0 0.0 0.0 0.0 0.0 0.0 0.0 0.0 0.0 0.0 0.8 0.5 0.1 0.0 0.0 0.1 0.4 0.2 0.1 0.0 0.2 0.3 0.3 0.2 0.0
0.0 0.0 0.0 0.0 0.0 0.0 0.0 0.0 0.0 0.0 0.0 0.0 0.0 0.0 0.0 0.0 0.0 0.0 0.0 0.0 0.0 0.0 0.0 0.0 0.0 0.0 0.0 0.7 0.9 1.0 0.3 0.1 0.0 0.0 0.1 0.1 0.0 0.2 0.2 1.0 0.9 1.3 0.8
0.0 0.0 0.0 0.0 0.0 0.0 0.0 0.0 0.0 0.0 0.0 0.0 0.0 0.0 0.0 0.0 0.0 0.0 0.0 0.1 0.1 0.0 0.1 0.1 0.0 0.2 1.1 1.2 2.1 1.8 1.5 0.4 0.0 0.1 0.1 0.1 0.1 0.0 0.0 0.0 0.1 0.9 0.8
0.0 0.0 0.0 0.0 0.0 0.0 0.0 0.0 0.0 0.0 0.0 0.0 0.0 0.0 0.0 0.0 0.0 0.0 0.0 0.1 0.4 0.7 0.2 0.1 0.1 1.9 1.5 1.0 0.5 1.1 1.6 0.6 0.3 0.2 0.1 0.1 0.1 0.1 0.0 0.0 0.0 0.2 0.1
0.0 0.0 0.0 0.0 0.0 0.0 0.0 0.0 0.0 0.0 0.0 0.0 0.1 0.0 0.0 0.0 0.0 0.0 0.0 0.1 0.2 1.0 0.8 1.0 2.1 0.9 0.4 0.3 0.7 1.3 0.6 0.1 0.6 0.7 0.6 0.5 0.6 0.6 0.2 0.4 0.3 0.2 0.1
0.0 0.0 0.0 0.0 0.0 0.0 0.0 0.0 0.0 0.0 0.0 0.0 0.0 0.0 0.0 0.0 0.0 0.0 0.1 0.2 0.1 0.6 1.2 1.7 0.9 1.0 0.4 0.4 1.2 0.9 0.5 1.4 1.9 1.8 1.6 0.9 1.4 1.3 1.3 1.2 0.6 0.6 0.4
0.0 0.0 0.0 0.0 0.0 0.0 0.0 0.0 0.0 0.0 0.0 0.0 0.0 0.0 0.0 0.0 0.0 0.1 0.2 0.1 0.3 0.6 0.5 1.3 1.4 0.7 0.8 1.5 1.4 0.9 1.2 1.7 1.5 2.0 1.5 1.2 1.1 1.3 2.0 2.2 2.3 2.4 1.7
0.0 0.0 0.0 0.0 0.0 0.0 0.0 0.0 0.0 0.0 0.0 0.0 0.0 0.0 0.1 0.1 0.1 0.3 0.5 0.8 1.0 0.8 0.9 1.3 0.9 1.1 1.2 1.1 0.3 0.4 0.6 0.4 0.7 1.0 1.2 1.0 1.1 1.1 1.3 1.5 1.7 0.9 1.6
0.0 0.0 0.0 0.1 0.1 0.0 0.0 0.0 0.0 0.0 0.0 0.0 0.0 0.0 0.0 0.0 0.1 0.2 0.3 0.5 0.8 0.5 1.1 1.4 1.7 1.7 1.5 1.1 1.0 0.7 0.5 0.9 0.7 1.0 1.0 1.0 1.0 1.1 0.8 0.3 0.3 0.6 1.1
0.0 0.0 0.0 0.2 0.1 0.0 0.0 0.0 0.0 0.0 0.0 0.0 0.0 0.0 0.0 0.0 0.1 0.1 0.3 0.3 0.7 0.3 0.9 1.3 1.5 1.2 0.7 0.1 0.4 0.4 0.9 0.9 0.5 0.9 1.0 1.1 0.9 0.7 0.6 0.4 0.3 0.3 0.4
0.0 0.0 0.1 0.1 0.1 0.1 0.1 0.0 0.1 0.0 0.1 0.1 0.1 0.0 0.0 0.0 0.0 0.0 0.1 0.2 0.5 0.3 0.6 1.0 0.9 0.4 0.0 0.0 0.0 0.2 0.3 0.4 0.3 0.6 0.9 0.8 0.8 0.9 0.5 0.3 0.2 0.2 0.2
0.0 0.0 0.0 0.1 0.0 0.0 0.0 0.1 0.0 0.0 0.1 0.0 0.0 0.0 0.0 0.0 0.0 0.1 0.2 0.3 0.5 0.4 0.4 0.4 0.3 0.1 0.1 0.1 0.1 0.2 0.3 0.5 0.3 0.3 0.4 0.8 0.7 0.8 0.3 0.1 0.1 0.1 0.1
0.0 0.1 0.2 0.1 0.1 0.0 0.0 0.1 0.0 0.0 0.1 0.1 0.0 0.0 0.0 0.0 0.2 0.1 0.2 0.1 0.0 0.0 0.0 0.0 0.0 0.1 0.2 0.2 0.2 0.1 0.1 0.2 0.2 0.2 0.3 0.3 0.7 0.7 1.0 0.6 0.3 0.2 0.1
0.1 0.1 0.1 0.2 0.2 0.0 0.0 0.1 0.1 0.0 0.1 0.1 0.0 0.1 0.0 0.0 0.2 0.2 0.1 0.0 0.0 0.0 0.0 0.0 0.0 0.0 0.1 0.0 0.0 0.1 0.1 0.1 0.1 0.2 0.2 0.3 0.3 0.3 0.4 0.4 0.2 0.2 0.1
0.1 0.3 0.3 0.0 0.2 0.3 0.2 0.0 0.1 0.1 0.1 0.3 0.1 0.0 0.0 0.2 0.1 0.1 0.0 0.0 0.0 0.0 0.0 0.0 0.0 0.0 0.0 0.1 0.1 0.1 0.1 0.0 0.0 0.1 0.1 0.1 0.2 0.2 0.2 0.2 0.2 0.1 0.1
0.0 0.2 0.3 0.3 0.2 0.1 0.3 0.2 0.3 0.1 0.3 0.1 0.1 0.0 0.0 0.1 0.1 0.2 0.1 0.1 0.0 0.0 0.0 0.0 0.0 0.0 0.0 0.0 0.0 0.0 0.0 0.0 0.1 0.0 0.0 0.0 0.0 0.1 0.2 0.2 0.2 0.1 0.1
0.1 0.3 0.4 0.3 0.4 0.3 0.4 0.2 0.3 0.2 0.1 0.1 0.1 0.1 0.0 0.0 0.1 0.1 0.1 0.1 0.1 0.0 0.0 0.0 0.0 0.0 0.0 0.0 0.0 0.0 0.0 0.0 0.0 0.0 0.0 0.0 0.0 0.0 0.0 0.0 0.1 0.1 0.1
0.3 0.4 0.5 0.5 0.6 0.5 0.4 0.3 0.3 0.4 0.2 0.4 0.4 0.2 0.0 0.0 0.0 0.0 0.1 0.1 0.1 0.0 0.0 0.0 0.0 0.0 0.0 0.0 0.0 0.0 0.0 0.0 0.0 0.0 0.0 0.0 0.0 0.0 0.0 0.0 0.0 0.0 0.0
0.3 0.5 0.6 0.6 0.5 0.5 0.4 0.6 0.4 0.5 0.6 0.5 0.5 0.5 0.3 0.1 0.1 0.0 0.0 0.0 0.0 0.0 0.0 0.0 0.0 0.0 0.0 0.0 0.0 0.0 0.0 0.0 0.0 0.0 0.0 0.0 0.0 0.0 0.0 0.0 0.0 0.0 0.0

GFSGL_prec_kuchsnow24_030.txt.gz
Snowfall_Accumulation
0.0 0.0 0.0 0.0 0.0 0.0 0.0 0.0 0.0 0.0 0.0 0.0 0.0 0.0 0.0 0.0 0.0 0.0 0.0 0.0 0.0 0.0 0.0 0.0 0.0 0.0 0.0 0.0 0.0 0.0 0.0 0.0 0.0 0.0 0.0 0.0 0.0 0.0 0.0 0.0 0.0 0.0 0.0
0.0 0.0 0.0 0.0 0.0 0.0 0.0 0.0 0.0 0.0 0.0 0.0 0.0 0.0 0.0 0.0 0.0 0.0 0.0 0.0 0.0 0.0 0.0 0.0 0.0 0.0 0.0 0.0 0.0 0.0 0.0 0.0 0.0 0.0 0.0 0.0 0.0 0.0 0.0 0.0 0.0 0.0 0.0
0.0 0.0 0.0 0.0 0.0 0.0 0.0 0.0 0.0 0.0 0.0 0.0 0.0 0.0 0.0 0.0 0.0 0.0 0.0 0.0 0.0 0.0 0.0 0.0 0.0 0.0 0.0 0.0 0.0 0.0 0.0 0.0 0.0 0.3 0.1 0.0 0.0 0.0 0.0 0.0 0.0 0.0 0.0
0.0 0.0 0.0 0.0 0.0 0.0 0.0 0.0 0.0 0.0 0.0 0.0 0.0 0.0 0.0 0.0 0.0 0.0 0.0 0.0 0.0 0.0 0.0 0.0 0.0 0.0 0.0 0.0 0.0 0.0 0.0 0.1 0.1 0.1 0.0 0.0 0.0 0.0 0.0 0.0 0.0 0.0 0.0
0.0 0.0 0.0 0.0 0.0 0.0 0.0 0.0 0.0 0.0 0.0 0.0 0.0 0.0 0.0 0.0 0.0 0.0 0.0 0.0 0.0 0.0 0.0 0.0 0.0 0.0 0.0 0.0 0.0 0.0 0.1 0.3 0.5 0.6 0.2 0.3 0.1 0.0 0.1 0.0 0.2 0.0 0.0
0.0 0.0 0.0 0.0 0.0 0.0 0.0 0.0 0.0 0.0 0.0 0.0 0.0 0.0 0.0 0.0 0.0 0.0 0.0 0.0 0.0 0.0 0.0 0.0 0.0 0.0 0.0 0.0 0.0 0.1 0.2 0.9 1.3 0.9 0.6 0.5 0.1 0.1 0.0 0.4 0.4 0.4 0.1
0.0 0.0 0.0 0.0 0.0 0.0 0.0 0.0 0.0 0.0 0.0 0.0 0.0 0.0 0.0 0.0 0.0 0.0 0.0 0.0 0.0 0.0 0.0 0.0 0.0 0.0 0.0 0.0 0.0 0.0 0.1 0.1 0.9 1.4 1.5 0.4 0.4 0.1 0.2 0.3 0.2 0.4 0.3
0.0 0.0 0.0 0.0 0.0 0.0 0.0 0.0 0.0 0.0 0.0 0.0 0.0 0.0 0.0 0.0 0.0 0.0 0.0 0.0 0.0 0.0 0.0 0.0 0.0 0.0 0.0 0.0 0.9 0.5 0.1 0.0 0.0 0.1 0.4 0.3 0.2 0.1 0.4 0.4 0.4 0.3 0.0
0.0 0.0 0.0 0.0 0.0 0.0 0.0 0.0 0.0 0.0 0.0 0.0 0.0 0.0 0.0 0.0 0.0 0.0 0.0 0.0 0.0 0.0 0.0 0.0 0.0 0.0 0.0 0.7 0.8 0.8 0.2 0.0 0.0 0.0 0.1 0.1 0.0 0.2 0.2 1.1 1.0 1.4 0.9
0.0 0.0 0.0 0.0 0.0 0.0 0.0 0.0 0.0 0.0 0.0 0.0 0.0 0.0 0.0 0.0 0.0 0.0 0.0 0.1 0.1 0.0 0.0 0.0 0.0 0.2 1.0 1.2 1.9 1.5 1.5 0.4 0.0 0.1 0.1 0.1 0.1 0.0 0.0 0.0 0.1 0.8 0.8
0.0 0.0 0.0 0.0 0.0 0.0 0.0 0.0 0.0 0.0 0.0 0.0 0.0 0.0 0.0 0.0 0.0 0.0 0.0 0.0 0.3 0.5 0.1 0.1 0.1 1.7 1.3 0.9 0.5 1.0 1.6 0.5 0.3 0.2 0.1 0.1 0.1 0.1 0.1 0.1 0.1 0.2 0.1
0.0 0.0 0.0 0.0 0.0 0.0 0.0 0.0 0.0 0.0 0.0 0.0 0.0 0.0 0.0 0.0 0.0 0.0 0.0 0.1 0.2 0.7 0.7 0.7 1.7 0.9 0.4 0.3 0.7 1.3 0.6 0.1 0.5 0.7 0.6 0.5 0.6 0.6 0.3 0.5 0.4 0.3 0.1
0.0 0.0 0.0 0.0 0.0 0.0 0.0 0.0 0.0 0.0 0.0 0.0 0.0 0.0 0.0 0.0 0.0 0.0 0.0 0.1 0.1 0.5 0.8 1.2 0.9 1.0 0.4 0.4 1.2 0.9 0.4 1.3 1.8 1.6 1.5 0.9 1.5 1.3 1.3 1.4 0.8 0.7 0.4
0.0 0.0 0.0 0.0 0.0 0.0 0.0 0.0 0.0 0.0 0.0 0.0 0.0 0.0 0.0 0.0 0.0 0.0 0.1 0.1 0.1 0.3 0.2 0.9 1.2 0.4 0.6 1.4 1.4 0.9 1.1 1.6 1.4 1.9 1.5 1.2 1.1 1.3 1.9 2.3 2.5 2.5 1.9
0.0 0.0 0.0 0.0 0.0 0.0 0.0 0.0 0.0 0.0 0.0 0.0 0.0 0.0 0.0 0.0 0.0 0.1 0.3 0.4 0.5 0.5 0.6 0.9 0.6 0.6 1.0 1.1 0.2 0.3 0.6 0.3 0.6 0.8 1.1 1.0 1.1 1.1 1.3 1.5 1.7 0.9 1.6
0.0 0.0 0.0 0.1 0.1 0.0 0.0 0.0 0.0 0.0 0.0 0.0 0.0 0.0 0.0 0.0 0.0 0.1 0.1 0.2 0.5 0.2 0.7 0.8 1.1 1.0 1.2 1.0 1.0 0.6 0.5 0.8 0.6 0.9 0.8 0.9 1.0 1.1 0.8 0.3 0.4 0.6 1.0
0.0 0.0 0.0 0.2 0.1 0.0 0.0 0.0 0.0 0.0 0.0 0.0 0.0 0.0 0.0 0.0 0.0 0.0 0.1 0.0 0.3 0.0 0.5 0.7 0.8 0.6 0.4 0.0 0.3 0.3 0.9 0.8 0.4 0.8 0.9 1.0 0.8 0.6 0.5 0.3 0.2 0.3 0.4
0.0 0.0 0.1 0.1 0.1 0.1 0.1 0.1 0.1 0.1 0.1 0.1 0.1 0.0 0.0 0.0 0.0 0.0 0.1 0.1 0.2 0.0 0.2 0.5 0.4 0.0 0.0 0.0 0.0 0.1 0.2 0.3 0.2 0.5 0.8 0.7 0.8 0.8 0.4 0.3 0.2 0.1 0.1
0.0 0.0 0.0 0.1 0.1 0.0 0.0 0.1 0.1 0.1 0.1 0.0 0.0 0.0 0.0 0.0 0.0 0.1 0.2 0.2 0.2 0.0 0.0 0.0 0.0 0.0 0.0 0.1 0.1 0.1 0.2 0.4 0.2 0.2 0.3 0.7 0.6 0.8 0.3 0.1 0.0 0.0 0.0
0.0 0.1 0.2 0.1 0.1 0.0 0.1 0.2 0.1 0.1 0.2 0.1 0.0 0.0 0.0 0.0 0.1 0.1 0.2 0.1 0.1 0.0 0.0 0.0 0.0 0.0 0.1 0.1 0.1 0.1 0.1 0.1 0.1 0.1 0.2 0.2 0.6 0.7 0.9 0.6 0.2 0.1 0.0
0.1 0.1 0.1 0.2 0.2 0.1 0.0 0.2 0.2 0.1 0.1 0.1 0.0 0.0 0.0 0.0 0.1 0.1 0.1 0.1 0.1 0.0 0.0 0.0 0.0 0.0 0.0 0.0 0.0 0.1 0.1 0.1 0.1 0.1 0.1 0.2 0.2 0.2 0.3 0.3 0.2 0.2 0.0
0.1 0.3 0.3 0.1 0.2 0.4 0.2 0.1 0.2 0.1 0.1 0.3 0.1 0.0 0.0 0.1 0.1 0.1 0.1 0.1 0.1 0.0 0.0 0.0 0.0 0.0 0.0 0.0 0.0 0.0 0.0 0.0 0.0 0.0 0.0 0.0 0.1 0.1 0.2 0.1 0.1 0.1 0.1
0.0 0.2 0.3 0.3 0.2 0.1 0.3 0.3 0.4 0.2 0.3 0.1 0.1 0.0 0.0 0.1 0.1 0.1 0.1 0.1 0.1 0.0 0.0 0.0 0.0 0.0 0.0 0.0 0.0 0.0 0.0 0.0 0.0 0.0 0.0 0.0 0.0 0.0 0.1 0.1 0.1 0.0 0.1
0.1 0.3 0.4 0.4 0.4 0.4 0.4 0.3 0.4 0.3 0.2 0.2 0.2 0.1 0.0 0.0 0.1 0.0 0.1 0.1 0.1 0.1 0.0 0.0 0.0 0.0 0.0 0.0 0.0 0.0 0.0 0.0 0.0 0.0 0.0 0.0 0.0 0.0 0.0 0.0 0.0 0.0 0.0
0.3 0.4 0.5 0.6 0.7 0.6 0.5 0.3 0.3 0.4 0.3 0.5 0.4 0.3 0.1 0.1 0.1 0.0 0.0 0.1 0.1 0.0 0.0 0.0 0.0 0.0 0.0 0.0 0.0 0.0 0.0 0.0 0.0 0.0 0.0 0.0 0.0 0.0 0.0 0.0 0.0 0.0 0.0
0.2 0.5 0.6 0.7 0.7 0.6 0.6 0.7 0.5 0.6 0.7 0.5 0.6 0.6 0.5 0.3 0.2 0.2 0.2 0.2 0.2 0.2 0.1 0.0 0.0 0.0 0.0 0.0 0.0 0.0 0.0 0.0 0.0 0.0 0.0 0.0 0.0 0.0 0.0 0.0 0.0 0.0 0.0

GFSGL_prec_kuchsnow24_033.txt.gz
Snowfall_Accumulation
0.0 0.0 0.0 0.0 0.0 0.0 0.0 0.0 0.0 0.0 0.0 0.0 0.0 0.0 0.0 0.0 0.0 0.0 0.0 0.0 0.0 0.0 0.0 0.0 0.0 0.0 0.0 0.0 0.0 0.0 0.0 0.0 0.0 0.0 0.0 0.0 0.0 0.0 0.0 0.0 0.0 0.0 0.0
0.0 0.0 0.0 0.0 0.0 0.0 0.0 0.0 0.0 0.0 0.0 0.0 0.0 0.0 0.0 0.0 0.0 0.0 0.0 0.0 0.0 0.0 0.0 0.0 0.0 0.0 0.0 0.0 0.0 0.0 0.0 0.0 0.0 0.0 0.0 0.0 0.0 0.0 0.0 0.0 0.0 0.0 0.0
0.0 0.0 0.0 0.0 0.0 0.0 0.0 0.0 0.0 0.0 0.0 0.0 0.0 0.0 0.0 0.0 0.0 0.0 0.0 0.0 0.0 0.0 0.0 0.0 0.0 0.0 0.0 0.0 0.0 0.0 0.0 0.0 0.0 0.3 0.1 0.0 0.0 0.0 0.0 0.0 0.0 0.0 0.0
0.0 0.0 0.0 0.0 0.0 0.0 0.0 0.0 0.0 0.0 0.0 0.0 0.0 0.0 0.0 0.0 0.0 0.0 0.0 0.0 0.0 0.0 0.0 0.0 0.0 0.0 0.0 0.0 0.0 0.0 0.0 0.1 0.1 0.1 0.0 0.0 0.0 0.0 0.0 0.0 0.0 0.0 0.0
0.0 0.0 0.0 0.0 0.0 0.0 0.0 0.0 0.0 0.0 0.0 0.0 0.0 0.0 0.0 0.0 0.0 0.0 0.0 0.0 0.0 0.0 0.0 0.0 0.0 0.0 0.0 0.0 0.0 0.0 0.1 0.3 0.5 0.6 0.2 0.4 0.2 0.0 0.1 0.0 0.2 0.0 0.0
0.0 0.0 0.0 0.0 0.0 0.0 0.0 0.0 0.0 0.0 0.0 0.0 0.0 0.0 0.0 0.0 0.0 0.0 0.0 0.0 0.0 0.0 0.0 0.0 0.0 0.0 0.0 0.0 0.0 0.1 0.2 0.9 1.4 1.1 0.6 0.6 0.1 0.1 0.1 0.5 0.5 0.5 0.2
0.0 0.0 0.0 0.0 0.0 0.0 0.0 0.0 0.0 0.0 0.0 0.0 0.0 0.0 0.0 0.0 0.0 0.0 0.0 0.0 0.0 0.0 0.0 0.0 0.0 0.0 0.0 0.0 0.0 0.0 0.1 0.1 0.9 1.4 1.6 0.7 0.7 0.3 0.3 0.5 0.3 0.6 0.5
0.0 0.0 0.0 0.0 0.0 0.0 0.0 0.0 0.0 0.0 0.0 0.0 0.0 0.0 0.0 0.0 0.0 0.0 0.0 0.0 0.0 0.0 0.0 0.0 0.0 0.0 0.0 0.0 0.9 0.5 0.1 0.0 0.0 0.1 0.3 0.3 0.2 0.1 0.4 0.4 0.4 0.4 0.1
0.0 0.0 0.0 0.0 0.0 0.0 0.0 0.0 0.0 0.0 0.0 0.0 0.0 0.0 0.0 0.0 0.0 0.0 0.0 0.0 0.0 0.0 0.0 0.0 0.0 0.0 0.0 0.7 0.8 0.7 0.2 0.0 0.0 0.0 0.1 0.1 0.0 0.2 0.2 1.1 1.0 1.4 1.0
0.0 0.0 0.0 0.0 0.0 0.0 0.0 0.0 0.0 0.0 0.0 0.0 0.0 0.0 0.0 0.0 0.0 0.0 0.0 0.1 0.0 0.0 0.0 0.0 0.0 0.2 1.0 1.2 1.7 1.3 1.3 0.3 0.0 0.0 0.0 0.0 0.0 0.0 0.0 0.0 0.3 1.2 0.9
0.0 0.0 0.0 0.0 0.0 0.0 0.0 0.0 0.0 0.0 0.0 0.0 0.0 0.0 0.0 0.0 0.0 0.0 0.0 0.0 0.1 0.3 0.0 0.0 0.0 0.9 1.0 0.7 0.5 1.0 1.5 0.5 0.3 0.2 0.1 0.1 0.1 0.1 0.1 0.1 0.2 0.7 0.7
0.0 0.0 0.0 0.0 0.0 0.0 0.0 0.0 0.0 0.0 0.0 0.0 0.0 0.0 0.0 0.0 0.0 0.0 0.0 0.0 0.0 0.5 0.4 0.5 1.0 0.9 0.4 0.3 0.7 1.3 0.6 0.1 0.4 0.5 0.5 0.4 0.5 0.6 0.3 0.5 0.5 0.4 0.3
0.0 0.0 0.0 0.0 0.0 0.0 0.0 0.0 0.0 0.0 0.0 0.0 0.0 0.0 0.0 0.0 0.0 0.0 0.0 0.0 0.0 0.3 0.4 0.8 0.7 0.9 0.4 0.4 1.1 0.9 0.4 1.0 1.4 1.4 1.4 0.8 1.4 1.3 1.3 1.5 0.9 0.8 0.6
0.0 0.0 0.0 0.0 0.0 0.0 0.0 0.0 0.0 0.0 0.0 0.0 0.0 0.0 0.0 0.0 0.0 0.0 0.0 0.0 0.0 0.1 0.0 0.5 0.9 0.2 0.4 1.0 1.1 0.7 0.9 1.4 1.2 1.7 1.4 1.1 1.0 1.2 1.8 2.2 2.5 2.5 2.0
0.0 0.0 0.0 0.0 0.0 0.0 0.0 0.0 0.0 0.0 0.0 0.0 0.0 0.0 0.0 0.0 0.0 0.0 0.2 0.2 0.2 0.3 0.3 0.4 0.3 0.2 0.5 0.6 0.0 0.2 0.4 0.2 0.5 0.7 1.0 0.9 1.0 1.0 1.2 1.5 1.7 0.9 1.5
0.0 0.0 0.0 0.1 0.1 0.0 0.0 0.0 0.0 0.0 0.0 0.0 0.0 0.0 0.0 0.0 0.0 0.0 0.0 0.0 0.2 0.0 0.3 0.4 0.5 0.4 0.6 0.6 0.7 0.5 0.4 0.7 0.5 0.8 0.7 0.7 0.8 1.0 0.6 0.2 0.4 0.7 1.0
0.0 0.0 0.0 0.2 0.1 0.0 0.0 0.0 0.0 0.0 0.0 0.0 0.0 0.0 0.0 0.0 0.0 0.0 0.1 0.0 0.2 0.0 0.2 0.2 0.3 0.1 0.0 0.0 0.2 0.2 0.7 0.7 0.3 0.6 0.8 0.9 0.7 0.5 0.4 0.2 0.1 0.2 0.2
0.0 0.0 0.1 0.1 0.1 0.1 0.1 0.1 0.1 0.1 0.2 0.1 0.0 0.0 0.0 0.0 0.0 0.0 0.1 0.0 0.1 0.1 0.0 0.2 0.0 0.0 0.0 0.0 0.0 0.0 0.0 0.1 0.0 0.3 0.7 0.6 0.7 0.7 0.3 0.2 0.1 0.1 0.1
0.0 0.0 0.0 0.1 0.1 0.0 0.0 0.1 0.1 0.1 0.1 0.0 0.0 0.0 0.0 0.0 0.0 0.1 0.1 0.2 0.1 0.1 0.1 0.0 0.0 0.0 0.0 0.0 0.0 0.0 0.0 0.2 0.0 0.0 0.2 0.5 0.5 0.6 0.2 0.0 0.0 0.0 0.0
0.0 0.1 0.2 0.1 0.1 0.0 0.1 0.1 0.1 0.2 0.3 0.1 0.1 0.0 0.0 0.1 0.1 0.1 0.2 0.2 0.2 0.1 0.1 0.0 0.0 0.0 0.0 0.0 0.0 0.0 0.0 0.0 0.0 0.0 0.0 0.0 0.4 0.5 0.7 0.5 0.1 0.1 0.0
0.1 0.1 0.1 0.2 0.2 0.1 0.1 0.2 0.2 0.2 0.2 0.2 0.1 0.1 0.0 0.0 0.1 0.1 0.1 0.2 0.2 0.1 0.1 0.0 0.1 0.0 0.0 0.0 0.0 0.0 0.0 0.0 0.0 0.0 0.0 0.0 0.0 0.0 0.2 0.2 0.1 0.1 0.0
0.1 0.3 0.3 0.1 0.3 0.4 0.3 0.2 0.2 0.2 0.2 0.4 0.1 0.0 0.0 0.0 0.0 0.1 0.1 0.1 0.1 0.1 0.1 0.1 0.1 0.0 0.0 0.0 0.0 0.1 0.0 0.0 0.0 0.0 0.0 0.0 0.0 0.0 0.0 0.0 0.0 0.0 0.1
0.0 0.3 0.3 0.3 0.3 0.1 0.4 0.3 0.4 0.3 0.4 0.1 0.1 0.1 0.1 0.2 0.1 0.0 0.0 0.0 0.1 0.1 0.0 0.1 0.1 0.0 0.0 0.0 0.0 0.0 0.0 0.0 0.0 0.0 0.0 0.0 0.0 0.0 0.0 0.0 0.0 0.0 0.0
0.1 0.3 0.4 0.4 0.4 0.3 0.6 0.3 0.5 0.4 0.2 0.2 0.2 0.2 0.2 0.2 0.2 0.1 0.1 0.1 0.1 0.1 0.1 0.1 0.0 0.0 0.0 0.0 0.0 0.0 0.0 0.0 0.0 0.0 0.0 0.0 0.0 0.0 0.0 0.0 0.0 0.0 0.0
0.4 0.5 0.6 0.6 0.7 0.7 0.7 0.5 0.5 0.5 0.4 0.5 0.4 0.3 0.2 0.2 0.3 0.2 0.1 0.2 0.2 0.2 0.2 0.2 0.1 0.0 0.0 0.0 0.0 0.0 0.0 0.0 0.0 0.0 0.0 0.0 0.0 0.0 0.0 0.0 0.0 0.0 0.0
0.4 0.6 0.7 0.8 0.7 0.8 0.9 1.1 0.9 0.8 0.8 0.6 0.7 0.6 0.5 0.3 0.3 0.3 0.3 0.2 0.5 0.4 0.3 0.4 0.3 0.2 0.1 0.1 0.0 0.0 0.0 0.0 0.0 0.0 0.0 0.0 0.0 0.0 0.0 0.0 0.0 0.0 0.0

GFSGL_prec_kuchsnow24_036.txt.gz
Snowfall_Accumulation
0.0 0.0 0.0 0.0 0.0 0.0 0.0 0.0 0.0 0.0 0.0 0.0 0.0 0.0 0.0 0.0 0.0 0.0 0.0 0.0 0.0 0.0 0.0 0.0 0.0 0.0 0.0 0.0 0.0 0.0 0.0 0.0 0.0 0.0 0.0 0.0 0.0 0.0 0.0 0.0 0.0 0.0 0.0
0.0 0.0 0.0 0.0 0.0 0.0 0.0 0.0 0.0 0.0 0.0 0.0 0.0 0.0 0.0 0.0 0.0 0.0 0.0 0.0 0.0 0.0 0.0 0.0 0.0 0.0 0.0 0.0 0.0 0.0 0.0 0.0 0.0 0.0 0.0 0.0 0.0 0.0 0.0 0.0 0.0 0.0 0.0
0.0 0.0 0.0 0.0 0.0 0.0 0.0 0.0 0.0 0.0 0.0 0.0 0.0 0.0 0.0 0.0 0.0 0.0 0.0 0.0 0.0 0.0 0.0 0.0 0.0 0.0 0.0 0.0 0.0 0.0 0.0 0.0 0.0 0.3 0.1 0.0 0.0 0.0 0.0 0.0 0.0 0.0 0.0
0.0 0.0 0.0 0.0 0.0 0.0 0.0 0.0 0.0 0.0 0.0 0.0 0.0 0.0 0.0 0.0 0.0 0.0 0.0 0.0 0.0 0.0 0.0 0.0 0.0 0.0 0.0 0.0 0.0 0.0 0.0 0.1 0.1 0.1 0.0 0.0 0.0 0.0 0.1 0.0 0.1 0.0 0.0
0.0 0.0 0.0 0.0 0.0 0.0 0.0 0.0 0.0 0.0 0.0 0.0 0.0 0.0 0.0 0.0 0.0 0.0 0.0 0.0 0.0 0.0 0.0 0.0 0.0 0.0 0.0 0.0 0.0 0.0 0.1 0.3 0.5 0.6 0.2 0.4 0.2 0.0 0.1 0.1 0.2 0.0 0.0
0.0 0.0 0.0 0.0 0.0 0.0 0.0 0.0 0.0 0.0 0.0 0.0 0.0 0.0 0.0 0.0 0.0 0.0 0.0 0.0 0.0 0.0 0.0 0.0 0.0 0.0 0.0 0.0 0.0 0.1 0.2 0.9 1.4 1.1 0.6 0.6 0.1 0.3 0.3 0.5 0.5 0.5 0.2
0.0 0.0 0.0 0.0 0.0 0.0 0.0 0.0 0.0 0.0 0.0 0.0 0.0 0.0 0.0 0.0 0.0 0.0 0.0 0.0 0.0 0.0 0.0 0.0 0.0 0.0 0.0 0.0 0.0 0.0 0.1 0.1 0.9 1.4 1.6 0.8 0.9 0.3 0.3 0.5 0.3 0.6 0.5
0.0 0.0 0.0 0.0 0.0 0.0 0.0 0.0 0.0 0.0 0.0 0.0 0.0 0.0 0.0 0.0 0.0 0.0 0.0 0.0 0.0 0.0 0.0 0.0 0.0 0.0 0.0 0.0 0.9 0.5 0.1 0.0 0.0 0.1 0.3 0.3 0.2 0.1 0.4 0.4 0.3 0.4 0.1
0.0 0.0 0.0 0.0 0.0 0.0 0.0 0.0 0.0 0.0 0.0 0.0 0.0 0.0 0.0 0.0 0.0 0.0 0.0 0.0 0.0 0.0 0.0 0.0 0.0 0.0 0.0 0.7 0.8 0.7 0.2 0.0 0.0 0.0 0.1 0.1 0.0 0.2 0.2 1.2 1.0 1.6 1.0
0.0 0.0 0.0 0.0 0.0 0.0 0.0 0.0 0.0 0.0 0.0 0.0 0.0 0.0 0.0 0.0 0.0 0.0 0.0 0.1 0.0 0.0 0.0 0.0 0.0 0.1 0.8 1.1 1.5 0.9 0.9 0.2 0.0 0.0 0.0 0.0 0.0 0.0 0.1 0.1 0.8 2.2 0.9
0.0 0.0 0.0 0.0 0.0 0.0 0.0 0.0 0.0 0.0 0.0 0.0 0.0 0.0 0.0 0.0 0.0 0.0 0.0 0.0 0.0 0.1 0.0 0.0 0.0 0.2 0.5 0.6 0.5 1.0 1.5 0.5 0.3 0.2 0.1 0.1 0.1 0.1 0.1 0.1 0.2 0.8 1.4
0.0 0.0 0.0 0.0 0.0 0.0 0.0 0.0 0.0 0.0 0.0 0.0 0.0 0.0 0.0 0.0 0.0 0.0 0.0 0.0 0.0 0.2 0.2 0.1 0.6 0.7 0.3 0.3 0.7 1.2 0.6 0.1 0.4 0.5 0.5 0.2 0.3 0.4 0.3 0.5 0.5 0.3 0.2
0.0 0.0 0.0 0.0 0.0 0.0 0.0 0.0 0.0 0.0 0.0 0.0 0.0 0.0 0.0 0.0 0.0 0.0 0.0 0.0 0.0 0.1 0.1 0.5 0.4 0.5 0.3 0.4 0.9 0.8 0.3 0.7 0.8 0.9 1.0 0.8 1.2 1.3 1.3 1.5 0.9 0.8 0.6
0.0 0.0 0.0 0.0 0.0 0.0 0.0 0.0 0.0 0.0 0.0 0.0 0.0 0.0 0.0 0.0 0.0 0.0 0.0 0.0 0.0 0.0 0.0 0.2 0.3 0.1 0.2 0.7 0.5 0.4 0.5 0.9 1.0 1.3 1.1 1.0 0.9 1.2 1.6 2.2 2.2 2.4 1.9
0.0 0.0 0.0 0.0 0.0 0.0 0.0 0.0 0.0 0.0 0.0 0.0 0.0 0.0 0.1 0.1 0.0 0.0 0.0 0.0 0.1 0.1 0.0 0.0 0.0 0.0 0.1 0.2 0.0 0.2 0.1 0.2 0.2 0.5 0.7 0.6 0.8 0.9 1.2 1.5 1.6 0.9 1.3
0.0 0.0 0.0 0.1 0.1 0.0 0.0 0.0 0.0 0.0 0.0 0.0 0.0 0.0 0.0 0.0 0.0 0.0 0.0 0.0 0.1 0.0 0.0 0.2 0.2 0.0 0.0 0.0 0.2 0.2 0.2 0.5 0.4 0.6 0.5 0.5 0.7 0.9 0.6 0.2 0.2 0.7 1.0
0.0 0.0 0.0 0.2 0.1 0.0 0.0 0.0 0.0 0.0 0.0 0.0 0.0 0.0 0.0 0.0 0.0 0.0 0.0 0.0 0.0 0.0 0.0 0.0 0.0 0.1 0.1 0.0 0.0 0.0 0.5 0.4 0.3 0.5 0.6 0.7 0.7 0.5 0.3 0.2 0.1 0.2 0.2
0.0 0.0 0.1 0.1 0.1 0.1 0.1 0.1 0.1 0.1 0.2 0.1 0.0 0.0 0.0 0.0 0.0 0.0 0.1 0.0 0.2 0.1 0.1 0.0 0.0 0.0 0.0 0.0 0.0 0.0 0.0 0.0 0.0 0.2 0.5 0.5 0.7 0.5 0.1 0.2 0.1 0.1 0.0
0.0 0.0 0.0 0.1 0.1 0.0 0.0 0.1 0.1 0.1 0.1 0.0 0.0 0.0 0.0 0.0 0.0 0.0 0.1 0.3 0.1 0.1 0.1 0.0 0.0 0.0 0.0 0.0 0.0 0.0 0.0 0.0 0.0 0.0 0.0 0.3 0.3 0.5 0.2 0.0 0.0 0.0 0.0
0.0 0.1 0.2 0.1 0.1 0.0 0.0 0.1 0.0 0.1 0.2 0.1 0.1 0.0 0.0 0.3 0.3 0.1 0.2 0.2 0.2 0.1 0.1 0.1 0.0 0.0 0.0 0.0 0.0 0.0 0.0 0.0 0.0 0.0 0.0 0.0 0.1 0.3 0.5 0.3 0.0 0.1 0.0
0.1 0.1 0.1 0.2 0.3 0.1 0.2 0.3 0.3 0.2 0.3 0.2 0.1 0.1 0.0 0.2 0.4 0.3 0.1 0.2 0.2 0.1 0.1 0.0 0.1 0.0 0.0 0.0 0.0 0.0 0.0 0.0 0.0 0.0 0.0 0.0 0.0 0.0 0.0 0.0 0.0 0.0 0.0
0.1 0.3 0.2 0.1 0.4 0.5 0.4 0.3 0.3 0.2 0.2 0.3 0.1 0.0 0.0 0.1 0.1 0.2 0.1 0.2 0.2 0.1 0.1 0.1 0.1 0.0 0.0 0.0 0.0 0.1 0.0 0.0 0.0 0.0 0.0 0.0 0.0 0.0 0.0 0.0 0.0 0.0 0.0
0.0 0.3 0.4 0.3 0.3 0.1 0.3 0.2 0.3 0.3 0.4 0.1 0.3 0.2 0.3 0.2 0.4 0.2 0.1 0.0 0.1 0.1 0.0 0.1 0.1 0.0 0.0 0.0 0.0 0.0 0.0 0.0 0.0 0.0 0.0 0.0 0.0 0.0 0.0 0.0 0.0 0.0 0.0
0.1 0.2 0.7 0.4 0.7 0.4 0.6 0.3 0.5 0.3 0.5 0.5 0.5 0.4 0.3 0.2 0.6 0.5 0.3 0.2 0.1 0.1 0.1 0.2 0.1 0.0 0.0 0.1 0.0 0.0 0.0 0.0 0.0 0.0 0.0 0.0 0.0 0.0 0.0 0.0 0.0 0.0 0.0
0.4 0.5 0.6 0.8 0.6 0.8 0.8 0.7 0.7 0.8 0.7 0.8 0.9 0.6 0.4 0.4 0.4 0.2 0.1 0.4 0.4 0.3 0.3 0.3 0.3 0.2 0.1 0.2 0.2 0.1 0.0 0.0 0.0 0.0 0.0 0.0 0.0 0.0 0.0 0.0 0.0 0.0 0.0
0.4 1.0 1.1 1.1 1.5 1.6 1.6 1.2 1.0 1.0 1.2 1.0 1.0 1.0 0.9 0.8 0.8 0.6 0.4 0.2 0.5 0.4 0.3 0.5 0.5 0.4 0.4 0.3 0.4 0.4 0.1 0.0 0.0 0.0 0.0 0.0 0.0 0.0 0.0 0.0 0.0 0.0 0.0

GFSGL_prec_kuchsnow24_039.txt.gz
Snowfall_Accumulation
0.0 0.0 0.0 0.0 0.0 0.0 0.0 0.0 0.0 0.0 0.0 0.0 0.0 0.0 0.0 0.0 0.0 0.0 0.0 0.0 0.0 0.0 0.0 0.0 0.0 0.0 0.0 0.0 0.0 0.0 0.0 0.0 0.0 0.0 0.0 0.0 0.0 0.0 0.0 0.0 0.0 0.0 0.0
0.0 0.0 0.0 0.0 0.0 0.0 0.0 0.0 0.0 0.0 0.0 0.0 0.0 0.0 0.0 0.0 0.0 0.0 0.0 0.0 0.0 0.0 0.0 0.0 0.0 0.0 0.0 0.0 0.0 0.0 0.0 0.0 0.0 0.0 0.0 0.0 0.0 0.0 0.0 0.0 0.0 0.0 0.0
0.0 0.0 0.0 0.0 0.0 0.0 0.0 0.0 0.0 0.0 0.0 0.0 0.0 0.0 0.0 0.0 0.0 0.0 0.0 0.0 0.0 0.0 0.0 0.0 0.0 0.0 0.0 0.0 0.0 0.0 0.0 0.0 0.0 0.3 0.1 0.0 0.0 0.0 0.0 0.0 0.0 0.0 0.0
0.0 0.0 0.0 0.0 0.0 0.0 0.0 0.0 0.0 0.0 0.0 0.0 0.0 0.0 0.0 0.0 0.0 0.0 0.0 0.0 0.0 0.0 0.0 0.0 0.0 0.0 0.0 0.0 0.0 0.0 0.0 0.1 0.1 0.1 0.0 0.0 0.0 0.0 0.1 0.0 0.1 0.0 0.0
0.0 0.0 0.0 0.0 0.0 0.0 0.0 0.0 0.0 0.0 0.0 0.0 0.0 0.0 0.0 0.0 0.0 0.0 0.0 0.0 0.0 0.0 0.0 0.0 0.0 0.0 0.0 0.0 0.0 0.0 0.1 0.3 0.5 0.6 0.2 0.4 0.2 0.0 0.1 0.1 0.2 0.0 0.0
0.0 0.0 0.0 0.0 0.0 0.0 0.0 0.0 0.0 0.0 0.0 0.0 0.0 0.0 0.0 0.0 0.0 0.0 0.0 0.0 0.0 0.0 0.0 0.0 0.0 0.0 0.0 0.0 0.0 0.1 0.2 0.9 1.4 1.1 0.6 0.6 0.1 0.3 0.4 0.5 0.5 0.5 0.2
0.0 0.0 0.0 0.0 0.0 0.0 0.0 0.0 0.0 0.0 0.0 0.0 0.0 0.0 0.0 0.0 0.0 0.0 0.0 0.0 0.0 0.0 0.0 0.0 0.0 0.0 0.0 0.0 0.0 0.0 0.1 0.1 0.9 1.4 1.6 0.8 0.9 0.3 0.3 0.5 0.3 0.6 0.5
0.0 0.0 0.0 0.0 0.0 0.0 0.0 0.0 0.0 0.0 0.0 0.0 0.0 0.0 0.0 0.0 0.0 0.0 0.0 0.0 0.0 0.0 0.0 0.0 0.0 0.0 0.0 0.0 0.9 0.5 0.1 0.0 0.0 0.1 0.3 0.3 0.2 0.1 0.4 0.3 0.3 0.3 0.1
0.0 0.0 0.0 0.0 0.0 0.0 0.0 0.0 0.0 0.0 0.0 0.0 0.0 0.0 0.0 0.0 0.0 0.0 0.0 0.0 0.0 0.0 0.0 0.0 0.0 0.0 0.0 0.6 0.8 0.7 0.2 0.0 0.0 0.0 0.1 0.1 0.0 0.2 0.2 1.2 1.1 1.5 1.0
0.0 0.0 0.0 0.0 0.0 0.0 0.0 0.0 0.0 0.0 0.0 0.0 0.0 0.0 0.0 0.0 0.0 0.0 0.0 0.0 0.0 0.0 0.0 0.0 0.0 0.1 0.5 0.7 1.3 0.9 0.9 0.2 0.0 0.0 0.0 0.0 0.0 0.0 0.1 0.1 0.8 2.2 0.9
0.0 0.0 0.0 0.0 0.0 0.0 0.0 0.0 0.0 0.0 0.0 0.0 0.0 0.0 0.0 0.0 0.0 0.0 0.0 0.0 0.0 0.0 0.0 0.0 0.0 0.2 0.5 0.3 0.5 1.0 1.5 0.5 0.3 0.2 0.1 0.1 0.1 0.1 0.1 0.1 0.2 0.8 1.7
0.0 0.0 0.0 0.0 0.0 0.0 0.0 0.0 0.0 0.0 0.0 0.0 0.0 0.0 0.0 0.0 0.0 0.0 0.0 0.0 0.0 0.2 0.1 0.0 0.3 0.4 0.3 0.3 0.6 1.0 0.4 0.1 0.3 0.4 0.4 0.2 0.3 0.3 0.3 0.3 0.4 0.3 0.2
0.0 0.0 0.0 0.0 0.0 0.0 0.0 0.0 0.0 0.0 0.0 0.0 0.0 0.0 0.0 0.0 0.0 0.0 0.0 0.0 0.0 0.0 0.0 0.3 0.0 0.1 0.2 0.2 0.5 0.5 0.1 0.4 0.3 0.4 0.7 0.6 1.0 1.2 1.2 1.3 0.8 0.8 0.6
0.0 0.0 0.0 0.0 0.0 0.0 0.0 0.0 0.0 0.0 0.0 0.0 0.0 0.0 0.0 0.0 0.0 0.0 0.0 0.0 0.0 0.0 0.0 0.0 0.0 0.0 0.0 0.3 0.2 0.3 0.2 0.5 0.8 1.1 1.0 0.9 0.8 1.0 1.4 2.0 2.2 2.1 1.9
0.0 0.0 0.0 0.0 0.0 0.0 0.0 0.0 0.0 0.0 0.0 0.0 0.0 0.0 0.1 0.1 0.0 0.1 0.1 0.1 0.1 0.0 0.0 0.0 0.0 0.0 0.0 0.0 0.0 0.2 0.1 0.1 0.2 0.5 0.6 0.5 0.7 0.8 1.1 1.4 1.4 0.9 1.2
0.0 0.0 0.0 0.1 0.1 0.0 0.0 0.0 0.0 0.0 0.0 0.0 0.0 0.0 0.0 0.0 0.0 0.0 0.0 0.0 0.0 0.1 0.1 0.0 0.0 0.0 0.0 0.0 0.0 0.0 0.0 0.2 0.3 0.5 0.4 0.5 0.5 0.7 0.5 0.2 0.2 0.7 0.9
0.0 0.0 0.0 0.2 0.1 0.0 0.0 0.0 0.0 0.0 0.0 0.0 0.0 0.0 0.0 0.0 0.0 0.0 0.0 0.0 0.0 0.1 0.1 0.0 0.0 0.1 0.1 0.0 0.0 0.0 0.1 0.0 0.2 0.4 0.5 0.6 0.6 0.4 0.3 0.2 0.1 0.2 0.2
0.0 0.0 0.1 0.1 0.1 0.1 0.1 0.1 0.1 0.1 0.2 0.1 0.0 0.0 0.0 0.0 0.0 0.0 0.0 0.3 0.5 0.2 0.1 0.0 0.0 0.0 0.0 0.0 0.0 0.0 0.0 0.0 0.0 0.2 0.4 0.4 0.5 0.4 0.1 0.2 0.1 0.1 0.0
0.0 0.0 0.0 0.1 0.1 0.0 0.0 0.2 0.3 0.3 0.3 0.0 0.0 0.0 0.0 0.0 0.0 0.0 0.2 0.9 0.2 0.1 0.1 0.0 0.0 0.0 0.0 0.0 0.0 0.0 0.0 0.0 0.0 0.0 0.0 0.2 0.3 0.3 0.1 0.0 0.0 0.0 0.0
0.0 0.1 0.2 0.1 0.1 0.0 0.0 0.1 0.3 0.4 0.4 0.3 0.1 0.0 0.0 0.3 0.5 0.2 0.2 0.2 0.3 0.1 0.1 0.1 0.0 0.0 0.0 0.0 0.0 0.0 0.0 0.0 0.0 0.0 0.0 0.0 0.0 0.2 0.2 0.2 0.0 0.0 0.0
0.1 0.1 0.1 0.2 0.3 0.3 0.3 0.4 0.4 0.2 0.5 0.3 0.1 0.1 0.0 0.2 0.5 0.3 0.1 0.2 0.3 0.1 0.1 0.0 0.1 0.0 0.0 0.0 0.0 0.0 0.0 0.0 0.0 0.0 0.0 0.0 0.0 0.0 0.0 0.0 0.0 0.0 0.0
0.1 0.3 0.2 0.1 0.4 0.4 0.3 0.4 0.5 0.2 0.2 0.2 0.1 0.0 0.0 0.1 0.3 0.3 0.4 0.5 0.2 0.1 0.1 0.1 0.1 0.0 0.0 0.0 0.0 0.1 0.0 0.0 0.0 0.0 0.0 0.0 0.0 0.0 0.0 0.0 0.0 0.0 0.0
0.0 0.3 0.4 0.3 0.3 0.1 0.3 0.2 0.3 0.4 0.4 0.1 0.3 0.5 0.3 0.5 0.6 0.2 0.2 0.0 0.5 0.6 0.2 0.1 0.1 0.0 0.0 0.0 0.0 0.0 0.0 0.0 0.0 0.0 0.0 0.0 0.0 0.0 0.0 0.0 0.0 0.0 0.0
0.2 0.3 0.7 0.5 0.9 0.8 0.7 0.3 0.5 0.3 0.8 0.7 0.7 0.3 0.9 0.7 1.0 0.8 0.6 0.2 0.1 0.5 0.4 0.5 0.3 0.2 0.0 0.1 0.0 0.0 0.0 0.0 0.0 0.0 0.0 0.0 0.0 0.0 0.0 0.0 0.0 0.0 0.0
0.4 0.6 0.6 0.8 1.2 1.5 1.4 1.8 2.4 2.1 1.3 1.0 1.0 0.6 0.4 0.4 0.4 0.6 0.6 0.8 0.7 0.3 0.6 0.5 0.5 0.4 0.4 0.5 0.4 0.1 0.0 0.0 0.1 0.0 0.0 0.0 0.0 0.0 0.0 0.0 0.0 0.0 0.0
0.4 1.1 1.1 1.1 1.5 1.6 3.3 3.0 2.4 1.9 1.7 1.2 1.1 1.2 1.1 1.0 1.1 1.2 1.2 1.2 1.5 1.2 0.6 0.5 0.5 0.4 0.4 0.5 0.7 0.8 0.4 0.2 0.4 0.1 0.0 0.0 0.0 0.0 0.0 0.0 0.0 0.0 0.0

GFSGL_prec_kuchsnow24_042.txt.gz
Snowfall_Accumulation
0.0 0.0 0.0 0.0 0.0 0.0 0.0 0.0 0.0 0.0 0.0 0.0 0.0 0.0 0.0 0.0 0.0 0.0 0.0 0.0 0.0 0.0 0.0 0.0 0.0 0.0 0.0 0.0 0.0 0.0 0.0 0.0 0.0 0.0 0.0 0.0 0.0 0.0 0.0 0.0 0.0 0.0 0.0
0.0 0.0 0.0 0.0 0.0 0.0 0.0 0.0 0.0 0.0 0.0 0.0 0.0 0.0 0.0 0.0 0.0 0.0 0.0 0.0 0.0 0.0 0.0 0.0 0.0 0.0 0.0 0.0 0.0 0.0 0.0 0.0 0.0 0.0 0.0 0.0 0.0 0.0 0.0 0.0 0.0 0.0 0.0
0.0 0.0 0.0 0.0 0.0 0.0 0.0 0.0 0.0 0.0 0.0 0.0 0.0 0.0 0.0 0.0 0.0 0.0 0.0 0.0 0.0 0.0 0.0 0.0 0.0 0.0 0.0 0.0 0.0 0.0 0.0 0.0 0.0 0.3 0.1 0.0 0.0 0.0 0.0 0.0 0.0 0.0 0.0
0.0 0.0 0.0 0.0 0.0 0.0 0.0 0.0 0.0 0.0 0.0 0.0 0.0 0.0 0.0 0.0 0.0 0.0 0.0 0.0 0.0 0.0 0.0 0.0 0.0 0.0 0.0 0.0 0.0 0.0 0.0 0.1 0.1 0.1 0.0 0.0 0.0 0.0 0.1 0.0 0.1 0.0 0.0
0.0 0.0 0.0 0.0 0.0 0.0 0.0 0.0 0.0 0.0 0.0 0.0 0.0 0.0 0.0 0.0 0.0 0.0 0.0 0.0 0.0 0.0 0.0 0.0 0.0 0.0 0.0 0.0 0.0 0.0 0.0 0.3 0.5 0.6 0.2 0.4 0.2 0.0 0.1 0.1 0.2 0.0 0.0
0.0 0.0 0.0 0.0 0.0 0.0 0.0 0.0 0.0 0.0 0.0 0.0 0.0 0.0 0.0 0.0 0.0 0.0 0.0 0.0 0.0 0.0 0.0 0.0 0.0 0.0 0.0 0.0 0.0 0.0 0.1 0.7 1.4 0.9 0.5 0.6 0.1 0.3 0.4 0.5 0.5 0.5 0.2
0.0 0.0 0.0 0.0 0.0 0.0 0.0 0.0 0.0 0.0 0.0 0.0 0.0 0.0 0.0 0.0 0.0 0.0 0.0 0.0 0.0 0.0 0.0 0.0 0.0 0.0 0.0 0.0 0.0 0.0 0.1 0.1 0.8 1.3 1.6 0.8 0.9 0.3 0.3 0.5 0.3 0.6 0.5
0.0 0.0 0.0 0.0 0.0 0.0 0.0 0.0 0.0 0.0 0.0 0.0 0.0 0.0 0.0 0.0 0.0 0.0 0.0 0.0 0.0 0.0 0.0 0.0 0.0 0.0 0.0 0.0 0.8 0.4 0.1 0.0 0.0 0.1 0.3 0.3 0.2 0.1 0.4 0.4 0.5 0.5 0.1
0.0 0.0 0.0 0.0 0.0 0.0 0.0 0.0 0.0 0.0 0.0 0.0 0.0 0.0 0.0 0.0 0.0 0.0 0.0 0.0 0.0 0.0 0.0 0.0 0.0 0.0 0.0 0.5 0.8 0.4 0.1 0.0 0.0 0.0 0.0 0.0 0.0 0.2 0.1 1.1 1.1 1.4 0.9
0.0 0.0 0.0 0.0 0.0 0.0 0.0 0.0 0.0 0.0 0.0 0.0 0.0 0.0 0.0 0.0 0.0 0.0 0.0 0.0 0.0 0.0 0.0 0.0 0.0 0.0 0.3 0.5 0.8 0.7 0.8 0.2 0.0 0.0 0.0 0.0 0.0 0.0 0.1 0.1 0.8 2.4 1.0
0.0 0.0 0.0 0.0 0.0 0.0 0.0 0.0 0.0 0.0 0.0 0.0 0.0 0.0 0.0 0.0 0.0 0.0 0.0 0.0 0.0 0.0 0.0 0.0 0.0 0.2 0.2 0.3 0.5 1.0 1.5 0.5 0.3 0.2 0.1 0.1 0.1 0.1 0.1 0.1 0.2 0.8 1.7
0.0 0.0 0.0 0.0 0.0 0.0 0.0 0.0 0.0 0.0 0.0 0.0 0.0 0.0 0.0 0.0 0.0 0.0 0.0 0.0 0.0 0.1 0.0 0.0 0.1 0.1 0.2 0.2 0.2 0.5 0.2 0.1 0.2 0.1 0.2 0.1 0.3 0.3 0.3 0.3 0.4 0.3 0.2
0.0 0.0 0.0 0.0 0.0 0.0 0.0 0.0 0.0 0.0 0.0 0.0 0.0 0.0 0.0 0.0 0.0 0.0 0.0 0.0 0.0 0.0 0.0 0.0 0.0 0.0 0.0 0.0 0.2 0.3 0.0 0.2 0.1 0.2 0.4 0.3 0.7 0.9 1.0 1.1 0.7 0.6 0.6
0.0 0.0 0.0 0.0 0.0 0.0 0.0 0.0 0.0 0.0 0.0 0.0 0.0 0.0 0.0 0.0 0.0 0.0 0.0 0.0 0.0 0.1 0.0 0.0 0.0 0.0 0.0 0.0 0.0 0.0 0.0 0.3 0.5 0.8 0.7 0.6 0.6 0.8 1.1 1.7 2.0 1.8 1.9
0.0 0.0 0.0 0.0 0.0 0.0 0.0 0.0 0.0 0.0 0.0 0.0 0.0 0.0 0.1 0.1 0.0 0.0 0.1 0.1 0.1 0.0 0.2 0.2 0.1 0.0 0.0 0.0 0.0 0.0 0.0 0.0 0.0 0.2 0.4 0.3 0.5 0.5 0.8 1.1 1.3 0.9 1.1
0.0 0.0 0.0 0.1 0.1 0.0 0.0 0.0 0.0 0.0 0.0 0.0 0.0 0.0 0.0 0.0 0.0 0.0 0.0 0.0 0.0 0.2 0.6 0.3 0.0 0.0 0.0 0.0 0.0 0.0 0.0 0.0 0.1 0.3 0.2 0.3 0.3 0.4 0.3 0.2 0.2 0.7 0.8
0.0 0.0 0.0 0.2 0.1 0.0 0.0 0.0 0.0 0.0 0.0 0.0 0.0 0.0 0.1 0.0 0.0 0.0 0.0 0.0 0.0 0.5 0.8 0.0 0.0 0.1 0.1 0.0 0.0 0.0 0.0 0.0 0.0 0.2 0.2 0.4 0.4 0.3 0.3 0.2 0.1 0.2 0.1
0.0 0.0 0.1 0.1 0.1 0.1 0.1 0.1 0.1 0.1 0.2 0.1 0.0 0.2 0.2 0.0 0.0 0.0 0.0 0.3 1.0 0.6 0.4 0.0 0.0 0.0 0.0 0.0 0.0 0.0 0.0 0.0 0.0 0.0 0.2 0.2 0.3 0.2 0.1 0.2 0.1 0.1 0.0
0.0 0.0 0.0 0.1 0.1 0.0 0.0 0.2 0.3 0.4 0.5 0.3 0.1 0.0 0.0 0.0 0.0 0.0 0.2 0.9 0.2 0.2 0.1 0.1 0.0 0.0 0.0 0.0 0.0 0.0 0.0 0.0 0.0 0.0 0.0 0.0 0.1 0.1 0.1 0.0 0.0 0.0 0.0
0.0 0.1 0.2 0.1 0.1 0.0 0.0 0.1 0.3 0.4 0.5 0.4 0.2 0.0 0.0 0.3 0.5 0.2 0.2 0.2 0.6 0.3 0.2 0.2 0.2 0.0 0.0 0.0 0.0 0.0 0.0 0.0 0.0 0.0 0.0 0.0 0.0 0.0 0.0 0.0 0.0 0.0 0.0
0.1 0.1 0.1 0.2 0.3 0.3 0.3 0.5 0.5 0.4 0.7 0.3 0.1 0.1 0.0 0.2 0.5 0.3 0.1 0.2 0.3 0.3 0.3 0.2 0.2 0.1 0.0 0.0 0.0 0.0 0.0 0.0 0.0 0.0 0.0 0.0 0.0 0.0 0.0 0.0 0.0 0.0 0.0
0.1 0.3 0.2 0.2 0.4 0.4 0.3 0.4 0.8 1.1 1.0 0.8 0.1 0.0 0.0 0.1 0.3 0.3 0.4 0.5 0.2 0.1 0.2 0.4 0.4 0.1 0.0 0.0 0.0 0.1 0.0 0.0 0.0 0.0 0.0 0.0 0.0 0.0 0.0 0.0 0.0 0.0 0.0
0.0 0.3 0.4 0.3 0.3 0.1 0.3 0.3 0.7 0.8 0.8 0.5 0.8 1.0 0.4 0.4 0.6 0.2 1.1 0.5 0.7 0.6 0.2 0.5 0.4 0.2 0.0 0.0 0.1 0.0 0.0 0.0 0.0 0.0 0.0 0.0 0.0 0.0 0.0 0.0 0.0 0.0 0.0
0.2 0.4 0.7 0.5 0.9 0.8 0.7 0.8 0.5 0.3 1.9 2.4 2.0 0.9 1.2 0.9 1.5 1.3 1.2 0.7 0.6 0.5 0.8 1.1 0.9 0.6 0.2 0.1 0.1 0.1 0.1 0.0 0.0 0.0 0.0 0.0 0.0 0.0 0.0 0.0 0.0 0.0 0.0
0.3 0.7 0.6 0.8 1.2 1.5 1.4 1.8 2.4 2.0 2.6 2.3 2.2 1.4 0.9 0.6 0.5 0.6 0.6 0.8 0.7 0.8 0.6 0.5 0.9 0.9 0.7 0.8 0.7 0.2 0.1 0.1 0.2 0.1 0.1 0.0 0.0 0.0 0.0 0.0 0.0 0.0 0.0
0.4 1.1 1.1 1.1 1.5 1.6 3.3 3.2 2.4 1.9 1.6 1.2 1.8 1.8 1.6 1.3 1.3 1.2 1.2 1.2 1.8 1.2 1.2 1.2 1.1 0.8 0.6 0.5 0.7 0.9 0.6 0.4 0.8 0.5 0.3 0.2 0.1 0.0 0.0 0.0 0.0 0.0 0.0

GFSGL_prec_kuchsnow24_045.txt.gz
Snowfall_Accumulation
0.0 0.0 0.0 0.0 0.0 0.0 0.0 0.0 0.0 0.0 0.0 0.0 0.0 0.0 0.0 0.0 0.0 0.0 0.0 0.0 0.0 0.0 0.0 0.0 0.0 0.0 0.0 0.0 0.0 0.0 0.0 0.0 0.0 0.0 0.0 0.0 0.0 0.0 0.0 0.0 0.0 0.0 0.0
0.0 0.0 0.0 0.0 0.0 0.0 0.0 0.0 0.0 0.0 0.0 0.0 0.0 0.0 0.0 0.0 0.0 0.0 0.0 0.0 0.0 0.0 0.0 0.0 0.0 0.0 0.0 0.0 0.0 0.0 0.0 0.0 0.0 0.0 0.0 0.0 0.0 0.0 0.0 0.0 0.0 0.0 0.0
0.0 0.0 0.0 0.0 0.0 0.0 0.0 0.0 0.0 0.0 0.0 0.0 0.0 0.0 0.0 0.0 0.0 0.0 0.0 0.0 0.0 0.0 0.0 0.0 0.0 0.0 0.0 0.0 0.0 0.0 0.0 0.0 0.0 0.3 0.1 0.0 0.0 0.0 0.0 0.0 0.0 0.0 0.0
0.0 0.0 0.0 0.0 0.0 0.0 0.0 0.0 0.0 0.0 0.0 0.0 0.0 0.0 0.0 0.0 0.0 0.0 0.0 0.0 0.0 0.0 0.0 0.0 0.0 0.0 0.0 0.0 0.0 0.0 0.0 0.0 0.1 0.1 0.0 0.0 0.0 0.0 0.1 0.0 0.1 0.0 0.0
0.0 0.0 0.0 0.0 0.0 0.0 0.0 0.0 0.0 0.0 0.0 0.0 0.0 0.0 0.0 0.0 0.0 0.0 0.0 0.0 0.0 0.0 0.0 0.0 0.0 0.0 0.0 0.0 0.0 0.0 0.0 0.1 0.3 0.4 0.1 0.3 0.2 0.0 0.1 0.1 0.2 0.0 0.0
0.0 0.0 0.0 0.0 0.0 0.0 0.0 0.0 0.0 0.0 0.0 0.0 0.0 0.0 0.0 0.0 0.0 0.0 0.0 0.0 0.0 0.0 0.0 0.0 0.0 0.0 0.0 0.0 0.0 0.0 0.0 0.5 1.3 0.8 0.5 0.4 0.0 0.3 0.4 0.5 0.5 0.5 0.3
0.0 0.0 0.0 0.0 0.0 0.0 0.0 0.0 0.0 0.0 0.0 0.0 0.0 0.0 0.0 0.0 0.0 0.0 0.0 0.0 0.0 0.0 0.0 0.0 0.0 0.0 0.0 0.0 0.0 0.0 0.1 0.1 0.7 1.2 1.5 0.7 0.9 0.3 0.3 0.5 0.3 0.7 0.6
0.0 0.0 0.0 0.0 0.0 0.0 0.0 0.0 0.0 0.0 0.0 0.0 0.0 0.0 0.0 0.0 0.0 0.0 0.0 0.0 0.0 0.0 0.0 0.0 0.0 0.0 0.0 0.0 0.5 0.2 0.1 0.0 0.0 0.1 0.2 0.2 0.2 0.1 0.4 0.4 0.8 0.5 0.1
0.0 0.0 0.0 0.0 0.0 0.0 0.0 0.0 0.0 0.0 0.0 0.0 0.0 0.0 0.0 0.0 0.0 0.0 0.0 0.0 0.0 0.0 0.0 0.0 0.0 0.0 0.0 0.3 0.4 0.3 0.0 0.0 0.0 0.0 0.0 0.0 0.0 0.1 0.1 0.8 1.1 1.3 0.7
0.0 0.0 0.0 0.0 0.0 0.0 0.0 0.0 0.0 0.0 0.0 0.0 0.0 0.0 0.0 0.0 0.0 0.0 0.0 0.0 0.0 0.0 0.0 0.0 0.0 0.0 0.2 0.3 0.4 0.4 0.5 0.2 0.0 0.0 0.0 0.0 0.0 0.0 0.1 0.1 0.8 2.3 1.0
0.0 0.0 0.0 0.0 0.0 0.0 0.0 0.0 0.0 0.0 0.0 0.0 0.0 0.0 0.0 0.0 0.0 0.0 0.0 0.0 0.0 0.0 0.0 0.0 0.0 0.1 0.1 0.1 0.2 0.5 1.0 0.3 0.1 0.1 0.1 0.1 0.1 0.1 0.1 0.1 0.2 0.8 1.7
0.0 0.0 0.0 0.0 0.0 0.0 0.0 0.0 0.0 0.0 0.0 0.0 0.0 0.0 0.0 0.0 0.0 0.0 0.0 0.0 0.0 0.0 0.0 0.0 0.0 0.0 0.0 0.0 0.0 0.2 0.0 0.0 0.1 0.1 0.2 0.1 0.2 0.2 0.3 0.3 0.4 0.3 0.2
0.0 0.0 0.0 0.0 0.0 0.0 0.0 0.0 0.0 0.0 0.0 0.0 0.0 0.0 0.0 0.0 0.0 0.0 0.0 0.0 0.0 0.0 0.0 0.0 0.0 0.0 0.0 0.0 0.0 0.0 0.0 0.0 0.0 0.1 0.3 0.2 0.4 0.5 0.6 0.9 0.6 0.4 0.3
0.0 0.0 0.0 0.0 0.0 0.0 0.0 0.0 0.0 0.0 0.0 0.0 0.0 0.0 0.0 0.0 0.0 0.0 0.0 0.0 0.0 0.1 0.0 0.0 0.0 0.4 0.0 0.0 0.0 0.0 0.0 0.1 0.2 0.4 0.3 0.4 0.3 0.4 0.7 1.2 1.6 1.3 1.6
0.0 0.0 0.0 0.0 0.0 0.0 0.0 0.0 0.0 0.0 0.0 0.0 0.0 0.0 0.1 0.1 0.0 0.0 0.1 0.1 0.1 0.0 0.2 0.2 0.6 0.5 0.2 0.1 0.1 0.0 0.0 0.0 0.0 0.0 0.1 0.1 0.2 0.2 0.4 0.7 0.9 0.7 1.1
0.0 0.0 0.0 0.1 0.1 0.0 0.0 0.0 0.0 0.0 0.0 0.0 0.0 0.0 0.0 0.0 0.0 0.0 0.1 0.0 0.0 0.2 1.3 0.7 0.2 0.1 0.2 0.0 0.1 0.0 0.0 0.0 0.0 0.1 0.0 0.0 0.0 0.1 0.1 0.1 0.1 0.5 0.7
0.0 0.0 0.0 0.1 0.1 0.0 0.0 0.0 0.0 0.0 0.0 0.0 0.0 0.0 0.1 0.0 0.0 0.0 0.3 0.0 0.0 0.5 1.4 0.2 0.0 0.2 0.2 0.1 0.1 0.0 0.0 0.0 0.0 0.0 0.0 0.1 0.1 0.0 0.1 0.1 0.1 0.1 0.0
0.0 0.0 0.1 0.1 0.1 0.1 0.1 0.1 0.1 0.1 0.2 0.1 0.0 0.2 0.2 0.0 0.0 0.2 0.2 0.5 1.2 0.6 0.6 0.2 0.1 0.0 0.0 0.2 0.1 0.0 0.0 0.0 0.0 0.0 0.0 0.0 0.2 0.1 0.0 0.0 0.1 0.1 0.0
0.0 0.0 0.0 0.1 0.1 0.0 0.0 0.2 0.3 0.5 0.7 0.3 0.1 0.0 0.0 0.0 0.0 0.0 0.2 0.9 0.2 0.3 0.1 0.1 0.0 0.2 0.3 0.0 0.2 0.0 0.0 0.0 0.0 0.0 0.0 0.0 0.0 0.0 0.0 0.0 0.0 0.0 0.0
0.0 0.1 0.2 0.1 0.1 0.0 0.0 0.1 0.3 0.4 0.5 0.5 0.3 0.0 0.1 0.5 0.5 0.3 0.2 0.2 0.6 0.3 0.2 0.2 0.2 0.2 0.3 0.3 0.2 0.0 0.0 0.0 0.0 0.0 0.0 0.0 0.0 0.0 0.0 0.0 0.0 0.0 0.0
0.0 0.0 0.0 0.2 0.3 0.3 0.3 0.4 0.4 0.6 0.9 0.3 0.4 0.6 0.9 1.6 1.3 0.3 0.1 0.2 0.3 0.4 0.5 0.5 0.3 0.4 0.3 0.3 0.2 0.0 0.0 0.0 0.0 0.0 0.0 0.0 0.0 0.0 0.0 0.0 0.0 0.0 0.0
0.0 0.2 0.2 0.2 0.4 0.4 0.3 0.4 1.0 1.3 1.0 1.2 0.4 0.0 0.0 1.4 0.8 0.5 0.6 1.0 1.2 1.1 0.9 0.9 0.7 0.5 0.4 0.4 0.3 0.2 0.1 0.0 0.0 0.0 0.0 0.0 0.0 0.0 0.0 0.0 0.0 0.0 0.0
0.0 0.2 0.3 0.3 0.3 0.1 0.3 0.3 0.7 0.8 0.8 0.5 0.8 2.0 1.4 1.2 1.3 0.7 1.6 1.3 1.6 1.1 0.5 0.9 0.9 0.7 0.5 0.5 0.5 0.3 0.1 0.0 0.0 0.0 0.0 0.0 0.0 0.0 0.0 0.0 0.0 0.0 0.0
0.1 0.3 0.6 0.4 0.9 0.8 0.7 0.8 0.5 0.3 1.9 2.4 2.0 0.9 1.9 1.7 2.2 1.9 1.6 0.9 0.7 0.5 0.8 1.3 1.2 1.0 0.8 0.8 0.7 0.6 0.3 0.1 0.2 0.1 0.0 0.0 0.0 0.0 0.0 0.0 0.0 0.0 0.0
0.2 0.6 0.5 0.8 1.2 1.5 1.4 1.8 2.4 2.0 2.6 2.3 2.2 1.4 0.9 0.6 1.1 1.2 1.0 1.1 0.8 0.8 0.6 0.5 0.9 1.5 1.5 1.7 1.3 0.7 0.4 0.6 0.8 0.5 0.7 0.3 0.0 0.1 0.0 0.0 0.0 0.0 0.0
0.3 1.0 1.0 1.1 1.5 1.6 3.3 3.2 2.4 1.9 1.6 1.2 1.8 1.8 1.6 1.6 1.3 1.7 1.5 1.4 1.9 1.2 1.2 1.2 1.1 1.1 1.2 1.0 1.1 1.2 0.8 0.8 1.3 1.0 1.0 0.9 0.5 0.3 0.1 0.0 0.0 0.0 0.0

GFSGL_prec_kuchsnow24_051.txt.gz
Snowfall_Accumulation
0.0 0.0 0.0 0.0 0.0 0.0 0.0 0.0 0.0 0.0 0.0 0.0 0.0 0.0 0.0 0.0 0.0 0.0 0.0 0.0 0.0 0.0 0.0 0.0 0.0 0.0 0.0 0.0 0.0 0.0 0.0 0.0 0.0 0.0 0.0 0.0 0.0 0.0 0.0 0.0 0.0 0.0 0.0
0.0 0.0 0.0 0.0 0.0 0.0 0.0 0.0 0.0 0.0 0.0 0.0 0.0 0.0 0.0 0.0 0.0 0.0 0.0 0.0 0.0 0.0 0.0 0.0 0.0 0.0 0.0 0.0 0.0 0.0 0.0 0.0 0.0 0.0 0.0 0.0 0.0 0.0 0.0 0.0 0.0 0.0 0.0
0.0 0.0 0.0 0.0 0.0 0.0 0.0 0.0 0.0 0.0 0.0 0.0 0.0 0.0 0.0 0.0 0.0 0.0 0.0 0.0 0.0 0.0 0.0 0.0 0.0 0.0 0.0 0.0 0.0 0.0 0.0 0.0 0.0 0.0 0.0 0.0 0.0 0.0 0.0 0.0 0.0 0.0 0.0
0.0 0.0 0.0 0.0 0.0 0.0 0.0 0.0 0.0 0.0 0.0 0.0 0.0 0.0 0.0 0.0 0.0 0.0 0.0 0.0 0.0 0.0 0.0 0.0 0.0 0.0 0.0 0.0 0.0 0.0 0.0 0.0 0.0 0.0 0.0 0.0 0.0 0.0 0.0 0.0 0.1 0.0 0.0
0.0 0.0 0.0 0.0 0.0 0.0 0.0 0.0 0.0 0.0 0.0 0.0 0.0 0.0 0.0 0.0 0.0 0.0 0.0 0.0 0.0 0.0 0.0 0.0 0.0 0.0 0.0 0.0 0.0 0.0 0.0 0.0 0.0 0.1 0.0 0.1 0.1 0.0 0.0 0.1 0.1 0.0 0.0
0.0 0.0 0.0 0.0 0.0 0.0 0.0 0.0 0.0 0.0 0.0 0.0 0.0 0.0 0.0 0.0 0.0 0.0 0.0 0.0 0.0 0.0 0.0 0.0 0.0 0.0 0.0 0.0 0.0 0.0 0.0 0.1 0.5 0.3 0.1 0.2 0.0 0.3 0.3 0.3 0.3 0.3 0.2
0.0 0.0 0.0 0.0 0.0 0.0 0.0 0.0 0.0 0.0 0.0 0.0 0.0 0.0 0.0 0.0 0.0 0.0 0.0 0.0 0.0 0.0 0.0 0.0 0.0 0.0 0.0 0.0 0.0 0.0 0.0 0.1 0.1 0.1 0.4 0.5 0.6 0.3 0.2 0.3 0.2 0.6 0.6
0.0 0.0 0.0 0.0 0.0 0.0 0.0 0.0 0.0 0.0 0.0 0.0 0.0 0.0 0.0 0.0 0.0 0.0 0.0 0.0 0.0 0.0 0.0 0.0 0.0 0.0 0.0 0.0 0.1 0.1 0.0 0.0 0.0 0.0 0.0 0.1 0.1 0.1 0.2 0.2 0.6 0.4 0.0
0.0 0.0 0.0 0.0 0.0 0.0 0.0 0.0 0.0 0.0 0.0 0.0 0.0 0.0 0.0 0.0 0.0 0.0 0.0 0.0 0.0 0.0 0.0 0.0 0.0 0.0 0.0 0.0 0.0 0.0 0.0 0.0 0.0 0.0 0.0 0.0 0.0 0.0 0.0 0.3 0.6 0.6 0.6
0.0 0.0 0.0 0.0 0.0 0.0 0.0 0.0 0.0 0.0 0.0 0.0 0.0 0.0 0.0 0.0 0.0 0.0 0.0 0.0 0.0 0.0 0.0 0.0 0.0 0.0 0.0 0.0 0.0 0.0 0.2 0.0 0.0 0.0 0.0 0.0 0.0 0.0 0.1 0.1 0.8 1.9 0.5
0.0 0.0 0.0 0.0 0.0 0.0 0.0 0.0 0.0 0.0 0.0 0.0 0.0 0.0 0.0 0.0 0.0 0.0 0.0 0.0 0.0 0.0 0.0 0.0 0.0 0.0 0.0 0.0 0.0 0.0 0.1 0.0 0.0 0.0 0.1 0.1 0.0 0.0 0.1 0.0 0.1 0.8 1.7
0.0 0.0 0.0 0.0 0.0 0.0 0.0 0.0 0.0 0.0 0.0 0.0 0.0 0.0 0.0 0.0 0.0 0.0 0.0 0.0 0.0 0.0 0.0 0.0 0.0 0.0 0.0 0.1 0.0 0.0 0.0 0.1 0.0 0.1 0.1 0.1 0.0 0.1 0.0 0.1 0.3 0.3 0.2
0.0 0.0 0.0 0.0 0.0 0.0 0.0 0.0 0.0 0.0 0.0 0.0 0.0 0.0 0.0 0.0 0.0 0.0 0.0 0.0 0.0 0.0 0.0 0.0 0.0 0.0 0.0 0.0 0.1 0.0 0.0 0.4 0.2 0.1 0.2 0.1 0.1 0.1 0.1 0.4 0.3 0.3 0.2
0.0 0.0 0.0 0.0 0.0 0.0 0.0 0.0 0.0 0.0 0.0 0.0 0.0 0.0 0.0 0.0 0.0 0.0 0.0 0.0 0.0 0.2 0.0 0.0 0.0 0.6 0.6 0.4 0.3 0.4 0.5 0.3 0.2 0.2 0.1 0.1 0.0 0.1 0.1 0.2 0.5 0.4 0.7
0.0 0.0 0.0 0.0 0.0 0.0 0.0 0.0 0.0 0.0 0.0 0.0 0.0 0.0 0.1 0.1 0.0 0.1 0.2 0.1 0.2 0.2 0.6 0.7 0.8 0.6 0.6 0.5 0.4 0.3 0.3 0.5 0.5 0.2 0.1 0.1 0.0 0.0 0.1 0.1 0.1 0.2 0.5
0.0 0.0 0.0 0.0 0.0 0.0 0.0 0.0 0.0 0.0 0.0 0.0 0.0 0.0 0.0 0.0 0.0 0.0 0.1 0.2 0.3 0.5 2.7 1.7 0.5 0.4 0.4 0.1 0.5 0.2 0.0 0.5 0.2 0.1 0.1 0.1 0.0 0.1 0.1 0.0 0.1 0.2 0.2
0.0 0.0 0.0 0.0 0.0 0.0 0.0 0.0 0.0 0.0 0.0 0.0 0.0 0.0 0.1 0.0 0.0 0.0 0.3 0.4 0.4 1.2 3.1 1.4 0.7 0.7 0.5 0.3 0.5 0.5 0.4 0.1 0.0 0.6 0.3 0.1 0.0 0.0 0.1 0.1 0.1 0.1 0.0
0.0 0.0 0.0 0.0 0.0 0.0 0.0 0.0 0.0 0.1 0.1 0.1 0.0 0.2 0.2 0.0 0.0 0.2 0.2 0.8 1.6 1.0 1.3 0.9 0.7 0.2 0.1 0.3 0.4 0.4 0.3 0.2 0.5 0.3 0.1 0.0 0.0 0.0 0.0 0.0 0.1 0.1 0.0
0.0 0.0 0.0 0.0 0.0 0.0 0.0 0.1 0.3 0.5 0.7 0.3 0.1 0.0 0.0 0.0 0.0 0.0 0.2 1.5 1.6 1.5 0.9 0.6 0.3 0.4 0.4 0.0 0.7 0.7 0.7 0.5 0.4 0.4 0.1 0.1 0.0 0.0 0.0 0.0 0.0 0.0 0.0
0.0 0.0 0.0 0.0 0.0 0.0 0.0 0.1 0.3 0.4 0.5 0.5 0.3 0.0 0.1 0.5 0.5 0.3 0.2 1.2 1.4 0.5 0.6 0.6 0.4 0.4 0.8 1.1 1.1 1.1 0.9 0.4 0.3 0.2 0.1 0.1 0.0 0.0 0.0 0.0 0.0 0.0 0.0
0.0 0.0 0.0 0.0 0.1 0.2 0.3 0.4 0.4 0.7 0.8 0.3 0.4 0.6 0.9 1.6 2.1 1.4 0.8 0.8 0.9 1.3 1.4 1.5 1.5 1.9 2.1 2.0 1.6 1.0 0.6 0.3 0.2 0.2 0.2 0.1 0.0 0.0 0.0 0.0 0.0 0.0 0.0
0.0 0.0 0.0 0.2 0.2 0.2 0.2 0.4 1.0 1.3 1.0 1.2 0.4 0.0 0.0 1.4 1.2 0.5 0.6 1.5 1.9 2.2 3.3 3.8 3.0 2.5 2.0 1.8 1.6 1.5 0.9 0.5 0.4 0.4 0.3 0.1 0.0 0.0 0.0 0.0 0.0 0.0 0.0
0.0 0.2 0.2 0.1 0.1 0.0 0.1 0.3 0.7 0.8 0.8 0.5 0.8 2.0 1.4 1.2 1.3 0.7 1.6 1.3 2.2 1.6 0.9 1.3 1.7 1.3 1.2 1.7 1.8 1.9 1.4 0.7 0.5 0.7 0.5 0.2 0.0 0.0 0.1 0.0 0.0 0.0 0.0
0.1 0.3 0.4 0.2 0.7 0.5 0.6 0.7 0.4 0.3 1.9 2.4 2.0 0.9 1.9 1.7 2.4 1.9 1.6 0.9 0.7 0.9 1.3 1.6 1.7 1.5 1.3 1.5 1.7 1.9 1.6 1.2 1.8 1.3 0.7 0.3 0.1 0.0 0.0 0.1 0.0 0.0 0.0
0.1 0.4 0.2 0.5 0.9 1.3 1.1 1.7 2.3 2.0 2.5 2.3 2.1 1.4 0.9 0.6 1.1 1.2 1.0 1.1 0.8 0.8 1.0 0.8 1.1 1.9 1.8 2.1 2.1 1.9 1.8 2.4 2.7 2.1 2.4 1.1 0.2 0.1 0.0 0.0 0.0 0.0 0.0
0.2 0.8 0.7 0.7 1.2 1.4 3.0 2.9 2.1 1.6 1.3 0.9 1.6 1.5 1.4 1.5 1.2 1.6 1.5 1.4 1.9 1.2 1.2 1.5 1.2 1.3 1.7 1.5 1.8 2.2 2.4 2.6 3.5 2.9 2.4 2.2 1.5 0.8 0.4 0.2 0.2 0.1 0.0

GFSGL_prec_kuchsnow24_054.txt.gz
Snowfall_Accumulation
0.0 0.0 0.0 0.0 0.0 0.0 0.0 0.0 0.0 0.0 0.0 0.0 0.0 0.0 0.0 0.0 0.0 0.0 0.0 0.0 0.0 0.0 0.0 0.0 0.0 0.0 0.0 0.0 0.0 0.0 0.0 0.0 0.0 0.0 0.0 0.0 0.0 0.0 0.0 0.0 0.0 0.0 0.0
0.0 0.0 0.0 0.0 0.0 0.0 0.0 0.0 0.0 0.0 0.0 0.0 0.0 0.0 0.0 0.0 0.0 0.0 0.0 0.0 0.0 0.0 0.0 0.0 0.0 0.0 0.0 0.0 0.0 0.0 0.0 0.0 0.0 0.0 0.0 0.0 0.0 0.0 0.0 0.0 0.0 0.0 0.0
0.0 0.0 0.0 0.0 0.0 0.0 0.0 0.0 0.0 0.0 0.0 0.0 0.0 0.0 0.0 0.0 0.0 0.0 0.0 0.0 0.0 0.0 0.0 0.0 0.0 0.0 0.0 0.0 0.0 0.0 0.0 0.0 0.0 0.0 0.0 0.0 0.0 0.0 0.0 0.0 0.0 0.0 0.0
0.0 0.0 0.0 0.0 0.0 0.0 0.0 0.0 0.0 0.0 0.0 0.0 0.0 0.0 0.0 0.0 0.0 0.0 0.0 0.0 0.0 0.0 0.0 0.0 0.0 0.0 0.0 0.0 0.0 0.0 0.0 0.0 0.0 0.0 0.0 0.0 0.0 0.0 0.0 0.0 0.1 0.0 0.0
0.0 0.0 0.0 0.0 0.0 0.0 0.0 0.0 0.0 0.0 0.0 0.0 0.0 0.0 0.0 0.0 0.0 0.0 0.0 0.0 0.0 0.0 0.0 0.0 0.0 0.0 0.0 0.0 0.0 0.0 0.0 0.0 0.0 0.0 0.0 0.1 0.1 0.0 0.0 0.1 0.0 0.0 0.0
0.0 0.0 0.0 0.0 0.0 0.0 0.0 0.0 0.0 0.0 0.0 0.0 0.0 0.0 0.0 0.0 0.0 0.0 0.0 0.0 0.0 0.0 0.0 0.0 0.0 0.0 0.0 0.0 0.0 0.0 0.0 0.0 0.2 0.1 0.0 0.1 0.0 0.3 0.3 0.2 0.2 0.2 0.2
0.0 0.0 0.0 0.0 0.0 0.0 0.0 0.0 0.0 0.0 0.0 0.0 0.0 0.0 0.0 0.0 0.0 0.0 0.0 0.0 0.0 0.0 0.0 0.0 0.0 0.0 0.0 0.0 0.0 0.0 0.0 0.0 0.0 0.0 0.1 0.4 0.5 0.2 0.1 0.2 0.2 0.4 0.4
0.0 0.0 0.0 0.0 0.0 0.0 0.0 0.0 0.0 0.0 0.0 0.0 0.0 0.0 0.0 0.0 0.0 0.0 0.0 0.0 0.0 0.0 0.0 0.0 0.0 0.0 0.0 0.0 0.0 0.0 0.0 0.0 0.0 0.0 0.0 0.0 0.0 0.0 0.0 0.1 0.5 0.3 0.0
0.0 0.0 0.0 0.0 0.0 0.0 0.0 0.0 0.0 0.0 0.0 0.0 0.0 0.0 0.0 0.0 0.0 0.0 0.0 0.0 0.0 0.0 0.0 0.0 0.0 0.0 0.0 0.0 0.0 0.0 0.0 0.0 0.0 0.0 0.0 0.0 0.0 0.0 0.0 0.2 0.4 0.4 0.3
0.0 0.0 0.0 0.0 0.0 0.0 0.0 0.0 0.0 0.0 0.0 0.0 0.0 0.0 0.0 0.0 0.0 0.0 0.0 0.0 0.0 0.0 0.0 0.0 0.0 0.0 0.0 0.0 0.0 0.0 0.0 0.0 0.0 0.0 0.0 0.0 0.0 0.0 0.1 0.1 0.7 1.7 0.5
0.0 0.0 0.0 0.0 0.0 0.0 0.0 0.0 0.0 0.0 0.0 0.0 0.0 0.0 0.0 0.0 0.0 0.0 0.0 0.0 0.0 0.0 0.0 0.0 0.0 0.0 0.0 0.0 0.0 0.0 0.0 0.0 0.0 0.0 0.0 0.0 0.0 0.0 0.0 0.0 0.1 0.6 1.6
0.0 0.0 0.0 0.0 0.0 0.0 0.0 0.0 0.0 0.0 0.0 0.0 0.0 0.0 0.0 0.0 0.0 0.0 0.0 0.0 0.0 0.0 0.0 0.0 0.0 0.0 0.0 0.1 0.0 0.0 0.0 0.2 0.2 0.3 0.2 0.1 0.0 0.0 0.0 0.0 0.1 0.2 0.2
0.0 0.0 0.0 0.0 0.0 0.0 0.0 0.0 0.0 0.0 0.0 0.0 0.0 0.0 0.0 0.0 0.0 0.0 0.0 0.0 0.0 0.0 0.0 0.0 0.0 0.0 0.0 0.0 0.1 0.2 0.1 0.5 0.4 0.3 0.3 0.1 0.0 0.0 0.0 0.1 0.1 0.1 0.2
0.0 0.0 0.0 0.0 0.0 0.0 0.0 0.0 0.0 0.0 0.0 0.0 0.0 0.0 0.0 0.0 0.0 0.0 0.0 0.0 0.0 0.2 0.0 0.0 0.0 0.6 0.6 0.4 0.6 0.6 0.8 0.5 0.4 0.3 0.1 0.1 0.1 0.0 0.0 0.1 0.1 0.1 0.4
0.0 0.0 0.0 0.0 0.0 0.0 0.0 0.0 0.0 0.0 0.0 0.0 0.0 0.0 0.1 0.1 0.0 0.1 0.2 0.1 0.2 0.3 0.6 0.8 0.9 0.7 0.7 0.5 0.4 0.5 0.5 0.6 0.6 0.2 0.2 0.2 0.2 0.1 0.0 0.0 0.1 0.1 0.2
0.0 0.0 0.0 0.0 0.0 0.0 0.0 0.0 0.0 0.0 0.0 0.0 0.0 0.0 0.0 0.0 0.0 0.0 0.1 0.2 0.3 0.5 2.7 1.8 0.7 0.7 0.7 0.3 0.8 0.6 0.2 0.5 0.2 0.2 0.2 0.2 0.2 0.1 0.1 0.0 0.0 0.1 0.1
0.0 0.0 0.0 0.0 0.0 0.0 0.0 0.0 0.0 0.0 0.0 0.0 0.0 0.0 0.1 0.0 0.0 0.0 0.3 0.4 0.4 1.2 3.3 1.7 1.2 1.3 1.2 0.6 0.7 0.8 0.7 0.1 0.0 0.6 0.4 0.3 0.3 0.2 0.1 0.0 0.0 0.1 0.0
0.0 0.0 0.0 0.0 0.0 0.0 0.0 0.0 0.0 0.1 0.1 0.0 0.0 0.2 0.2 0.0 0.0 0.2 0.2 0.8 1.6 1.0 1.3 0.9 1.3 0.9 0.1 0.3 0.8 0.6 0.4 0.2 0.6 0.4 0.3 0.3 0.3 0.2 0.2 0.0 0.0 0.0 0.0
0.0 0.0 0.0 0.0 0.0 0.0 0.0 0.1 0.3 0.4 0.7 0.2 0.1 0.0 0.0 0.0 0.0 0.0 0.1 1.4 1.5 1.4 0.9 0.6 0.3 0.4 0.6 0.2 1.0 0.9 0.9 0.7 0.7 0.7 0.4 0.3 0.3 0.3 0.2 0.1 0.0 0.0 0.0
0.0 0.0 0.0 0.0 0.0 0.0 0.0 0.0 0.2 0.3 0.4 0.4 0.3 0.0 0.1 0.5 0.4 0.2 0.1 1.1 1.5 0.5 0.6 0.6 0.4 0.6 1.1 1.5 1.5 1.7 1.7 1.0 0.6 0.5 0.3 0.3 0.3 0.2 0.1 0.0 0.0 0.0 0.0
0.0 0.0 0.0 0.0 0.1 0.2 0.3 0.3 0.4 0.6 0.8 0.3 0.4 0.6 0.9 1.5 2.0 1.3 0.8 0.7 0.8 1.4 1.4 1.6 1.6 2.0 2.3 2.2 2.0 1.7 1.5 1.0 0.6 0.4 0.4 0.4 0.4 0.3 0.1 0.0 0.0 0.0 0.0
0.0 0.0 0.0 0.2 0.2 0.2 0.2 0.3 0.9 1.2 0.9 1.1 0.4 0.0 0.0 1.4 1.2 0.5 0.5 1.5 1.8 2.2 3.4 3.8 3.1 2.6 2.4 2.4 2.3 2.2 1.5 1.1 0.9 1.0 0.8 0.7 0.4 0.2 0.1 0.0 0.0 0.1 0.0
0.0 0.1 0.2 0.1 0.1 0.0 0.1 0.2 0.6 0.6 0.7 0.4 0.8 2.0 1.4 1.2 1.2 0.6 1.5 1.3 2.1 1.6 0.9 1.3 1.7 1.3 1.4 2.0 2.3 2.4 1.9 1.0 0.9 1.3 1.5 1.0 0.5 0.2 0.2 0.1 0.1 0.1 0.0
0.0 0.3 0.3 0.2 0.6 0.4 0.4 0.6 0.3 0.2 1.8 2.3 1.9 0.9 1.9 1.7 2.3 1.9 1.5 0.9 0.6 0.9 1.2 1.5 1.7 1.5 1.3 1.5 2.1 2.3 1.9 1.4 2.0 1.7 1.6 1.3 0.6 0.3 0.1 0.1 0.1 0.0 0.0
0.1 0.4 0.1 0.3 0.7 1.1 1.0 1.6 2.2 1.9 2.4 2.1 2.0 1.4 0.9 0.6 1.1 1.2 1.1 1.1 0.8 0.7 0.9 0.8 1.1 1.9 1.8 2.1 2.3 2.1 2.0 2.6 3.0 2.6 3.3 2.0 0.7 0.5 0.2 0.0 0.0 0.1 0.0
0.2 0.7 0.6 0.6 0.9 1.2 2.8 2.7 2.0 1.5 1.1 0.8 1.4 1.4 1.3 1.3 1.0 1.5 1.4 1.2 1.7 1.1 1.1 1.4 1.2 1.3 1.7 1.5 1.8 2.4 2.6 2.8 3.8 3.6 3.4 3.1 2.0 1.3 0.6 0.4 0.4 0.2 0.1

GFSGL_prec_kuchsnow24_057.txt.gz
Snowfall_Accumulation
0.0 0.0 0.0 0.0 0.0 0.0 0.0 0.0 0.0 0.0 0.0 0.0 0.0 0.0 0.0 0.0 0.0 0.0 0.0 0.0 0.0 0.0 0.0 0.0 0.0 0.0 0.0 0.0 0.0 0.0 0.0 0.0 0.0 0.0 0.0 0.0 0.0 0.0 0.0 0.0 0.0 0.0 0.0
0.0 0.0 0.0 0.0 0.0 0.0 0.0 0.0 0.0 0.0 0.0 0.0 0.0 0.0 0.0 0.0 0.0 0.0 0.0 0.0 0.0 0.0 0.0 0.0 0.0 0.0 0.0 0.0 0.0 0.0 0.0 0.0 0.0 0.0 0.0 0.0 0.0 0.0 0.0 0.0 0.0 0.0 0.0
0.0 0.0 0.0 0.0 0.0 0.0 0.0 0.0 0.0 0.0 0.0 0.0 0.0 0.0 0.0 0.0 0.0 0.0 0.0 0.0 0.0 0.0 0.0 0.0 0.0 0.0 0.0 0.0 0.0 0.0 0.0 0.0 0.0 0.0 0.0 0.0 0.0 0.0 0.0 0.0 0.0 0.0 0.0
0.0 0.0 0.0 0.0 0.0 0.0 0.0 0.0 0.0 0.0 0.0 0.0 0.0 0.0 0.0 0.0 0.0 0.0 0.0 0.0 0.0 0.0 0.0 0.0 0.0 0.0 0.0 0.0 0.0 0.0 0.0 0.0 0.0 0.0 0.0 0.0 0.0 0.0 0.0 0.0 0.0 0.0 0.0
0.0 0.0 0.0 0.0 0.0 0.0 0.0 0.0 0.0 0.0 0.0 0.0 0.0 0.0 0.0 0.0 0.0 0.0 0.0 0.0 0.0 0.0 0.0 0.0 0.0 0.0 0.0 0.0 0.0 0.0 0.0 0.0 0.0 0.0 0.0 0.0 0.0 0.0 0.0 0.1 0.0 0.0 0.0
0.0 0.0 0.0 0.0 0.0 0.0 0.0 0.0 0.0 0.0 0.0 0.0 0.0 0.0 0.0 0.0 0.0 0.0 0.0 0.0 0.0 0.0 0.0 0.0 0.0 0.0 0.0 0.0 0.0 0.0 0.0 0.0 0.0 0.0 0.0 0.0 0.0 0.2 0.3 0.0 0.0 0.0 0.1
0.0 0.0 0.0 0.0 0.0 0.0 0.0 0.0 0.0 0.0 0.0 0.0 0.0 0.0 0.0 0.0 0.0 0.0 0.0 0.0 0.0 0.0 0.0 0.0 0.0 0.0 0.0 0.0 0.0 0.0 0.0 0.0 0.0 0.0 0.0 0.2 0.2 0.0 0.0 0.0 0.0 0.2 0.3
0.0 0.0 0.0 0.0 0.0 0.0 0.0 0.0 0.0 0.0 0.0 0.0 0.0 0.0 0.0 0.0 0.0 0.0 0.0 0.0 0.0 0.0 0.0 0.0 0.0 0.0 0.0 0.0 0.0 0.0 0.0 0.0 0.0 0.0 0.0 0.0 0.0 0.0 0.0 0.1 0.5 0.2 0.0
0.0 0.0 0.0 0.0 0.0 0.0 0.0 0.0 0.0 0.0 0.0 0.0 0.0 0.0 0.0 0.0 0.0 0.0 0.0 0.0 0.0 0.0 0.0 0.0 0.0 0.0 0.0 0.0 0.0 0.0 0.0 0.0 0.0 0.0 0.0 0.0 0.0 0.0 0.0 0.2 0.3 0.2 0.0
0.0 0.0 0.0 0.0 0.0 0.0 0.0 0.0 0.0 0.0 0.0 0.0 0.0 0.0 0.0 0.0 0.0 0.0 0.0 0.0 0.0 0.0 0.0 0.0 0.0 0.0 0.0 0.0 0.0 0.0 0.0 0.0 0.0 0.0 0.0 0.0 0.0 0.0 0.1 0.1 0.6 1.2 0.2
0.0 0.0 0.0 0.0 0.0 0.0 0.0 0.0 0.0 0.0 0.0 0.0 0.0 0.0 0.0 0.0 0.0 0.0 0.0 0.0 0.0 0.0 0.0 0.0 0.0 0.0 0.0 0.0 0.0 0.0 0.1 0.0 0.0 0.0 0.0 0.0 0.0 0.0 0.0 0.0 0.0 0.2 1.0
0.0 0.0 0.0 0.0 0.0 0.0 0.0 0.0 0.0 0.0 0.0 0.0 0.0 0.0 0.0 0.0 0.0 0.0 0.0 0.0 0.0 0.0 0.0 0.0 0.0 0.0 0.0 0.1 0.0 0.0 0.0 0.2 0.3 0.5 0.3 0.1 0.1 0.0 0.0 0.0 0.0 0.0 0.0
0.0 0.0 0.0 0.0 0.0 0.0 0.0 0.0 0.0 0.0 0.0 0.0 0.0 0.0 0.0 0.0 0.0 0.0 0.0 0.0 0.0 0.0 0.0 0.0 0.0 0.0 0.0 0.0 0.1 0.2 0.1 0.8 0.8 0.9 0.4 0.1 0.0 0.0 0.0 0.0 0.0 0.0 0.0
0.0 0.0 0.0 0.0 0.0 0.0 0.0 0.0 0.0 0.0 0.0 0.0 0.0 0.0 0.0 0.0 0.0 0.0 0.0 0.0 0.0 0.2 0.0 0.0 0.0 0.6 0.6 0.4 0.6 0.6 0.8 0.5 0.8 0.8 0.5 0.1 0.0 0.2 0.1 0.0 0.0 0.0 0.0
0.0 0.0 0.0 0.0 0.0 0.0 0.0 0.0 0.0 0.0 0.0 0.0 0.0 0.0 0.1 0.1 0.0 0.1 0.2 0.1 0.2 0.3 0.6 0.8 1.0 0.7 0.8 0.6 0.4 0.5 0.5 0.6 0.8 0.5 0.4 0.3 0.3 0.2 0.1 0.0 0.1 0.0 0.0
0.0 0.0 0.0 0.0 0.0 0.0 0.0 0.0 0.0 0.0 0.0 0.0 0.0 0.0 0.0 0.0 0.0 0.0 0.1 0.2 0.3 0.5 2.7 1.8 0.9 0.9 0.9 0.6 1.1 1.0 0.5 0.8 0.7 0.7 0.4 0.2 0.3 0.3 0.1 0.1 0.1 0.1 0.0
0.0 0.0 0.0 0.0 0.0 0.0 0.0 0.0 0.0 0.0 0.0 0.0 0.0 0.0 0.1 0.0 0.0 0.0 0.3 0.4 0.4 1.2 3.3 1.7 1.2 1.3 1.3 0.9 1.3 1.7 1.8 0.8 0.0 0.6 0.4 0.4 0.3 0.4 0.4 0.3 0.2 0.0 0.0
0.0 0.0 0.0 0.0 0.0 0.0 0.0 0.0 0.0 0.0 0.0 0.0 0.0 0.2 0.2 0.0 0.0 0.2 0.2 0.8 1.5 0.9 1.3 0.9 1.3 0.8 0.1 0.3 0.9 0.9 0.9 0.8 0.6 0.6 0.4 0.4 0.3 0.5 0.5 0.3 0.2 0.2 0.0
0.0 0.0 0.0 0.0 0.0 0.0 0.0 0.1 0.2 0.4 0.6 0.2 0.1 0.0 0.0 0.0 0.0 0.0 0.1 1.3 1.4 1.4 0.8 0.6 0.3 0.4 0.6 0.2 1.1 1.1 1.1 1.1 1.1 1.3 0.7 0.6 0.6 0.6 0.6 0.4 0.2 0.2 0.0
0.0 0.0 0.0 0.0 0.0 0.0 0.0 0.0 0.2 0.2 0.3 0.4 0.3 0.0 0.1 0.5 0.3 0.1 0.0 1.0 1.4 0.4 0.5 0.6 0.4 0.7 1.1 1.6 1.7 1.9 1.8 1.1 1.1 1.2 1.1 0.6 0.5 0.4 0.5 0.5 0.3 0.2 0.0
0.0 0.0 0.0 0.0 0.1 0.2 0.2 0.3 0.3 0.6 0.7 0.2 0.3 0.5 0.9 1.5 2.0 1.3 0.7 0.6 0.7 1.3 1.4 1.7 1.7 2.1 2.4 2.3 2.2 1.9 1.7 1.4 1.2 1.4 1.2 1.2 0.9 0.7 0.5 0.5 0.3 0.1 0.1
0.0 0.0 0.0 0.1 0.1 0.1 0.1 0.3 0.8 1.1 0.9 1.0 0.3 0.0 0.0 1.4 1.2 0.4 0.5 1.4 1.8 2.2 3.3 3.8 3.1 2.6 2.5 2.6 2.5 2.4 1.9 1.8 1.7 1.7 1.3 1.1 0.4 0.9 0.6 0.5 0.3 0.2 0.0
0.0 0.1 0.1 0.0 0.0 0.0 0.0 0.1 0.4 0.5 0.6 0.3 0.7 1.9 1.3 1.1 1.2 0.6 1.5 1.4 2.1 1.5 0.9 1.3 1.8 1.3 1.4 2.1 2.4 2.7 2.2 1.4 1.5 2.0 1.9 1.4 1.2 1.2 0.8 0.4 0.4 0.2 0.1
0.0 0.2 0.3 0.1 0.5 0.4 0.3 0.6 0.1 0.0 1.7 2.2 1.7 0.7 1.7 1.6 2.2 1.8 1.5 0.9 0.6 0.9 1.2 1.6 1.8 1.5 1.4 1.6 2.2 2.4 2.1 1.6 2.3 1.8 1.9 1.7 1.1 1.1 1.1 0.6 0.4 0.1 0.1
0.0 0.2 0.0 0.2 0.6 0.9 0.8 1.3 2.0 1.6 2.2 2.0 1.9 1.2 0.8 0.4 0.9 1.1 1.0 1.0 0.6 0.6 0.9 0.7 1.2 2.0 1.8 2.1 2.4 2.3 2.2 2.9 3.4 2.9 3.5 2.3 1.1 1.3 1.2 0.7 0.4 0.2 0.1
0.0 0.5 0.4 0.4 0.8 0.9 2.4 2.3 1.6 1.2 0.8 0.6 1.3 1.2 1.2 1.3 0.9 1.5 1.2 1.2 1.5 0.8 0.9 1.2 0.9 1.1 1.5 1.5 1.9 2.5 2.6 2.8 4.2 4.0 3.9 3.4 2.5 2.0 1.6 1.0 0.8 0.4 0.2

GFSGL_prec_kuchsnow24_060.txt.gz
Snowfall_Accumulation
0.0 0.0 0.0 0.0 0.0 0.0 0.0 0.0 0.0 0.0 0.0 0.0 0.0 0.0 0.0 0.0 0.0 0.0 0.0 0.0 0.0 0.0 0.0 0.0 0.0 0.0 0.0 0.0 0.0 0.0 0.0 0.0 0.0 0.0 0.0 0.0 0.0 0.0 0.0 0.0 0.0 0.0 0.0
0.0 0.0 0.0 0.0 0.0 0.0 0.0 0.0 0.0 0.0 0.0 0.0 0.0 0.0 0.0 0.0 0.0 0.0 0.0 0.0 0.0 0.0 0.0 0.0 0.0 0.0 0.0 0.0 0.0 0.0 0.0 0.0 0.0 0.0 0.0 0.0 0.0 0.0 0.0 0.0 0.0 0.0 0.0
0.0 0.0 0.0 0.0 0.0 0.0 0.0 0.0 0.0 0.0 0.0 0.0 0.0 0.0 0.0 0.0 0.0 0.0 0.0 0.0 0.0 0.0 0.0 0.0 0.0 0.0 0.0 0.0 0.0 0.0 0.0 0.0 0.0 0.0 0.0 0.0 0.0 0.0 0.0 0.0 0.0 0.0 0.0
0.0 0.0 0.0 0.0 0.0 0.0 0.0 0.0 0.0 0.0 0.0 0.0 0.0 0.0 0.0 0.0 0.0 0.0 0.0 0.0 0.0 0.0 0.0 0.0 0.0 0.0 0.0 0.0 0.0 0.0 0.0 0.0 0.0 0.0 0.0 0.0 0.0 0.0 0.0 0.0 0.0 0.0 0.0
0.0 0.0 0.0 0.0 0.0 0.0 0.0 0.0 0.0 0.0 0.0 0.0 0.0 0.0 0.0 0.0 0.0 0.0 0.0 0.0 0.0 0.0 0.0 0.0 0.0 0.0 0.0 0.0 0.0 0.0 0.0 0.0 0.0 0.0 0.0 0.0 0.0 0.0 0.0 0.1 0.0 0.0 0.0
0.0 0.0 0.0 0.0 0.0 0.0 0.0 0.0 0.0 0.0 0.0 0.0 0.0 0.0 0.0 0.0 0.0 0.0 0.0 0.0 0.0 0.0 0.0 0.0 0.0 0.0 0.0 0.0 0.0 0.0 0.0 0.0 0.0 0.0 0.0 0.0 0.0 0.1 0.1 0.0 0.0 0.0 0.2
0.0 0.0 0.0 0.0 0.0 0.0 0.0 0.0 0.0 0.0 0.0 0.0 0.0 0.0 0.0 0.0 0.0 0.0 0.0 0.0 0.0 0.0 0.0 0.0 0.0 0.0 0.0 0.0 0.0 0.0 0.0 0.0 0.0 0.0 0.0 0.0 0.0 0.0 0.0 0.0 0.2 0.5 0.4
0.0 0.0 0.0 0.0 0.0 0.0 0.0 0.0 0.0 0.0 0.0 0.0 0.0 0.0 0.0 0.0 0.0 0.0 0.0 0.0 0.0 0.0 0.0 0.0 0.0 0.0 0.0 0.0 0.0 0.0 0.0 0.0 0.0 0.0 0.0 0.0 0.0 0.0 0.0 0.1 0.5 0.2 0.0
0.0 0.0 0.0 0.0 0.0 0.0 0.0 0.0 0.0 0.0 0.0 0.0 0.0 0.0 0.0 0.0 0.0 0.0 0.0 0.0 0.0 0.0 0.0 0.0 0.0 0.0 0.0 0.0 0.0 0.0 0.0 0.0 0.0 0.0 0.0 0.0 0.0 0.0 0.0 0.1 0.3 0.0 0.0
0.0 0.0 0.0 0.0 0.0 0.0 0.0 0.0 0.0 0.0 0.0 0.0 0.0 0.0 0.0 0.0 0.0 0.0 0.0 0.0 0.0 0.0 0.0 0.0 0.0 0.0 0.0 0.0 0.0 0.0 0.0 0.0 0.0 0.0 0.0 0.0 0.0 0.0 0.0 0.0 0.1 0.2 0.2
0.0 0.0 0.0 0.0 0.0 0.0 0.0 0.0 0.0 0.0 0.0 0.0 0.0 0.0 0.0 0.0 0.0 0.0 0.0 0.0 0.0 0.0 0.0 0.0 0.0 0.0 0.0 0.0 0.0 0.0 0.1 0.0 0.0 0.0 0.0 0.0 0.0 0.0 0.0 0.0 0.0 0.0 0.3
0.0 0.0 0.0 0.0 0.0 0.0 0.0 0.0 0.0 0.0 0.0 0.0 0.0 0.0 0.0 0.0 0.0 0.0 0.0 0.0 0.0 0.0 0.0 0.0 0.0 0.0 0.0 0.1 0.0 0.0 0.0 0.2 0.3 0.5 0.3 0.1 0.4 0.0 0.1 0.0 0.0 0.0 0.0
0.0 0.0 0.0 0.0 0.0 0.0 0.0 0.0 0.0 0.0 0.0 0.0 0.0 0.0 0.0 0.0 0.0 0.0 0.0 0.0 0.0 0.0 0.0 0.0 0.0 0.0 0.0 0.0 0.1 0.2 0.1 0.8 0.8 0.9 0.4 0.1 0.0 0.1 0.2 0.4 0.0 0.0 0.0
0.0 0.0 0.0 0.0 0.0 0.0 0.0 0.0 0.0 0.0 0.0 0.0 0.0 0.0 0.0 0.0 0.0 0.0 0.0 0.0 0.0 0.2 0.0 0.0 0.0 0.6 0.6 0.4 0.6 0.6 0.8 0.5 1.1 1.0 0.6 0.1 0.0 1.0 0.6 0.1 0.0 0.0 0.0
0.0 0.0 0.0 0.0 0.0 0.0 0.0 0.0 0.0 0.0 0.0 0.0 0.0 0.0 0.0 0.1 0.0 0.1 0.2 0.1 0.1 0.3 0.6 0.8 1.0 0.7 0.8 0.6 0.4 0.5 0.5 0.6 0.8 0.8 0.6 0.7 0.7 0.6 0.2 0.1 0.2 0.0 0.0
0.0 0.0 0.0 0.0 0.0 0.0 0.0 0.0 0.0 0.0 0.0 0.0 0.0 0.0 0.0 0.0 0.0 0.0 0.1 0.2 0.3 0.5 2.7 1.8 0.9 0.9 0.9 0.6 1.1 1.0 0.5 0.8 0.7 0.7 1.7 0.2 1.0 0.6 0.4 0.3 0.1 0.1 0.1
0.0 0.0 0.0 0.0 0.0 0.0 0.0 0.0 0.0 0.0 0.0 0.0 0.0 0.0 0.1 0.0 0.0 0.0 0.3 0.4 0.4 1.2 3.3 1.7 1.2 1.3 1.3 0.9 1.3 1.7 2.0 0.8 0.0 0.6 1.3 0.8 0.3 0.4 0.4 0.6 0.5 0.0 0.2
0.0 0.0 0.0 0.0 0.0 0.0 0.0 0.0 0.0 0.0 0.0 0.0 0.0 0.2 0.2 0.0 0.0 0.2 0.2 0.8 1.4 0.9 1.2 0.9 1.3 0.8 0.1 0.3 0.9 0.9 1.0 0.8 0.6 0.6 1.2 0.8 0.4 0.5 0.5 0.6 0.5 0.4 0.2
0.0 0.0 0.0 0.0 0.0 0.0 0.0 0.1 0.2 0.4 0.6 0.2 0.1 0.0 0.0 0.0 0.0 0.0 0.1 1.1 1.4 1.4 0.8 0.6 0.3 0.4 0.6 0.2 1.1 1.1 1.1 1.2 1.1 1.5 1.1 1.0 1.0 0.9 1.0 0.8 0.7 0.6 0.5
0.1 0.1 0.0 0.0 0.1 0.0 0.0 0.0 0.2 0.2 0.3 0.4 0.3 0.0 0.1 0.2 0.1 0.1 0.0 1.0 1.4 0.4 0.5 0.6 0.4 0.7 1.1 1.6 1.7 1.9 1.8 1.1 1.2 1.2 1.4 1.5 1.8 1.7 1.1 0.8 0.3 1.0 0.5
0.5 0.6 0.3 0.1 0.0 0.1 0.1 0.2 0.2 0.5 0.6 0.1 0.3 0.5 0.9 1.3 1.7 1.1 0.7 0.6 0.7 1.3 1.4 1.7 1.7 2.1 2.4 2.3 2.3 1.9 1.7 1.6 1.2 1.7 1.6 1.5 1.5 1.5 1.0 0.5 0.9 0.6 0.4
0.3 0.2 0.1 0.1 0.0 0.0 0.0 0.2 0.7 1.1 0.8 1.0 0.3 0.0 0.0 1.2 1.1 0.3 0.4 1.4 1.7 2.2 3.3 3.8 3.1 2.6 2.5 2.6 2.5 2.4 2.1 1.8 1.7 2.0 1.7 1.5 0.8 1.1 1.1 1.4 1.3 0.8 0.4
0.1 0.1 0.1 0.0 0.0 0.0 0.0 0.1 0.4 0.5 0.4 0.3 0.5 1.7 1.2 1.1 0.9 0.5 1.5 1.4 2.1 1.5 0.9 1.3 1.8 1.3 1.4 2.1 2.4 2.8 2.4 1.7 1.5 2.0 2.6 1.9 1.6 1.5 1.5 1.6 1.6 0.9 0.4
0.1 0.2 0.0 0.1 0.3 0.3 0.2 0.5 0.0 0.0 1.4 1.8 1.5 0.6 1.7 1.6 1.8 1.4 1.3 0.8 0.6 0.9 1.2 1.4 1.7 1.5 1.4 1.6 2.2 2.4 2.1 1.6 2.4 2.2 2.4 2.0 1.3 1.3 1.6 1.4 1.4 1.1 0.4
0.0 0.2 0.0 0.0 0.6 0.7 0.5 1.1 1.8 1.4 1.9 1.5 1.3 0.8 0.6 0.3 0.8 1.1 1.0 0.8 0.5 0.4 0.9 0.6 0.9 1.9 1.7 1.9 2.2 2.2 2.3 3.1 3.4 2.9 3.8 2.5 1.3 1.4 1.4 1.3 1.3 1.4 0.7
0.0 0.1 0.0 0.0 0.0 0.0 1.8 2.1 1.4 1.0 0.5 0.2 0.9 0.7 0.7 0.8 0.5 1.2 1.1 1.2 1.6 0.8 0.9 1.1 0.8 0.9 1.3 1.2 1.5 2.0 2.5 2.8 4.3 4.3 4.5 3.7 2.6 2.1 1.8 1.6 1.7 1.7 0.7

GFSGL_prec_kuchsnow24_063.txt.gz
Snowfall_Accumulation
0.0 0.0 0.0 0.0 0.0 0.0 0.0 0.0 0.0 0.0 0.0 0.0 0.0 0.0 0.0 0.0 0.0 0.0 0.0 0.0 0.0 0.0 0.0 0.0 0.0 0.0 0.0 0.0 0.0 0.0 0.0 0.0 0.0 0.0 0.0 0.0 0.0 0.0 0.0 0.0 0.0 0.0 0.0
0.0 0.0 0.0 0.0 0.0 0.0 0.0 0.0 0.0 0.0 0.0 0.0 0.0 0.0 0.0 0.0 0.0 0.0 0.0 0.0 0.0 0.0 0.0 0.0 0.0 0.0 0.0 0.0 0.0 0.0 0.0 0.0 0.0 0.0 0.0 0.0 0.0 0.0 0.0 0.0 0.0 0.0 0.0
0.0 0.0 0.0 0.0 0.0 0.0 0.0 0.0 0.0 0.0 0.0 0.0 0.0 0.0 0.0 0.0 0.0 0.0 0.0 0.0 0.0 0.0 0.0 0.0 0.0 0.0 0.0 0.0 0.0 0.0 0.0 0.0 0.0 0.0 0.0 0.0 0.0 0.0 0.0 0.0 0.0 0.0 0.0
0.0 0.0 0.0 0.0 0.0 0.0 0.0 0.0 0.0 0.0 0.0 0.0 0.0 0.0 0.0 0.0 0.0 0.0 0.0 0.0 0.0 0.0 0.0 0.0 0.0 0.0 0.0 0.0 0.0 0.0 0.0 0.0 0.0 0.0 0.0 0.0 0.0 0.0 0.0 0.0 0.0 0.0 0.0
0.0 0.0 0.0 0.0 0.0 0.0 0.0 0.0 0.0 0.0 0.0 0.0 0.0 0.0 0.0 0.0 0.0 0.0 0.0 0.0 0.0 0.0 0.0 0.0 0.0 0.0 0.0 0.0 0.0 0.0 0.0 0.0 0.0 0.0 0.0 0.0 0.0 0.0 0.0 0.0 0.0 0.0 0.0
0.0 0.0 0.0 0.0 0.0 0.0 0.0 0.0 0.0 0.0 0.0 0.0 0.0 0.0 0.0 0.0 0.0 0.0 0.0 0.0 0.0 0.0 0.0 0.0 0.0 0.0 0.0 0.0 0.0 0.0 0.0 0.0 0.0 0.0 0.0 0.0 0.0 0.0 0.0 0.0 0.0 0.2 0.5
0.0 0.0 0.0 0.0 0.0 0.0 0.0 0.0 0.0 0.0 0.0 0.0 0.0 0.0 0.0 0.0 0.0 0.0 0.0 0.0 0.0 0.0 0.0 0.0 0.0 0.0 0.0 0.0 0.0 0.0 0.0 0.0 0.0 0.0 0.0 0.0 0.0 0.0 0.0 0.1 0.2 0.7 0.8
0.0 0.0 0.0 0.0 0.0 0.0 0.0 0.0 0.0 0.0 0.0 0.0 0.0 0.0 0.0 0.0 0.0 0.0 0.0 0.0 0.0 0.0 0.0 0.0 0.0 0.0 0.0 0.0 0.0 0.0 0.0 0.0 0.0 0.0 0.0 0.0 0.0 0.0 0.0 0.1 0.5 0.2 0.1
0.0 0.0 0.0 0.0 0.0 0.0 0.0 0.0 0.0 0.0 0.0 0.0 0.0 0.0 0.0 0.0 0.0 0.0 0.0 0.0 0.0 0.0 0.0 0.0 0.0 0.0 0.0 0.0 0.0 0.0 0.0 0.0 0.0 0.0 0.0 0.0 0.0 0.0 0.0 0.0 0.0 0.0 0.2
0.0 0.0 0.0 0.0 0.0 0.0 0.0 0.0 0.0 0.0 0.0 0.0 0.0 0.0 0.0 0.0 0.0 0.0 0.0 0.0 0.0 0.0 0.0 0.0 0.0 0.0 0.0 0.0 0.0 0.0 0.0 0.0 0.0 0.0 0.0 0.0 0.0 0.0 0.0 0.0 0.1 0.8 0.7
0.0 0.0 0.0 0.0 0.0 0.0 0.0 0.0 0.0 0.0 0.0 0.0 0.0 0.0 0.0 0.0 0.0 0.0 0.0 0.0 0.0 0.0 0.0 0.0 0.0 0.0 0.0 0.0 0.0 0.0 0.1 0.0 0.0 0.0 0.0 0.0 0.0 0.0 0.0 0.0 0.1 0.2 0.5
0.0 0.0 0.0 0.0 0.0 0.0 0.0 0.0 0.0 0.0 0.0 0.0 0.0 0.0 0.0 0.0 0.0 0.0 0.0 0.0 0.0 0.0 0.0 0.0 0.0 0.0 0.0 0.1 0.0 0.0 0.0 0.2 0.3 0.5 0.3 0.1 0.4 0.0 0.1 0.0 0.0 0.0 0.0
0.0 0.0 0.0 0.0 0.0 0.0 0.0 0.0 0.0 0.0 0.0 0.0 0.0 0.0 0.0 0.0 0.0 0.0 0.0 0.0 0.0 0.0 0.0 0.0 0.0 0.0 0.0 0.0 0.1 0.2 0.1 0.8 0.8 0.9 0.4 0.1 0.0 0.1 0.2 0.4 0.0 0.0 0.3
0.0 0.0 0.0 0.0 0.0 0.0 0.0 0.0 0.0 0.0 0.0 0.0 0.0 0.0 0.0 0.0 0.0 0.0 0.0 0.0 0.0 0.2 0.0 0.0 0.0 0.6 0.6 0.4 0.6 0.6 0.8 0.5 1.1 1.4 0.6 0.1 0.2 1.1 0.6 0.1 0.7 0.3 0.0
0.0 0.0 0.0 0.0 0.0 0.0 0.0 0.0 0.0 0.0 0.0 0.0 0.0 0.0 0.0 0.1 0.0 0.0 0.1 0.1 0.1 0.3 0.6 0.8 1.0 0.7 0.8 0.6 0.4 0.5 0.5 0.6 0.8 0.8 0.6 0.7 0.7 1.3 1.1 1.1 0.9 0.2 0.2
0.0 0.0 0.0 0.0 0.0 0.0 0.0 0.0 0.0 0.0 0.0 0.0 0.0 0.0 0.0 0.0 0.0 0.0 0.1 0.2 0.3 0.4 2.6 1.8 0.9 0.9 0.9 0.6 1.1 1.0 0.5 0.8 0.7 0.7 1.7 0.2 2.2 2.3 1.6 0.8 0.4 0.2 0.1
0.0 0.0 0.0 0.0 0.0 0.0 0.0 0.0 0.0 0.0 0.0 0.0 0.0 0.0 0.1 0.0 0.0 0.0 0.3 0.4 0.4 1.1 3.3 1.7 1.2 1.3 1.3 0.9 1.3 1.7 2.0 0.8 0.0 0.6 1.3 0.8 1.0 0.9 0.6 0.9 0.8 0.2 0.2
0.0 0.0 0.0 0.0 0.0 0.0 0.0 0.0 0.0 0.0 0.0 0.0 0.0 0.2 0.2 0.0 0.0 0.2 0.2 0.5 1.1 0.8 1.1 0.9 1.3 0.8 0.1 0.3 0.9 0.9 1.0 0.8 0.6 0.6 1.2 0.8 0.9 0.9 0.8 0.7 0.7 0.6 0.2
0.0 0.0 0.0 0.0 0.0 0.0 0.0 0.0 0.1 0.2 0.4 0.2 0.1 0.0 0.0 0.0 0.0 0.0 0.0 0.5 1.3 1.4 0.8 0.6 0.3 0.4 0.6 0.2 1.1 1.1 1.1 1.2 1.1 1.5 1.1 1.3 1.0 1.5 1.4 1.2 1.2 1.0 0.6
0.1 0.1 0.0 0.1 0.3 0.4 0.4 0.3 0.1 0.0 0.2 0.3 0.2 0.0 0.1 0.2 0.0 0.1 0.0 1.0 1.2 0.4 0.5 0.6 0.4 0.7 1.1 1.6 1.7 1.9 1.8 1.1 1.2 1.2 1.4 1.6 1.8 2.5 2.5 2.2 1.4 2.0 1.2
1.0 1.3 1.2 0.9 0.8 0.6 0.3 0.1 0.1 0.5 0.4 0.0 0.3 0.5 0.9 1.3 1.5 1.1 0.7 0.6 0.6 1.3 1.4 1.7 1.7 2.1 2.4 2.3 2.4 1.9 1.7 1.6 1.2 1.7 1.7 1.5 1.5 1.9 1.7 1.3 1.3 0.9 0.4
2.6 1.9 1.4 1.0 0.5 0.3 0.2 0.1 0.5 1.1 0.8 1.0 0.3 0.0 0.0 1.2 1.0 0.2 0.1 1.0 1.7 2.1 3.3 3.8 3.1 2.6 2.5 2.6 2.5 2.4 2.1 1.9 1.7 2.0 1.7 1.5 0.8 1.3 1.3 1.5 1.3 0.8 1.3
1.8 1.2 0.6 0.3 0.2 0.1 0.1 0.1 0.4 0.4 0.4 0.3 0.5 1.5 1.2 0.8 0.7 0.5 1.3 1.4 1.8 1.1 0.8 1.2 1.8 1.3 1.4 2.1 2.4 3.0 2.4 1.7 1.5 2.0 2.7 2.0 1.7 1.5 1.9 2.0 1.9 1.8 1.7
0.5 0.4 0.2 0.1 0.1 0.0 0.0 0.4 0.0 0.0 1.2 1.7 1.2 0.6 1.0 1.0 1.4 1.1 1.0 0.8 0.6 0.5 0.9 1.1 1.5 1.3 1.4 1.6 2.2 2.4 2.1 1.6 2.6 2.5 2.6 2.2 1.3 1.3 2.0 1.8 1.7 1.6 1.4
0.3 0.2 0.0 0.0 0.0 0.1 0.0 0.0 0.0 0.0 1.3 1.3 1.2 0.8 0.6 0.3 0.8 0.6 0.6 0.4 0.1 0.4 0.5 0.3 0.8 1.7 1.5 1.6 2.0 2.2 2.3 3.2 3.4 3.0 3.9 2.6 1.4 1.4 1.7 1.5 1.5 1.8 1.5
0.1 0.1 0.0 0.0 0.0 0.0 0.0 0.2 0.0 0.0 0.0 0.0 0.8 0.6 0.5 0.6 0.1 0.6 0.3 0.3 0.6 0.1 0.6 1.1 0.8 0.9 1.2 1.1 1.2 1.8 2.2 2.6 4.0 4.4 4.8 4.0 2.8 2.2 2.0 1.8 1.8 2.0 1.4

GFSGL_prec_kuchsnow24_066.txt.gz
Snowfall_Accumulation
0.0 0.0 0.0 0.0 0.0 0.0 0.0 0.0 0.0 0.0 0.0 0.0 0.0 0.0 0.0 0.0 0.0 0.0 0.0 0.0 0.0 0.0 0.0 0.0 0.0 0.0 0.0 0.0 0.0 0.0 0.0 0.0 0.0 0.0 0.0 0.0 0.0 0.0 0.0 0.0 0.0 0.0 0.0
0.0 0.0 0.0 0.0 0.0 0.0 0.0 0.0 0.0 0.0 0.0 0.0 0.0 0.0 0.0 0.0 0.0 0.0 0.0 0.0 0.0 0.0 0.0 0.0 0.0 0.0 0.0 0.0 0.0 0.0 0.0 0.0 0.0 0.0 0.0 0.0 0.0 0.0 0.0 0.0 0.0 0.0 0.0
0.0 0.0 0.0 0.0 0.0 0.0 0.0 0.0 0.0 0.0 0.0 0.0 0.0 0.0 0.0 0.0 0.0 0.0 0.0 0.0 0.0 0.0 0.0 0.0 0.0 0.0 0.0 0.0 0.0 0.0 0.0 0.0 0.0 0.0 0.0 0.0 0.0 0.0 0.0 0.0 0.0 0.0 0.0
0.0 0.0 0.0 0.0 0.0 0.0 0.0 0.0 0.0 0.0 0.0 0.0 0.0 0.0 0.0 0.0 0.0 0.0 0.0 0.0 0.0 0.0 0.0 0.0 0.0 0.0 0.0 0.0 0.0 0.0 0.0 0.0 0.0 0.0 0.0 0.0 0.0 0.0 0.0 0.0 0.0 0.0 0.0
0.0 0.0 0.0 0.0 0.0 0.0 0.0 0.0 0.0 0.0 0.0 0.0 0.0 0.0 0.0 0.0 0.0 0.0 0.0 0.0 0.0 0.0 0.0 0.0 0.0 0.0 0.0 0.0 0.0 0.0 0.0 0.0 0.0 0.0 0.0 0.0 0.0 0.0 0.0 0.0 0.0 0.0 0.0
0.0 0.0 0.0 0.0 0.0 0.0 0.0 0.0 0.0 0.0 0.0 0.0 0.0 0.0 0.0 0.0 0.0 0.0 0.0 0.0 0.0 0.0 0.0 0.0 0.0 0.0 0.0 0.0 0.0 0.0 0.0 0.0 0.0 0.0 0.0 0.0 0.0 0.0 0.0 0.0 0.0 0.2 0.6
0.0 0.0 0.0 0.0 0.0 0.0 0.0 0.0 0.0 0.0 0.0 0.0 0.0 0.0 0.0 0.0 0.0 0.0 0.0 0.0 0.0 0.0 0.0 0.0 0.0 0.0 0.0 0.0 0.0 0.0 0.0 0.0 0.0 0.0 0.0 0.0 0.0 0.0 0.0 0.1 0.2 0.8 0.9
0.0 0.0 0.0 0.0 0.0 0.0 0.0 0.0 0.0 0.0 0.0 0.0 0.0 0.0 0.0 0.0 0.0 0.0 0.0 0.0 0.0 0.0 0.0 0.0 0.0 0.0 0.0 0.0 0.0 0.0 0.0 0.0 0.0 0.0 0.0 0.0 0.0 0.0 0.0 0.0 0.3 0.0 0.1
0.0 0.0 0.0 0.0 0.0 0.0 0.0 0.0 0.0 0.0 0.0 0.0 0.0 0.0 0.0 0.0 0.0 0.0 0.0 0.0 0.0 0.0 0.0 0.0 0.0 0.0 0.0 0.0 0.0 0.0 0.0 0.0 0.0 0.0 0.0 0.0 0.0 0.0 0.0 0.0 0.0 0.1 0.4
0.0 0.0 0.0 0.0 0.0 0.0 0.0 0.0 0.0 0.0 0.0 0.0 0.0 0.0 0.0 0.0 0.0 0.0 0.0 0.0 0.0 0.0 0.0 0.0 0.0 0.0 0.0 0.0 0.0 0.0 0.0 0.0 0.0 0.0 0.0 0.0 0.0 0.0 0.0 0.0 0.1 0.9 1.0
0.0 0.0 0.0 0.0 0.0 0.0 0.0 0.0 0.0 0.0 0.0 0.0 0.0 0.0 0.0 0.0 0.0 0.0 0.0 0.0 0.0 0.0 0.0 0.0 0.0 0.0 0.0 0.0 0.0 0.0 0.1 0.0 0.0 0.0 0.0 0.0 0.0 0.0 0.0 0.0 0.1 0.3 0.9
0.0 0.0 0.0 0.0 0.0 0.0 0.0 0.0 0.0 0.0 0.0 0.0 0.0 0.0 0.0 0.0 0.0 0.0 0.0 0.0 0.0 0.0 0.0 0.0 0.0 0.0 0.0 0.1 0.0 0.0 0.0 0.2 0.3 0.5 0.3 0.1 0.4 0.0 0.1 0.0 0.0 0.0 0.0
0.0 0.0 0.0 0.0 0.0 0.0 0.0 0.0 0.0 0.0 0.0 0.0 0.0 0.0 0.0 0.0 0.0 0.0 0.0 0.0 0.0 0.0 0.0 0.0 0.0 0.0 0.0 0.0 0.1 0.2 0.1 0.8 0.8 0.9 0.4 0.1 0.0 0.1 0.2 0.4 0.0 0.0 0.3
0.0 0.0 0.0 0.0 0.0 0.0 0.0 0.0 0.0 0.0 0.0 0.0 0.0 0.0 0.0 0.0 0.0 0.0 0.0 0.0 0.0 0.1 0.0 0.0 0.0 0.6 0.6 0.4 0.6 0.6 0.8 0.5 1.1 1.4 0.6 0.1 0.2 1.1 0.6 0.1 1.0 0.3 0.7
0.0 0.0 0.0 0.0 0.0 0.0 0.0 0.0 0.0 0.0 0.0 0.0 0.0 0.0 0.0 0.1 0.0 0.0 0.1 0.1 0.1 0.3 0.4 0.6 0.9 0.7 0.8 0.6 0.4 0.5 0.5 0.6 0.8 0.8 0.6 0.7 0.7 1.3 1.1 1.1 2.6 1.4 0.6
0.0 0.0 0.0 0.0 0.0 0.0 0.0 0.0 0.0 0.0 0.0 0.0 0.0 0.0 0.0 0.0 0.0 0.0 0.1 0.2 0.3 0.3 2.0 1.6 0.9 0.9 0.9 0.6 1.1 1.0 0.5 0.8 0.7 0.7 1.7 0.2 2.2 2.3 1.6 0.8 0.4 0.7 0.3
0.0 0.0 0.0 0.0 0.0 0.0 0.0 0.0 0.0 0.0 0.0 0.0 0.0 0.0 0.0 0.0 0.0 0.0 0.3 0.4 0.4 0.6 2.5 1.7 1.2 1.3 1.3 0.9 1.3 1.7 2.0 0.8 0.0 0.6 1.3 0.8 1.0 0.9 0.6 0.9 0.8 0.6 0.2
0.0 0.0 0.0 0.0 0.0 0.0 0.0 0.0 0.1 0.0 0.0 0.1 0.0 0.0 0.0 0.0 0.0 0.2 0.2 0.5 0.6 0.4 0.8 0.9 1.3 0.8 0.1 0.3 0.9 0.9 1.0 0.8 0.6 0.6 1.2 0.8 0.9 1.1 0.8 0.7 0.8 1.0 0.5
0.0 0.0 0.1 0.2 0.2 0.2 0.2 0.1 0.2 0.5 0.6 0.4 0.2 0.1 0.0 0.0 0.0 0.1 0.0 0.5 1.3 1.2 0.8 0.6 0.3 0.4 0.6 0.2 1.1 1.1 1.1 1.2 1.1 1.5 1.1 1.3 1.0 1.5 1.4 1.2 1.5 1.3 1.4
0.4 0.5 0.4 0.5 0.7 1.0 1.3 1.1 0.8 0.5 0.4 0.2 0.1 0.0 0.1 0.3 0.0 0.1 0.0 1.0 0.9 0.1 0.5 0.4 0.3 0.6 1.1 1.6 1.7 1.9 1.8 1.1 1.2 1.2 1.4 1.6 1.8 2.5 2.7 2.2 1.9 2.7 1.8
1.8 2.2 2.3 2.3 2.6 2.3 1.7 1.3 0.8 0.9 0.7 0.4 0.7 0.6 0.9 1.3 1.5 1.1 0.7 0.6 0.6 1.1 1.1 1.5 1.6 2.0 2.4 2.3 2.4 1.9 1.7 1.6 1.2 1.8 1.7 1.5 1.5 2.0 1.7 1.3 2.0 1.7 1.1
4.0 3.6 3.2 2.7 2.2 1.9 1.4 0.9 0.9 1.0 0.6 0.7 0.4 0.0 0.0 1.2 1.0 0.2 0.2 1.0 1.7 2.1 3.2 3.4 2.8 2.5 2.5 2.6 2.5 2.4 2.1 1.9 1.7 2.0 1.7 1.5 0.8 1.3 1.3 1.5 1.3 1.2 1.8
2.9 2.2 1.7 1.3 1.2 1.1 0.8 0.6 0.4 0.3 0.1 0.1 0.1 1.1 1.2 0.9 0.8 0.6 0.5 0.9 1.6 1.1 0.8 0.9 1.4 1.1 1.4 2.1 2.4 2.9 2.4 1.7 1.6 2.1 2.9 2.2 1.8 1.6 1.9 2.2 2.1 2.0 2.0
1.3 1.2 1.1 1.0 0.9 0.5 0.3 0.3 0.2 0.2 0.3 0.3 0.2 0.2 0.9 0.9 1.0 0.7 0.5 0.3 0.1 0.5 0.5 0.5 0.9 0.9 1.3 1.6 2.0 2.3 2.0 1.6 2.7 2.6 2.9 2.5 1.5 1.3 2.0 2.0 2.0 2.0 1.7
0.8 0.6 0.4 0.4 0.3 0.3 0.3 0.3 0.2 0.2 0.1 0.1 0.1 0.1 0.1 0.1 0.7 0.7 0.6 0.4 0.1 0.0 0.5 0.3 0.3 1.3 1.1 1.3 1.8 2.1 2.2 3.1 3.2 3.1 4.2 2.9 1.5 1.5 1.8 1.7 1.7 2.2 1.9
0.5 0.5 0.3 0.2 0.1 0.0 0.0 0.0 0.1 0.1 0.0 0.0 0.1 0.1 0.0 0.3 0.0 0.5 0.3 0.3 0.3 0.1 0.1 0.4 0.2 0.5 1.1 1.1 1.2 1.7 2.1 2.4 3.7 4.0 5.0 4.2 2.9 2.3 2.2 2.0 2.0 2.3 1.5

GFSGL_prec_kuchsnow24_069.txt.gz
Snowfall_Accumulation
0.0 0.0 0.0 0.0 0.0 0.0 0.0 0.0 0.0 0.0 0.0 0.0 0.0 0.0 0.0 0.0 0.0 0.0 0.0 0.0 0.0 0.0 0.0 0.0 0.0 0.0 0.0 0.0 0.0 0.0 0.0 0.0 0.0 0.0 0.0 0.0 0.0 0.0 0.0 0.0 0.0 0.0 0.0
0.0 0.0 0.0 0.0 0.0 0.0 0.0 0.0 0.0 0.0 0.0 0.0 0.0 0.0 0.0 0.0 0.0 0.0 0.0 0.0 0.0 0.0 0.0 0.0 0.0 0.0 0.0 0.0 0.0 0.0 0.0 0.0 0.0 0.0 0.0 0.0 0.0 0.0 0.0 0.0 0.0 0.0 0.0
0.0 0.0 0.0 0.0 0.0 0.0 0.0 0.0 0.0 0.0 0.0 0.0 0.0 0.0 0.0 0.0 0.0 0.0 0.0 0.0 0.0 0.0 0.0 0.0 0.0 0.0 0.0 0.0 0.0 0.0 0.0 0.0 0.0 0.0 0.0 0.0 0.0 0.0 0.0 0.0 0.0 0.0 0.0
0.0 0.0 0.0 0.0 0.0 0.0 0.0 0.0 0.0 0.0 0.0 0.0 0.0 0.0 0.0 0.0 0.0 0.0 0.0 0.0 0.0 0.0 0.0 0.0 0.0 0.0 0.0 0.0 0.0 0.0 0.0 0.0 0.0 0.0 0.0 0.0 0.0 0.0 0.0 0.0 0.0 0.0 0.0
0.0 0.0 0.0 0.0 0.0 0.0 0.0 0.0 0.0 0.0 0.0 0.0 0.0 0.0 0.0 0.0 0.0 0.0 0.0 0.0 0.0 0.0 0.0 0.0 0.0 0.0 0.0 0.0 0.0 0.0 0.0 0.0 0.0 0.0 0.0 0.0 0.0 0.0 0.0 0.0 0.0 0.0 0.0
0.0 0.0 0.0 0.0 0.0 0.0 0.0 0.0 0.0 0.0 0.0 0.0 0.0 0.0 0.0 0.0 0.0 0.0 0.0 0.0 0.0 0.0 0.0 0.0 0.0 0.0 0.0 0.0 0.0 0.0 0.0 0.0 0.0 0.0 0.0 0.0 0.0 0.0 0.0 0.0 0.0 0.2 0.6
0.0 0.0 0.0 0.0 0.0 0.0 0.0 0.0 0.0 0.0 0.0 0.0 0.0 0.0 0.0 0.0 0.0 0.0 0.0 0.0 0.0 0.0 0.0 0.0 0.0 0.0 0.0 0.0 0.0 0.0 0.0 0.0 0.0 0.0 0.0 0.0 0.0 0.0 0.0 0.1 0.2 0.7 0.8
0.0 0.0 0.0 0.0 0.0 0.0 0.0 0.0 0.0 0.0 0.0 0.0 0.0 0.0 0.0 0.0 0.0 0.0 0.0 0.0 0.0 0.0 0.0 0.0 0.0 0.0 0.0 0.0 0.0 0.0 0.0 0.0 0.0 0.0 0.0 0.0 0.0 0.0 0.0 0.0 0.0 0.0 0.1
0.0 0.0 0.0 0.0 0.0 0.0 0.0 0.0 0.0 0.0 0.0 0.0 0.0 0.0 0.0 0.0 0.0 0.0 0.0 0.0 0.0 0.0 0.0 0.0 0.0 0.0 0.0 0.0 0.0 0.0 0.0 0.0 0.0 0.0 0.0 0.0 0.0 0.0 0.0 0.0 0.1 0.2 0.4
0.0 0.0 0.0 0.0 0.0 0.0 0.0 0.0 0.0 0.0 0.0 0.0 0.0 0.0 0.0 0.0 0.0 0.0 0.0 0.0 0.0 0.0 0.0 0.0 0.0 0.0 0.0 0.0 0.0 0.0 0.0 0.0 0.0 0.0 0.0 0.0 0.0 0.0 0.0 0.0 0.1 1.3 1.1
0.0 0.0 0.0 0.0 0.0 0.0 0.0 0.0 0.0 0.0 0.0 0.0 0.0 0.0 0.0 0.0 0.0 0.0 0.0 0.0 0.0 0.0 0.0 0.0 0.0 0.0 0.0 0.0 0.0 0.0 0.1 0.0 0.0 0.0 0.0 0.0 0.0 0.0 0.0 0.0 0.1 0.7 1.4
0.0 0.0 0.0 0.0 0.0 0.0 0.0 0.0 0.0 0.0 0.0 0.0 0.0 0.0 0.0 0.0 0.0 0.0 0.0 0.0 0.0 0.0 0.0 0.0 0.0 0.0 0.0 0.1 0.0 0.0 0.0 0.2 0.3 0.5 0.3 0.1 0.4 0.0 0.1 0.0 0.0 0.0 0.0
0.0 0.0 0.0 0.0 0.0 0.0 0.0 0.0 0.0 0.0 0.0 0.0 0.0 0.0 0.0 0.0 0.0 0.0 0.0 0.0 0.0 0.0 0.0 0.0 0.0 0.0 0.0 0.0 0.1 0.2 0.1 0.8 0.8 0.9 0.4 0.1 0.0 0.1 0.2 0.4 0.0 0.0 0.3
0.0 0.0 0.0 0.0 0.0 0.0 0.0 0.0 0.0 0.0 0.0 0.0 0.0 0.0 0.0 0.0 0.0 0.0 0.0 0.0 0.0 0.1 0.0 0.0 0.0 0.2 0.6 0.4 0.6 0.6 0.8 0.5 1.1 1.4 0.6 0.1 0.2 1.1 0.6 0.1 1.0 0.3 0.7
0.0 0.0 0.0 0.0 0.0 0.0 0.0 0.0 0.0 0.0 0.0 0.0 0.0 0.0 0.0 0.1 0.0 0.0 0.1 0.1 0.1 0.3 0.4 0.6 0.4 0.2 0.5 0.5 0.3 0.5 0.5 0.6 0.8 0.8 0.6 0.7 0.7 1.3 1.1 1.1 2.6 1.4 0.6
0.0 0.0 0.0 0.0 0.0 0.0 0.0 0.0 0.0 0.0 0.0 0.0 0.0 0.0 0.0 0.0 0.0 0.0 0.0 0.2 0.3 0.3 1.4 1.1 0.7 0.8 0.8 0.6 1.0 1.0 0.5 0.8 0.7 0.7 1.7 0.2 2.2 2.3 1.6 0.8 0.4 0.7 0.3
0.0 0.0 0.0 0.0 0.0 0.0 0.0 0.0 0.0 0.0 0.0 0.0 0.0 0.0 0.0 0.0 0.0 0.1 0.0 0.4 0.4 0.6 1.9 1.5 1.2 1.2 1.1 0.7 1.2 1.7 2.0 0.8 0.0 0.6 1.3 0.8 1.0 0.9 0.6 0.9 0.8 0.6 0.2
0.0 0.0 0.0 0.0 0.0 0.0 0.0 0.0 0.2 0.1 0.1 0.2 0.1 0.2 0.2 0.1 0.0 0.0 0.0 0.3 0.4 0.4 0.7 0.8 1.2 0.8 0.1 0.1 0.8 0.9 1.0 0.8 0.6 0.6 1.2 0.8 0.9 1.1 0.8 0.7 0.8 1.1 0.5
0.0 0.0 0.3 0.6 0.9 0.8 0.6 0.4 0.5 0.9 1.0 0.9 0.7 0.5 0.2 0.3 0.4 0.5 0.4 0.8 1.4 1.2 0.8 0.6 0.3 0.2 0.3 0.2 0.9 1.1 1.1 1.2 1.1 1.5 1.1 1.3 1.0 1.5 1.4 1.2 1.5 1.3 1.4
0.4 1.3 1.4 1.5 1.6 1.7 1.8 1.8 1.6 1.3 1.0 0.9 0.8 0.8 0.8 0.8 0.9 0.6 0.5 1.2 1.0 0.2 0.5 0.5 0.3 0.4 0.8 1.3 1.5 1.9 1.8 1.1 1.2 1.2 1.4 1.6 1.8 2.5 2.7 2.2 1.9 2.8 1.8
3.1 3.3 3.1 2.9 3.1 2.8 2.2 1.7 1.3 1.3 1.2 1.2 1.2 1.1 0.9 0.5 1.0 1.2 0.9 0.7 0.7 1.1 1.1 1.3 1.5 1.7 2.1 2.1 2.2 1.9 1.7 1.6 1.2 1.8 1.7 1.5 1.5 2.0 1.7 1.3 2.1 1.7 1.1
4.8 4.2 3.8 3.3 2.7 2.5 2.0 1.4 1.3 1.4 1.2 0.9 0.7 0.5 0.3 0.3 0.7 0.4 0.4 0.9 1.0 1.4 2.6 3.0 2.5 2.2 2.1 2.3 2.2 2.3 2.0 1.9 1.7 2.0 1.7 1.5 0.8 1.3 1.3 1.5 1.3 1.2 1.8
3.4 2.7 2.1 1.8 1.7 1.5 1.3 1.1 1.0 0.8 0.7 0.6 0.6 0.5 0.6 0.6 0.6 0.5 0.3 0.3 0.8 0.6 0.5 0.5 1.0 0.6 0.9 1.6 2.0 2.6 2.3 1.7 1.6 2.1 3.0 2.3 1.9 1.7 2.0 2.3 2.1 2.1 2.0
1.7 1.6 1.4 1.4 1.2 0.9 0.7 0.8 0.7 0.7 0.7 0.7 0.7 0.7 0.5 0.4 0.6 0.3 0.1 0.1 0.0 0.5 0.5 0.4 0.6 0.5 0.6 0.9 1.5 1.8 1.8 1.6 2.6 2.7 3.1 2.7 1.6 1.3 2.0 2.1 2.0 2.2 1.9
0.9 0.8 0.6 0.6 0.6 0.6 0.6 0.6 0.6 0.4 0.1 0.1 0.1 0.1 0.1 0.1 0.1 0.1 0.1 0.0 0.0 0.0 0.5 0.3 0.3 0.7 0.3 0.4 1.2 1.6 1.9 2.7 2.7 2.7 3.9 2.9 1.7 1.4 1.8 1.9 1.8 2.5 2.2
0.5 0.5 0.3 0.2 0.1 0.0 0.0 0.0 0.1 0.1 0.0 0.0 0.1 0.1 0.0 0.0 0.0 0.1 0.0 0.0 0.2 0.0 0.1 0.4 0.2 0.2 0.5 0.5 0.8 1.4 1.8 2.0 3.2 3.5 4.7 3.8 2.6 2.1 2.1 2.2 2.2 2.7 1.7

GFSGL_prec_kuchsnow24_072.txt.gz
Snowfall_Accumulation
0.0 0.0 0.0 0.0 0.0 0.0 0.0 0.0 0.0 0.0 0.0 0.0 0.0 0.0 0.0 0.0 0.0 0.0 0.0 0.0 0.0 0.0 0.0 0.0 0.0 0.0 0.0 0.0 0.0 0.0 0.0 0.0 0.0 0.0 0.0 0.0 0.0 0.0 0.0 0.0 0.0 0.0 0.0
0.0 0.0 0.0 0.0 0.0 0.0 0.0 0.0 0.0 0.0 0.0 0.0 0.0 0.0 0.0 0.0 0.0 0.0 0.0 0.0 0.0 0.0 0.0 0.0 0.0 0.0 0.0 0.0 0.0 0.0 0.0 0.0 0.0 0.0 0.0 0.0 0.0 0.0 0.0 0.0 0.0 0.0 0.0
0.0 0.0 0.0 0.0 0.0 0.0 0.0 0.0 0.0 0.0 0.0 0.0 0.0 0.0 0.0 0.0 0.0 0.0 0.0 0.0 0.0 0.0 0.0 0.0 0.0 0.0 0.0 0.0 0.0 0.0 0.0 0.0 0.0 0.0 0.0 0.0 0.0 0.0 0.0 0.0 0.0 0.0 0.0
0.0 0.0 0.0 0.0 0.0 0.0 0.0 0.0 0.0 0.0 0.0 0.0 0.0 0.0 0.0 0.0 0.0 0.0 0.0 0.0 0.0 0.0 0.0 0.0 0.0 0.0 0.0 0.0 0.0 0.0 0.0 0.0 0.0 0.0 0.0 0.0 0.0 0.0 0.0 0.0 0.0 0.0 0.0
0.0 0.0 0.0 0.0 0.0 0.0 0.0 0.0 0.0 0.0 0.0 0.0 0.0 0.0 0.0 0.0 0.0 0.0 0.0 0.0 0.0 0.0 0.0 0.0 0.0 0.0 0.0 0.0 0.0 0.0 0.0 0.0 0.0 0.0 0.0 0.0 0.0 0.0 0.0 0.0 0.0 0.0 0.0
0.0 0.0 0.0 0.0 0.0 0.0 0.0 0.0 0.0 0.0 0.0 0.0 0.0 0.0 0.0 0.0 0.0 0.0 0.0 0.0 0.0 0.0 0.0 0.0 0.0 0.0 0.0 0.0 0.0 0.0 0.0 0.0 0.0 0.0 0.0 0.0 0.0 0.0 0.0 0.0 0.0 0.2 0.5
0.0 0.0 0.0 0.0 0.0 0.0 0.0 0.0 0.0 0.0 0.0 0.0 0.0 0.0 0.0 0.0 0.0 0.0 0.0 0.0 0.0 0.0 0.0 0.0 0.0 0.0 0.0 0.0 0.0 0.0 0.0 0.0 0.0 0.0 0.0 0.0 0.0 0.0 0.0 0.1 0.2 0.6 0.6
0.0 0.0 0.0 0.0 0.0 0.0 0.0 0.0 0.0 0.0 0.0 0.0 0.0 0.0 0.0 0.0 0.0 0.0 0.0 0.0 0.0 0.0 0.0 0.0 0.0 0.0 0.0 0.0 0.0 0.0 0.0 0.0 0.0 0.0 0.0 0.0 0.0 0.0 0.0 0.0 0.0 0.0 0.1
0.0 0.0 0.0 0.0 0.0 0.0 0.0 0.0 0.0 0.0 0.0 0.0 0.0 0.0 0.0 0.0 0.0 0.0 0.0 0.0 0.0 0.0 0.0 0.0 0.0 0.0 0.0 0.0 0.0 0.0 0.0 0.0 0.0 0.0 0.0 0.0 0.0 0.0 0.0 0.0 0.1 0.3 0.4
0.0 0.0 0.0 0.0 0.0 0.0 0.0 0.0 0.0 0.0 0.0 0.0 0.0 0.0 0.0 0.0 0.0 0.0 0.0 0.0 0.0 0.0 0.0 0.0 0.0 0.0 0.0 0.0 0.0 0.0 0.0 0.0 0.0 0.0 0.0 0.0 0.0 0.0 0.0 0.0 0.1 1.5 1.3
0.0 0.0 0.0 0.0 0.0 0.0 0.0 0.0 0.0 0.0 0.0 0.0 0.0 0.0 0.0 0.0 0.0 0.0 0.0 0.0 0.0 0.0 0.0 0.0 0.0 0.0 0.0 0.0 0.0 0.0 0.1 0.0 0.0 0.0 0.0 0.0 0.0 0.0 0.0 0.0 0.1 0.7 1.4
0.0 0.0 0.0 0.0 0.0 0.0 0.0 0.0 0.0 0.0 0.0 0.0 0.0 0.0 0.0 0.0 0.0 0.0 0.0 0.0 0.0 0.0 0.0 0.0 0.0 0.0 0.0 0.0 0.0 0.0 0.0 0.2 0.3 0.5 0.3 0.1 0.4 0.0 0.1 0.0 0.0 0.0 0.0
0.0 0.0 0.0 0.0 0.0 0.0 0.0 0.0 0.0 0.0 0.0 0.0 0.0 0.0 0.0 0.0 0.0 0.0 0.0 0.0 0.0 0.0 0.0 0.0 0.0 0.0 0.0 0.0 0.0 0.2 0.1 0.8 0.8 0.9 0.4 0.1 0.0 0.1 0.2 0.4 0.0 0.0 0.3
0.0 0.0 0.0 0.0 0.0 0.0 0.0 0.0 0.0 0.0 0.0 0.0 0.0 0.0 0.0 0.0 0.0 0.0 0.0 0.0 0.0 0.1 0.0 0.0 0.0 0.2 0.1 0.0 0.3 0.3 0.7 0.5 1.1 1.4 0.6 0.1 0.2 1.1 0.6 0.1 1.0 0.3 0.7
0.0 0.0 0.0 0.0 0.0 0.0 0.0 0.0 0.0 0.0 0.0 0.0 0.0 0.0 0.0 0.1 0.0 0.0 0.1 0.1 0.1 0.2 0.4 0.5 0.4 0.2 0.3 0.2 0.0 0.2 0.2 0.4 0.8 0.8 0.6 0.7 0.7 1.3 1.1 1.1 2.6 1.4 0.6
0.0 0.0 0.0 0.0 0.0 0.0 0.0 0.0 0.0 0.0 0.0 0.0 0.0 0.0 0.0 0.0 0.0 0.0 0.0 0.1 0.0 0.0 0.6 0.8 0.7 0.8 0.8 0.6 0.7 0.8 0.5 0.6 0.6 0.7 1.7 0.2 2.2 2.3 1.6 0.8 0.4 0.7 0.3
0.0 0.0 0.0 0.0 0.0 0.0 0.0 0.0 0.0 0.1 0.2 0.3 0.4 0.5 0.4 0.3 0.2 0.1 0.0 0.0 0.0 0.0 0.8 1.0 1.0 1.2 1.1 0.7 0.8 1.2 1.5 0.8 0.0 0.6 1.3 0.8 1.0 0.9 0.6 0.9 0.8 0.6 0.2
0.0 0.0 0.0 0.0 0.0 0.0 0.3 0.4 1.0 1.4 1.6 1.5 0.7 0.5 0.4 0.1 0.0 0.0 0.0 0.0 0.2 0.1 0.2 0.4 0.9 0.8 0.1 0.1 0.5 0.5 0.7 0.6 0.5 0.6 1.2 0.8 0.9 1.1 0.8 0.7 0.8 1.1 0.5
0.0 0.0 0.3 1.3 1.6 1.7 1.6 1.6 1.6 1.7 1.7 1.7 1.7 1.5 1.2 1.2 1.2 1.2 1.0 1.0 1.7 1.6 1.3 0.9 0.7 0.5 0.5 0.4 0.5 0.6 0.7 0.9 1.0 1.5 1.1 1.3 1.0 1.5 1.4 1.2 1.5 1.3 1.4
0.8 2.0 2.1 2.6 2.9 2.8 2.6 2.5 2.3 2.0 1.8 1.7 1.6 1.6 1.7 1.6 1.7 1.4 1.2 1.0 1.3 0.7 1.1 1.0 0.8 0.9 0.9 1.2 1.4 1.5 1.4 1.0 1.2 1.2 1.4 1.6 1.8 2.5 2.7 2.2 1.9 2.8 1.8
4.3 4.7 4.4 3.8 3.8 3.4 2.8 2.3 1.9 1.7 1.8 1.8 1.9 1.8 1.6 1.0 0.8 0.7 0.6 0.6 0.6 1.1 1.1 1.0 1.1 1.1 1.5 1.9 1.8 1.3 1.4 1.5 1.2 1.8 1.7 1.5 1.5 2.0 1.7 1.3 2.1 1.7 1.1
5.5 5.0 4.4 3.8 3.2 2.9 2.3 1.7 1.6 1.6 1.5 1.2 1.0 0.8 0.7 0.6 0.6 0.7 0.8 0.7 0.8 0.6 1.0 1.0 1.3 1.7 1.7 1.7 1.6 1.6 1.6 1.7 1.7 2.0 1.7 1.5 0.8 1.3 1.3 1.5 1.3 1.2 1.8
3.9 3.2 2.6 2.2 2.0 1.8 1.5 1.2 1.1 0.9 0.9 0.9 0.8 0.8 0.8 0.8 0.9 0.8 0.6 0.6 0.4 0.1 0.1 0.1 0.6 0.4 0.5 0.8 1.1 1.9 1.7 1.5 1.4 2.0 3.1 2.3 1.9 1.7 1.9 2.3 2.1 2.2 2.0
1.9 1.8 1.6 1.6 1.4 0.9 0.7 0.8 0.7 0.7 0.9 0.9 0.7 0.7 0.5 0.4 0.4 0.3 0.1 0.1 0.0 0.0 0.0 0.0 0.4 0.3 0.3 0.4 0.6 0.8 1.1 1.2 2.1 2.3 3.2 2.9 1.6 1.3 2.0 2.0 2.0 2.2 2.1
0.9 0.8 0.6 0.6 0.6 0.6 0.6 0.6 0.6 0.4 0.1 0.1 0.1 0.1 0.1 0.1 0.1 0.1 0.1 0.0 0.0 0.0 0.2 0.0 0.1 0.5 0.2 0.2 0.4 0.6 0.9 1.9 2.0 1.9 3.0 2.6 1.8 1.4 1.9 2.0 1.8 2.6 2.3
0.5 0.5 0.3 0.2 0.1 0.0 0.0 0.0 0.1 0.1 0.0 0.0 0.1 0.1 0.0 0.0 0.0 0.1 0.0 0.0 0.2 0.0 0.1 0.1 0.0 0.0 0.2 0.0 0.1 0.4 0.7 1.2 2.4 2.8 4.2 3.2 2.1 1.7 2.0 2.2 2.1 2.9 1.9

GFSGL_prec_kuchsnow24_075.txt.gz
Snowfall_Accumulation
0.0 0.0 0.0 0.0 0.0 0.0 0.0 0.0 0.0 0.0 0.0 0.0 0.0 0.0 0.0 0.0 0.0 0.0 0.0 0.0 0.0 0.0 0.0 0.0 0.0 0.0 0.0 0.0 0.0 0.0 0.0 0.0 0.0 0.0 0.0 0.0 0.0 0.0 0.0 0.0 0.0 0.0 0.0
0.0 0.0 0.0 0.0 0.0 0.0 0.0 0.0 0.0 0.0 0.0 0.0 0.0 0.0 0.0 0.0 0.0 0.0 0.0 0.0 0.0 0.0 0.0 0.0 0.0 0.0 0.0 0.0 0.0 0.0 0.0 0.0 0.0 0.0 0.0 0.0 0.0 0.0 0.0 0.0 0.0 0.0 0.0
0.0 0.0 0.0 0.0 0.0 0.0 0.0 0.0 0.0 0.0 0.0 0.0 0.0 0.0 0.0 0.0 0.0 0.0 0.0 0.0 0.0 0.0 0.0 0.0 0.0 0.0 0.0 0.0 0.0 0.0 0.0 0.0 0.0 0.0 0.0 0.0 0.0 0.0 0.0 0.0 0.0 0.0 0.0
0.0 0.0 0.0 0.0 0.0 0.0 0.0 0.0 0.0 0.0 0.0 0.0 0.0 0.0 0.0 0.0 0.0 0.0 0.0 0.0 0.0 0.0 0.0 0.0 0.0 0.0 0.0 0.0 0.0 0.0 0.0 0.0 0.0 0.0 0.0 0.0 0.0 0.0 0.0 0.0 0.0 0.0 0.0
0.0 0.0 0.0 0.0 0.0 0.0 0.0 0.0 0.0 0.0 0.0 0.0 0.0 0.0 0.0 0.0 0.0 0.0 0.0 0.0 0.0 0.0 0.0 0.0 0.0 0.0 0.0 0.0 0.0 0.0 0.0 0.0 0.0 0.0 0.0 0.0 0.0 0.0 0.0 0.0 0.0 0.0 0.0
0.0 0.0 0.0 0.0 0.0 0.0 0.0 0.0 0.0 0.0 0.0 0.0 0.0 0.0 0.0 0.0 0.0 0.0 0.0 0.0 0.0 0.0 0.0 0.0 0.0 0.0 0.0 0.0 0.0 0.0 0.0 0.0 0.0 0.0 0.0 0.0 0.0 0.0 0.0 0.0 0.0 0.2 0.5
0.0 0.0 0.0 0.0 0.0 0.0 0.0 0.0 0.0 0.0 0.0 0.0 0.0 0.0 0.0 0.0 0.0 0.0 0.0 0.0 0.0 0.0 0.0 0.0 0.0 0.0 0.0 0.0 0.0 0.0 0.0 0.0 0.0 0.0 0.0 0.0 0.0 0.0 0.0 0.1 0.2 0.6 0.6
0.0 0.0 0.0 0.0 0.0 0.0 0.0 0.0 0.0 0.0 0.0 0.0 0.0 0.0 0.0 0.0 0.0 0.0 0.0 0.0 0.0 0.0 0.0 0.0 0.0 0.0 0.0 0.0 0.0 0.0 0.0 0.0 0.0 0.0 0.0 0.0 0.0 0.0 0.0 0.0 0.0 0.0 0.1
0.0 0.0 0.0 0.0 0.0 0.0 0.0 0.0 0.0 0.0 0.0 0.0 0.0 0.0 0.0 0.0 0.0 0.0 0.0 0.0 0.0 0.0 0.0 0.0 0.0 0.0 0.0 0.0 0.0 0.0 0.0 0.0 0.0 0.0 0.0 0.0 0.0 0.0 0.0 0.0 0.1 0.3 0.4
0.0 0.0 0.0 0.0 0.0 0.0 0.0 0.0 0.0 0.0 0.0 0.0 0.0 0.0 0.0 0.0 0.0 0.0 0.0 0.0 0.0 0.0 0.0 0.0 0.0 0.0 0.0 0.0 0.0 0.0 0.0 0.0 0.0 0.0 0.0 0.0 0.0 0.0 0.0 0.0 0.1 1.5 1.3
0.0 0.0 0.0 0.0 0.0 0.0 0.0 0.0 0.0 0.0 0.0 0.0 0.0 0.0 0.0 0.0 0.0 0.0 0.0 0.0 0.0 0.0 0.0 0.0 0.0 0.0 0.0 0.0 0.0 0.0 0.1 0.0 0.0 0.0 0.0 0.0 0.0 0.0 0.0 0.0 0.1 0.7 1.4
0.0 0.0 0.0 0.0 0.0 0.0 0.0 0.0 0.0 0.0 0.0 0.0 0.0 0.0 0.0 0.0 0.0 0.0 0.0 0.0 0.0 0.0 0.0 0.0 0.0 0.0 0.0 0.0 0.0 0.0 0.0 0.1 0.3 0.5 0.3 0.1 0.4 0.0 0.1 0.0 0.0 0.0 0.0
0.0 0.0 0.0 0.0 0.0 0.0 0.0 0.0 0.0 0.0 0.0 0.0 0.0 0.0 0.0 0.0 0.0 0.0 0.2 0.1 0.0 0.0 0.0 0.0 0.0 0.0 0.0 0.0 0.0 0.2 0.1 0.4 0.7 0.8 0.4 0.1 0.0 0.1 0.2 0.4 0.0 0.0 0.3
0.0 0.0 0.0 0.0 0.0 0.0 0.0 0.0 0.0 0.0 0.0 0.0 0.0 0.0 0.0 0.0 0.0 0.1 0.0 0.0 0.0 0.0 0.0 0.0 0.0 0.0 0.0 0.0 0.3 0.2 0.3 0.3 0.9 1.2 0.6 0.1 0.2 1.1 0.6 0.1 1.0 0.3 0.7
0.0 0.0 0.0 0.0 0.0 0.0 0.0 0.0 0.0 0.0 0.0 0.0 0.0 0.0 0.0 0.0 0.1 0.1 0.0 0.0 0.0 0.1 0.1 0.2 0.2 0.0 0.2 0.2 0.0 0.2 0.2 0.1 0.3 0.6 0.5 0.7 0.7 1.3 1.1 1.1 2.6 1.4 0.6
0.0 0.0 0.0 0.0 0.0 0.0 0.0 0.0 0.0 0.0 0.0 0.0 0.0 0.3 0.4 0.4 0.4 0.6 0.6 0.3 0.2 0.0 0.1 0.3 0.4 0.5 0.6 0.5 0.7 0.8 0.5 0.4 0.5 0.6 1.6 0.2 2.2 2.3 1.6 0.8 0.4 0.7 0.3
0.0 0.0 0.0 0.0 0.0 0.0 0.0 0.0 0.0 0.1 1.0 1.5 1.9 2.0 1.5 1.4 1.1 0.6 0.3 0.1 0.1 0.0 0.2 0.3 0.4 0.7 0.9 0.5 0.7 1.2 1.5 0.8 0.0 0.0 1.1 0.7 1.0 0.9 0.6 0.9 0.8 0.6 0.2
0.0 0.0 0.0 0.0 0.0 0.0 0.3 0.4 1.8 2.4 2.8 3.0 1.9 1.2 0.8 0.4 0.2 0.1 0.0 0.0 0.2 0.1 0.0 0.0 0.5 0.6 0.0 0.0 0.5 0.5 0.7 0.6 0.1 0.4 1.1 0.8 0.9 1.1 0.8 0.7 0.8 1.1 0.5
0.0 0.0 0.3 1.3 2.0 2.3 2.4 2.5 2.4 2.4 2.1 2.1 2.1 1.9 1.5 1.4 1.4 1.4 1.0 1.0 0.9 0.7 0.5 0.3 0.4 0.3 0.4 0.4 0.6 0.7 0.7 0.8 0.9 1.3 1.0 1.2 1.0 1.5 1.4 1.2 1.5 1.3 1.4
1.5 2.9 2.8 3.3 3.9 3.7 3.5 3.0 2.6 2.2 2.0 1.8 1.8 1.8 1.9 1.6 1.7 1.4 1.2 1.0 0.9 1.0 1.0 1.0 0.9 1.0 0.9 1.1 1.2 1.3 1.4 0.9 1.1 1.1 1.3 1.5 1.8 2.5 2.8 2.2 2.0 2.8 1.8
5.6 6.0 5.5 4.7 4.5 3.9 3.1 2.5 2.1 2.0 1.8 1.8 2.2 2.1 1.6 1.0 1.0 0.9 0.8 0.8 0.9 0.9 1.0 1.1 1.1 0.9 0.8 0.8 1.0 1.1 1.2 1.3 1.0 1.6 1.5 1.4 1.6 2.0 1.7 1.3 2.1 1.7 1.1
6.4 5.8 5.1 4.4 3.7 3.2 2.6 2.0 1.8 1.6 1.7 1.4 1.3 1.2 0.7 0.6 0.6 0.7 0.8 1.0 1.0 0.8 0.7 0.4 0.5 0.4 0.5 0.9 0.9 1.0 1.2 1.4 1.4 1.7 1.4 1.5 0.9 1.3 1.4 1.6 1.4 1.3 1.9
4.2 3.4 2.8 2.4 2.2 2.0 1.7 1.4 1.3 1.1 1.0 1.0 1.0 1.0 0.8 0.8 0.9 0.8 0.7 0.6 0.4 0.1 0.1 0.1 0.2 0.0 0.2 0.4 0.6 1.1 1.0 1.0 1.1 1.5 2.7 2.3 1.9 1.8 2.0 2.4 2.3 2.3 2.1
2.2 2.0 1.8 1.8 1.6 1.0 0.8 0.9 0.7 0.7 0.9 0.9 0.7 0.7 0.5 0.4 0.4 0.3 0.1 0.1 0.0 0.0 0.0 0.0 0.1 0.0 0.1 0.2 0.4 0.5 0.5 0.4 1.1 1.8 2.7 2.7 1.7 1.4 2.1 2.1 2.1 2.3 2.2
0.9 0.8 0.6 0.6 0.6 0.6 0.6 0.6 0.6 0.4 0.1 0.1 0.1 0.2 0.1 0.1 0.1 0.1 0.1 0.0 0.0 0.0 0.2 0.0 0.1 0.2 0.1 0.0 0.3 0.4 0.5 0.9 0.8 1.1 2.3 2.3 1.8 1.5 2.0 2.2 2.0 2.7 2.4
0.5 0.5 0.3 0.2 0.1 0.0 0.0 0.0 0.1 0.1 0.0 0.0 0.1 0.1 0.0 0.0 0.0 0.1 0.0 0.0 0.2 0.0 0.1 0.1 0.0 0.0 0.0 0.0 0.0 0.4 0.2 0.2 1.0 1.5 3.8 2.8 1.8 1.6 2.0 2.3 2.1 3.0 1.9

GFSGL_prec_kuchsnow24_078.txt.gz
Snowfall_Accumulation
0.0 0.0 0.0 0.0 0.0 0.0 0.0 0.0 0.0 0.0 0.0 0.0 0.0 0.0 0.0 0.0 0.0 0.0 0.0 0.0 0.0 0.0 0.0 0.0 0.0 0.0 0.0 0.0 0.0 0.0 0.0 0.0 0.0 0.0 0.0 0.0 0.0 0.0 0.0 0.0 0.0 0.0 0.0
0.0 0.0 0.0 0.0 0.0 0.0 0.0 0.0 0.0 0.0 0.0 0.0 0.0 0.0 0.0 0.0 0.0 0.0 0.0 0.0 0.0 0.0 0.0 0.0 0.0 0.0 0.0 0.0 0.0 0.0 0.0 0.0 0.0 0.0 0.0 0.0 0.0 0.0 0.0 0.0 0.0 0.0 0.0
0.0 0.0 0.0 0.0 0.0 0.0 0.0 0.0 0.0 0.0 0.0 0.0 0.0 0.0 0.0 0.0 0.0 0.0 0.0 0.0 0.0 0.0 0.0 0.0 0.0 0.0 0.0 0.0 0.0 0.0 0.0 0.0 0.0 0.0 0.0 0.0 0.0 0.0 0.0 0.0 0.0 0.0 0.0
0.0 0.0 0.0 0.0 0.0 0.0 0.0 0.0 0.0 0.0 0.0 0.0 0.0 0.0 0.0 0.0 0.0 0.0 0.0 0.0 0.0 0.0 0.0 0.0 0.0 0.0 0.0 0.0 0.0 0.0 0.0 0.0 0.0 0.0 0.0 0.0 0.0 0.0 0.0 0.0 0.0 0.0 0.0
0.0 0.0 0.0 0.0 0.0 0.0 0.0 0.0 0.0 0.0 0.0 0.0 0.0 0.0 0.0 0.0 0.0 0.0 0.0 0.0 0.0 0.0 0.0 0.0 0.0 0.0 0.0 0.0 0.0 0.0 0.0 0.0 0.0 0.0 0.0 0.0 0.0 0.0 0.0 0.0 0.0 0.0 0.0
0.0 0.0 0.0 0.0 0.0 0.0 0.0 0.0 0.0 0.0 0.0 0.0 0.0 0.0 0.0 0.0 0.0 0.0 0.0 0.0 0.0 0.0 0.0 0.0 0.0 0.0 0.0 0.0 0.0 0.0 0.0 0.0 0.0 0.0 0.0 0.0 0.0 0.0 0.0 0.0 0.0 0.2 0.5
0.0 0.0 0.0 0.0 0.0 0.0 0.0 0.0 0.0 0.0 0.0 0.0 0.0 0.0 0.0 0.0 0.0 0.0 0.0 0.0 0.0 0.0 0.0 0.0 0.0 0.0 0.0 0.0 0.0 0.0 0.0 0.0 0.0 0.0 0.0 0.0 0.0 0.0 0.0 0.1 0.2 0.6 0.6
0.0 0.0 0.0 0.0 0.0 0.0 0.0 0.0 0.0 0.0 0.0 0.0 0.0 0.0 0.0 0.0 0.0 0.0 0.0 0.0 0.0 0.0 0.0 0.0 0.0 0.0 0.0 0.0 0.0 0.0 0.0 0.0 0.0 0.0 0.0 0.0 0.0 0.0 0.0 0.0 0.0 0.0 0.1
0.0 0.0 0.0 0.0 0.0 0.0 0.0 0.0 0.0 0.0 0.0 0.0 0.0 0.0 0.0 0.0 0.0 0.0 0.0 0.0 0.0 0.0 0.0 0.0 0.0 0.0 0.0 0.0 0.0 0.0 0.0 0.0 0.0 0.0 0.0 0.0 0.0 0.0 0.0 0.0 0.1 0.3 0.4
0.0 0.0 0.0 0.0 0.0 0.0 0.0 0.0 0.0 0.0 0.0 0.0 0.0 0.0 0.0 0.0 0.0 0.0 0.0 0.0 0.0 0.0 0.0 0.0 0.0 0.0 0.0 0.0 0.1 0.0 0.0 0.0 0.0 0.0 0.0 0.0 0.0 0.0 0.0 0.0 0.1 1.5 1.3
0.0 0.0 0.0 0.0 0.0 0.0 0.0 0.0 0.0 0.0 0.0 0.0 0.0 0.0 0.0 0.0 0.0 0.0 0.0 0.0 0.0 0.0 0.0 0.0 0.0 0.0 0.0 0.2 0.0 0.0 0.1 0.0 0.0 0.0 0.0 0.0 0.0 0.0 0.0 0.0 0.1 0.7 1.4
0.0 0.0 0.0 0.0 0.0 0.0 0.0 0.0 0.0 0.0 0.0 0.0 0.0 0.0 0.0 0.0 0.0 0.0 0.0 0.0 0.0 0.0 0.0 0.0 0.0 0.5 0.1 0.0 0.0 0.0 0.0 0.0 0.1 0.2 0.2 0.0 0.4 0.0 0.1 0.0 0.0 0.0 0.0
0.0 0.0 0.0 0.0 0.0 0.0 0.0 0.0 0.0 0.0 0.0 0.0 0.0 0.0 0.0 0.0 0.0 0.0 0.2 0.1 0.0 0.0 0.6 0.5 0.3 0.1 0.0 0.0 0.0 0.0 0.0 0.3 0.5 0.5 0.3 0.1 0.0 0.1 0.2 0.4 0.0 0.0 0.3
0.0 0.0 0.0 0.0 0.0 0.0 0.0 0.0 0.0 0.0 0.0 0.0 0.0 0.0 0.0 0.0 0.0 0.1 0.0 0.9 0.8 0.8 0.5 0.2 0.0 0.0 0.0 0.0 0.0 0.0 0.0 0.0 0.7 1.0 0.5 0.1 0.1 1.0 0.6 0.1 1.0 0.3 0.6
0.0 0.0 0.0 0.0 0.0 0.0 0.0 0.0 0.0 0.0 0.0 0.0 0.0 0.0 0.0 0.0 0.1 1.2 1.1 0.9 0.6 0.5 0.3 0.1 0.2 0.0 0.2 0.2 0.0 0.0 0.0 0.0 0.2 0.5 0.4 0.5 0.5 1.2 1.1 1.1 2.6 1.4 0.6
0.0 0.0 0.0 0.0 0.0 0.0 0.0 0.0 0.0 0.0 0.0 0.0 0.0 0.3 1.7 1.9 2.2 2.2 1.9 1.2 0.7 0.4 0.4 0.5 0.5 0.4 0.3 0.3 0.4 0.4 0.2 0.3 0.5 0.5 1.5 0.1 2.0 2.2 1.6 0.7 0.4 0.7 0.2
0.0 0.0 0.0 0.0 0.0 0.0 0.0 0.0 0.0 0.1 1.0 2.5 3.2 3.4 2.6 2.6 2.1 1.6 1.2 0.9 0.6 0.3 0.3 0.2 0.1 0.2 0.1 0.3 0.6 0.9 1.3 0.8 0.0 0.0 1.0 0.5 0.8 0.7 0.6 0.8 0.8 0.6 0.2
0.0 0.0 0.0 0.0 0.0 0.0 0.3 0.9 2.2 2.7 3.3 4.1 3.1 2.1 1.5 1.1 0.8 0.6 0.4 0.4 0.4 0.2 0.1 0.1 0.1 0.0 0.0 0.0 0.2 0.4 0.7 0.7 0.0 0.3 0.9 0.6 0.7 1.0 0.8 0.7 0.8 1.0 0.5
0.0 0.0 2.8 3.4 3.6 3.4 3.0 3.0 2.9 2.9 2.7 2.8 2.8 2.6 2.1 1.9 1.7 1.6 1.1 1.1 0.9 0.7 0.5 0.3 0.4 0.3 0.3 0.2 0.5 0.5 0.6 0.7 0.7 1.1 0.9 1.1 0.9 1.3 1.2 1.2 1.5 1.3 1.4
3.2 4.7 4.3 4.8 5.3 4.8 4.4 3.8 3.4 2.9 2.7 2.5 2.3 2.2 2.2 1.8 1.8 1.5 1.3 1.1 0.9 1.0 1.0 1.0 0.9 0.8 0.8 0.8 0.8 0.8 0.6 0.4 0.8 0.8 1.2 1.3 1.5 2.3 2.8 2.2 2.0 2.9 1.9
8.0 8.6 7.8 6.6 6.3 5.5 4.4 3.4 2.8 2.5 2.2 2.2 2.6 2.4 1.7 1.1 1.0 0.9 0.9 0.8 0.9 0.9 1.0 1.0 1.0 0.8 0.7 0.6 0.6 0.4 0.4 0.6 0.8 1.5 1.2 1.2 1.2 1.9 1.6 1.3 2.1 1.7 1.1
7.6 7.2 6.4 5.6 4.7 4.0 3.3 2.4 2.1 1.9 1.9 1.6 1.5 1.2 0.7 0.6 0.6 0.8 0.9 1.1 1.1 0.9 0.6 0.5 0.4 0.3 0.1 0.3 0.3 0.4 0.6 0.8 1.0 1.2 1.0 0.9 0.4 1.1 1.3 1.6 1.3 1.2 2.0
5.1 4.2 3.4 3.0 2.6 2.4 1.9 1.6 1.4 1.2 1.2 1.1 1.0 1.0 0.8 0.9 0.9 0.9 0.8 0.7 0.5 0.1 0.1 0.0 0.1 0.0 0.0 0.1 0.1 0.6 0.7 0.7 0.7 1.0 1.9 1.6 1.6 1.7 2.1 2.6 2.2 2.4 2.2
2.5 2.3 2.0 2.0 1.8 1.1 1.0 0.9 0.7 0.7 0.9 0.9 0.7 0.7 0.5 0.4 0.5 0.3 0.1 0.1 0.0 0.0 0.0 0.0 0.1 0.0 0.1 0.2 0.1 0.1 0.2 0.2 0.9 1.4 1.9 1.9 1.2 1.2 2.2 2.2 2.1 2.4 2.4
0.9 0.8 0.6 0.6 0.6 0.6 0.6 0.6 0.6 0.4 0.1 0.1 0.1 0.2 0.1 0.1 0.1 0.1 0.1 0.0 0.0 0.0 0.2 0.0 0.1 0.2 0.1 0.0 0.1 0.1 0.3 0.7 0.5 0.6 1.5 1.5 1.3 1.1 2.0 2.3 2.1 2.9 2.4
0.5 0.5 0.3 0.2 0.1 0.0 0.0 0.0 0.1 0.1 0.0 0.0 0.1 0.1 0.0 0.0 0.0 0.0 0.0 0.0 0.2 0.0 0.1 0.1 0.0 0.0 0.0 0.0 0.0 0.2 0.0 0.0 0.7 0.9 2.8 2.0 1.5 1.3 1.9 2.3 2.1 3.1 2.0

GFSGL_prec_kuchsnow24_081.txt.gz
Snowfall_Accumulation
0.0 0.0 0.0 0.0 0.0 0.0 0.0 0.0 0.0 0.0 0.0 0.0 0.0 0.0 0.0 0.0 0.0 0.0 0.0 0.0 0.0 0.0 0.0 0.0 0.0 0.0 0.0 0.0 0.0 0.0 0.0 0.0 0.0 0.0 0.0 0.0 0.0 0.0 0.0 0.0 0.0 0.0 0.0
0.0 0.0 0.0 0.0 0.0 0.0 0.0 0.0 0.0 0.0 0.0 0.0 0.0 0.0 0.0 0.0 0.0 0.0 0.0 0.0 0.0 0.0 0.0 0.0 0.0 0.0 0.0 0.0 0.0 0.0 0.0 0.0 0.0 0.0 0.0 0.0 0.0 0.0 0.0 0.0 0.0 0.0 0.0
0.0 0.0 0.0 0.0 0.0 0.0 0.0 0.0 0.0 0.0 0.0 0.0 0.0 0.0 0.0 0.0 0.0 0.0 0.0 0.0 0.0 0.0 0.0 0.0 0.0 0.0 0.0 0.0 0.0 0.0 0.0 0.0 0.0 0.0 0.0 0.0 0.0 0.0 0.0 0.0 0.0 0.0 0.0
0.0 0.0 0.0 0.0 0.0 0.0 0.0 0.0 0.0 0.0 0.0 0.0 0.0 0.0 0.0 0.0 0.0 0.0 0.0 0.0 0.0 0.0 0.0 0.0 0.0 0.0 0.0 0.0 0.0 0.0 0.0 0.0 0.0 0.0 0.0 0.0 0.0 0.0 0.0 0.0 0.0 0.0 0.0
0.0 0.0 0.0 0.0 0.0 0.0 0.0 0.0 0.0 0.0 0.0 0.0 0.0 0.0 0.0 0.0 0.0 0.0 0.0 0.0 0.0 0.0 0.0 0.0 0.0 0.0 0.0 0.0 0.0 0.0 0.0 0.0 0.0 0.0 0.0 0.0 0.0 0.0 0.0 0.0 0.0 0.0 0.0
0.0 0.0 0.0 0.0 0.0 0.0 0.0 0.0 0.0 0.0 0.0 0.0 0.0 0.0 0.0 0.0 0.0 0.0 0.0 0.0 0.0 0.0 0.0 0.0 0.0 0.0 0.0 0.0 0.0 0.0 0.0 0.0 0.0 0.0 0.0 0.0 0.0 0.0 0.0 0.0 0.0 0.2 0.5
0.0 0.0 0.0 0.0 0.0 0.0 0.0 0.0 0.0 0.0 0.0 0.0 0.0 0.0 0.0 0.0 0.0 0.0 0.0 0.0 0.0 0.0 0.0 0.0 0.0 0.0 0.0 0.0 0.0 0.0 0.0 0.0 0.0 0.0 0.0 0.0 0.0 0.0 0.0 0.1 0.2 0.6 0.6
0.0 0.0 0.0 0.0 0.0 0.0 0.0 0.0 0.0 0.0 0.0 0.0 0.0 0.0 0.0 0.0 0.0 0.0 0.0 0.0 0.0 0.0 0.0 0.0 0.0 0.0 0.0 0.0 0.0 0.0 0.0 0.0 0.0 0.0 0.0 0.0 0.0 0.0 0.0 0.0 0.0 0.0 0.1
0.0 0.0 0.0 0.0 0.0 0.0 0.0 0.0 0.0 0.0 0.0 0.0 0.0 0.0 0.0 0.0 0.0 0.0 0.0 0.0 0.0 0.0 0.0 0.0 0.0 0.0 0.0 0.0 0.0 0.0 0.0 0.0 0.0 0.0 0.0 0.2 0.1 0.0 0.0 0.0 0.1 0.3 0.4
0.0 0.0 0.0 0.0 0.0 0.0 0.0 0.0 0.0 0.0 0.0 0.0 0.0 0.0 0.0 0.0 0.0 0.0 0.0 0.0 0.0 0.0 0.0 0.0 0.0 0.0 0.0 0.0 0.1 0.0 0.0 0.0 0.8 0.6 0.4 0.2 0.0 0.0 0.0 0.0 0.1 1.5 1.3
0.0 0.0 0.0 0.0 0.0 0.0 0.0 0.0 0.0 0.0 0.0 0.0 0.0 0.0 0.0 0.0 0.0 0.0 0.0 0.0 0.0 0.0 0.0 0.0 0.0 0.0 0.0 0.2 0.0 0.0 0.7 0.5 0.3 0.1 0.1 0.0 0.0 0.0 0.0 0.0 0.1 0.7 1.4
0.0 0.0 0.0 0.0 0.0 0.0 0.0 0.0 0.0 0.0 0.0 0.0 0.0 0.0 0.0 0.0 0.0 0.0 0.0 0.0 0.0 0.0 0.0 0.0 0.0 0.5 0.1 0.0 1.1 1.0 0.7 0.5 0.3 0.1 0.0 0.0 0.3 0.0 0.1 0.0 0.0 0.0 0.0
0.0 0.0 0.0 0.0 0.0 0.0 0.0 0.0 0.0 0.0 0.0 0.0 0.0 0.0 0.0 0.0 0.0 0.0 0.2 0.1 0.0 0.0 0.6 0.5 0.3 1.5 1.2 1.1 1.1 0.8 0.3 0.1 0.0 0.1 0.0 0.0 0.0 0.1 0.2 0.4 0.0 0.0 0.3
0.0 0.0 0.0 0.0 0.0 0.0 0.0 0.0 0.0 0.0 0.0 0.0 0.0 0.0 0.0 0.0 0.0 0.1 0.0 0.9 0.8 0.8 0.5 0.2 1.9 1.8 1.5 1.4 1.0 0.5 0.2 0.1 0.3 0.5 0.1 0.0 0.1 0.8 0.5 0.1 1.0 0.3 0.6
0.0 0.0 0.0 0.0 0.0 0.0 0.0 0.0 0.0 0.0 0.0 0.0 0.0 0.0 0.0 0.0 0.1 1.2 1.1 0.9 0.6 1.5 1.6 1.5 1.3 1.2 1.2 0.7 0.3 0.1 0.0 0.0 0.0 0.3 0.2 0.5 0.4 1.1 1.0 1.1 2.6 1.4 0.6
0.0 0.0 0.0 0.0 0.0 0.0 0.0 0.0 0.0 0.0 0.0 0.0 0.0 0.3 1.7 2.4 2.9 2.7 2.6 2.0 1.4 1.0 1.1 1.3 1.1 0.7 0.5 0.3 0.2 0.1 0.1 0.0 0.0 0.0 1.4 0.0 1.9 2.1 1.5 0.6 0.3 0.6 0.3
0.0 0.0 0.0 0.0 0.0 0.0 0.0 0.0 0.0 0.1 1.0 2.5 3.2 5.1 4.2 3.9 3.1 2.4 1.9 1.6 1.2 0.7 0.7 0.7 0.7 0.7 0.5 0.3 0.2 0.0 0.3 0.2 0.0 0.0 1.0 0.5 0.9 0.5 0.3 0.6 0.6 0.6 0.3
0.0 0.0 0.0 0.0 1.9 1.7 0.3 0.9 2.2 2.7 5.9 7.1 5.8 4.2 3.0 2.1 1.6 1.1 0.8 0.6 0.7 0.5 0.4 0.4 0.4 0.2 0.0 0.1 0.1 0.0 0.1 0.1 0.1 0.1 0.9 0.6 0.8 0.8 0.5 0.6 0.7 1.0 0.6
0.0 0.0 5.5 6.6 7.0 7.0 6.1 5.4 5.2 5.2 4.7 5.0 4.7 4.1 3.2 2.5 2.3 2.1 1.5 1.3 1.1 0.8 0.5 0.3 0.5 0.4 0.3 0.1 0.4 0.4 0.4 0.5 0.3 0.6 0.7 0.9 0.7 1.1 0.9 1.0 1.3 1.2 1.4
4.0 6.0 5.7 6.6 7.3 6.8 6.2 5.7 5.4 4.9 4.6 4.3 4.0 3.7 3.3 2.5 2.4 2.0 1.6 1.3 1.0 1.1 1.1 1.0 0.9 0.8 0.8 0.7 0.7 0.7 0.5 0.2 0.3 0.1 0.4 1.0 1.5 2.3 2.5 1.9 1.9 2.9 1.9
9.0 9.8 9.1 7.9 7.7 7.1 6.0 5.0 4.3 3.8 3.4 3.3 3.7 3.4 2.4 1.6 1.5 1.2 1.1 1.0 1.0 1.0 1.1 1.0 1.0 0.8 0.6 0.5 0.5 0.2 0.2 0.2 0.1 0.5 0.5 0.4 0.8 1.5 1.2 0.9 1.9 1.7 1.2
8.2 7.9 7.2 6.5 5.9 5.3 4.6 3.6 3.3 2.9 2.8 2.3 2.1 1.5 0.8 0.7 0.7 0.8 1.0 1.2 1.2 0.8 0.6 0.5 0.4 0.2 0.1 0.1 0.1 0.1 0.2 0.1 0.1 0.4 0.5 0.5 0.4 0.5 0.8 1.2 1.2 1.2 2.1
5.5 4.7 3.9 3.6 3.3 3.2 2.7 2.4 2.1 1.8 1.7 1.5 1.2 1.2 0.9 1.0 1.0 0.9 0.9 0.7 0.5 0.1 0.1 0.0 0.0 0.0 0.0 0.0 0.0 0.3 0.3 0.3 0.1 0.3 1.4 1.2 0.9 0.8 1.5 2.3 2.0 2.4 2.3
2.7 2.5 2.2 2.2 2.0 1.3 1.0 0.9 0.7 0.7 0.9 0.9 0.7 0.7 0.5 0.4 0.5 0.3 0.1 0.1 0.0 0.0 0.0 0.0 0.0 0.0 0.0 0.1 0.0 0.0 0.0 0.0 0.7 1.2 1.5 1.5 0.7 0.4 1.3 1.8 1.9 2.4 2.5
0.9 0.8 0.6 0.6 0.6 0.6 0.6 0.6 0.6 0.4 0.1 0.1 0.1 0.2 0.1 0.1 0.1 0.2 0.0 0.0 0.0 0.0 0.1 0.0 0.0 0.1 0.0 0.0 0.0 0.0 0.1 0.4 0.2 0.3 1.2 1.2 1.0 0.5 1.0 1.7 1.9 2.9 2.5
0.5 0.5 0.3 0.2 0.1 0.0 0.0 0.0 0.1 0.1 0.0 0.0 0.1 0.1 0.0 0.0 0.0 0.0 0.0 0.0 0.1 0.0 0.0 0.0 0.0 0.0 0.0 0.0 0.0 0.1 0.0 0.0 0.3 0.4 2.3 1.7 1.1 0.7 1.0 1.8 1.8 3.0 2.1

GFSGL_prec_kuchsnow24_084.txt.gz
Snowfall_Accumulation
0.0 0.0 0.0 0.0 0.0 0.0 0.0 0.0 0.0 0.0 0.0 0.0 0.0 0.0 0.0 0.0 0.0 0.0 0.0 0.0 0.0 0.0 0.0 0.0 0.0 0.0 0.0 0.0 0.0 0.0 0.0 0.0 0.0 0.0 0.0 0.0 0.0 0.0 0.0 0.0 0.0 0.0 0.0
0.0 0.0 0.0 0.0 0.0 0.0 0.0 0.0 0.0 0.0 0.0 0.0 0.0 0.0 0.0 0.0 0.0 0.0 0.0 0.0 0.0 0.0 0.0 0.0 0.0 0.0 0.0 0.0 0.0 0.0 0.0 0.0 0.0 0.0 0.0 0.0 0.0 0.0 0.0 0.0 0.0 0.0 0.0
0.0 0.0 0.0 0.0 0.0 0.0 0.0 0.0 0.0 0.0 0.0 0.0 0.0 0.0 0.0 0.0 0.0 0.0 0.0 0.0 0.0 0.0 0.0 0.0 0.0 0.0 0.0 0.0 0.0 0.0 0.0 0.0 0.0 0.0 0.0 0.0 0.0 0.0 0.0 0.0 0.0 0.0 0.0
0.0 0.0 0.0 0.0 0.0 0.0 0.0 0.0 0.0 0.0 0.0 0.0 0.0 0.0 0.0 0.0 0.0 0.0 0.0 0.0 0.0 0.0 0.0 0.0 0.0 0.0 0.0 0.0 0.0 0.0 0.0 0.0 0.0 0.0 0.0 0.0 0.0 0.0 0.0 0.0 0.0 0.0 0.0
0.0 0.0 0.0 0.0 0.0 0.0 0.0 0.0 0.0 0.0 0.0 0.0 0.0 0.0 0.0 0.0 0.0 0.0 0.0 0.0 0.0 0.0 0.0 0.0 0.0 0.0 0.0 0.0 0.0 0.0 0.0 0.0 0.0 0.0 0.0 0.0 0.0 0.0 0.0 0.0 0.0 0.0 0.0
0.0 0.0 0.0 0.0 0.0 0.0 0.0 0.0 0.0 0.0 0.0 0.0 0.0 0.0 0.0 0.0 0.0 0.0 0.0 0.0 0.0 0.0 0.0 0.0 0.0 0.0 0.0 0.0 0.0 0.0 0.0 0.0 0.0 0.0 0.0 0.0 0.0 0.0 0.0 0.0 0.0 0.2 0.5
0.0 0.0 0.0 0.0 0.0 0.0 0.0 0.0 0.0 0.0 0.0 0.0 0.0 0.0 0.0 0.0 0.0 0.0 0.0 0.0 0.0 0.0 0.0 0.0 0.0 0.0 0.0 0.0 0.0 0.0 0.0 0.0 0.0 0.0 0.0 0.0 0.0 0.0 0.0 0.1 0.0 0.3 0.5
0.0 0.0 0.0 0.0 0.0 0.0 0.0 0.0 0.0 0.0 0.0 0.0 0.0 0.0 0.0 0.0 0.0 0.0 0.0 0.0 0.0 0.0 0.0 0.0 0.0 0.0 0.0 0.0 0.0 0.0 0.0 0.0 0.0 0.0 0.0 0.0 0.0 0.0 0.0 0.0 0.8 0.4 0.1
0.0 0.0 0.0 0.0 0.0 0.0 0.0 0.0 0.0 0.0 0.0 0.0 0.0 0.0 0.0 0.0 0.0 0.0 0.0 0.0 0.0 0.0 0.0 0.0 0.0 0.0 0.0 0.0 0.0 0.0 0.0 0.0 0.0 0.0 0.0 0.2 0.1 0.0 0.0 0.7 0.9 0.7 0.6
0.0 0.0 0.0 0.0 0.0 0.0 0.0 0.0 0.0 0.0 0.0 0.0 0.0 0.0 0.0 0.0 0.0 0.0 0.0 0.0 0.0 0.0 0.0 0.0 0.0 0.0 0.0 0.0 0.1 0.0 0.0 0.0 0.8 0.6 1.6 1.3 0.9 0.7 0.6 0.5 0.4 1.7 1.3
0.0 0.0 0.0 0.0 0.0 0.0 0.0 0.0 0.0 0.0 0.0 0.0 0.0 0.0 0.0 0.0 0.0 0.0 0.0 0.0 0.0 0.0 0.0 0.0 0.0 0.0 0.0 0.2 0.0 0.0 0.7 0.5 0.3 0.1 1.1 1.2 1.0 0.7 0.6 0.3 0.2 0.8 1.4
0.0 0.0 0.0 0.0 0.0 0.0 0.0 0.0 0.0 0.0 0.0 0.0 0.0 0.0 0.0 0.0 0.0 0.0 0.0 0.0 0.0 0.0 0.0 0.0 0.0 0.5 0.1 0.0 1.1 1.0 0.7 1.4 1.4 1.5 1.6 1.2 0.6 0.3 0.2 0.1 0.1 0.0 0.0
0.0 0.0 0.0 0.0 0.0 0.0 0.0 0.0 0.0 0.0 0.0 0.0 0.0 0.0 0.0 0.0 0.0 0.0 0.2 0.1 0.0 0.0 0.6 0.5 0.3 1.5 1.2 1.1 1.1 0.8 1.0 1.0 1.1 1.2 1.0 0.7 0.3 0.1 0.0 0.0 0.0 0.0 0.3
0.0 0.0 0.0 0.0 0.0 0.0 0.0 0.0 0.0 0.0 0.0 0.0 0.0 0.0 0.0 0.0 0.0 0.1 0.0 0.9 0.8 0.8 0.5 0.2 1.9 1.8 2.1 2.2 2.3 1.7 1.3 1.1 0.8 1.0 0.6 0.5 0.4 0.3 0.1 0.0 1.0 0.3 0.6
0.0 0.0 0.0 0.0 0.0 0.0 0.0 0.0 0.0 0.0 0.0 0.0 0.0 0.0 0.0 0.0 2.4 1.2 1.1 0.9 0.6 1.5 2.2 2.1 2.2 2.2 2.4 2.0 1.4 1.0 0.8 0.7 0.7 0.6 0.6 0.5 0.3 0.9 0.9 1.0 2.4 1.4 0.6
0.0 0.0 0.0 0.0 0.0 0.0 0.0 0.0 0.0 0.0 0.0 0.0 0.0 0.3 1.7 5.0 5.7 4.7 4.2 3.6 3.0 2.8 3.1 3.5 3.4 2.7 2.1 1.6 1.3 1.1 0.8 0.7 0.5 0.4 0.2 0.0 1.2 1.8 1.3 0.5 0.3 0.6 0.2
0.0 0.0 0.0 0.0 0.0 1.2 0.0 0.0 2.0 2.9 3.4 4.6 5.2 7.4 6.9 6.8 6.0 5.3 4.6 3.8 3.1 2.5 2.6 2.4 2.3 2.0 1.6 1.1 0.8 0.5 0.5 0.3 0.0 0.0 0.1 0.1 0.8 0.5 0.3 0.3 0.4 0.6 0.1
0.0 0.0 0.0 2.4 5.2 5.1 3.4 4.0 5.5 5.6 9.5 10.6 8.5 6.6 5.3 4.5 3.8 3.1 2.6 2.1 2.4 1.9 1.6 1.5 1.3 0.8 0.3 0.2 0.1 0.0 0.0 0.1 0.1 0.1 0.2 0.2 0.6 0.8 0.5 0.3 0.4 0.7 0.5
0.2 0.3 6.2 8.0 9.2 9.7 9.1 8.6 8.3 8.0 7.2 7.3 6.7 6.0 5.2 4.3 3.9 3.7 2.9 2.6 2.3 1.9 1.3 1.0 0.9 0.6 0.4 0.2 0.4 0.4 0.4 0.3 0.3 0.4 0.3 0.5 0.3 0.7 0.6 0.6 0.8 0.8 1.0
4.4 6.5 6.2 7.3 8.3 8.2 8.1 7.6 7.3 6.6 6.2 5.9 5.6 5.5 5.0 3.9 3.9 3.5 2.9 2.4 1.8 1.8 1.4 1.2 1.0 0.8 0.8 0.7 0.7 0.7 0.5 0.2 0.1 0.1 0.0 0.1 0.2 1.0 1.9 1.7 1.9 2.1 1.4
8.9 9.7 9.2 8.2 8.4 8.1 7.2 6.4 5.6 5.0 4.6 4.4 5.1 4.7 3.3 2.4 2.4 2.0 1.6 1.3 1.2 1.0 1.1 1.0 1.0 0.8 0.6 0.5 0.3 0.2 0.2 0.1 0.1 0.2 0.1 0.1 0.1 0.7 0.7 0.9 1.3 1.2 0.8
8.2 8.0 7.4 6.9 6.3 5.8 5.2 4.4 4.1 3.8 3.8 3.3 3.2 2.5 1.5 1.2 1.0 1.0 1.1 1.2 1.2 0.8 0.6 0.5 0.4 0.2 0.1 0.0 0.1 0.1 0.1 0.1 0.1 0.1 0.1 0.1 0.1 0.2 0.4 0.4 0.3 0.6 1.7
5.5 4.9 4.1 3.9 3.6 3.2 3.1 2.8 2.6 2.3 2.2 2.0 1.6 1.2 0.9 1.0 1.0 0.9 0.9 0.8 0.5 0.1 0.1 0.0 0.0 0.0 0.0 0.0 0.0 0.2 0.1 0.1 0.1 0.3 0.8 0.7 0.5 0.4 0.8 1.1 0.8 1.7 2.0
2.6 2.5 2.2 2.2 2.0 1.3 1.0 0.9 0.7 0.7 0.9 0.9 0.7 0.7 0.5 0.4 0.5 0.3 0.1 0.1 0.0 0.0 0.0 0.0 0.0 0.0 0.0 0.0 0.0 0.0 0.0 0.0 0.5 0.8 1.1 1.2 0.6 0.2 0.8 1.1 0.9 1.5 2.2
0.9 0.8 0.6 0.6 0.6 0.6 0.6 0.6 0.5 0.4 0.1 0.1 0.1 0.2 0.1 0.1 0.1 0.2 0.1 0.0 0.0 0.0 0.0 0.0 0.0 0.0 0.0 0.0 0.0 0.1 0.0 0.2 0.2 0.3 0.9 1.0 0.9 0.3 0.8 1.2 0.9 1.8 1.9
0.5 0.5 0.3 0.2 0.1 0.0 0.0 0.0 0.1 0.1 0.0 0.0 0.1 0.1 0.0 0.0 0.0 0.0 0.0 0.0 0.0 0.0 0.0 0.0 0.0 0.0 0.0 0.0 0.0 0.1 0.0 0.0 0.2 0.2 1.7 1.4 1.0 0.6 0.8 1.4 0.8 1.7 1.5

GFSGL_prec_kuchsnow24_087.txt.gz
Snowfall_Accumulation
0.0 0.0 0.0 0.0 0.0 0.0 0.0 0.0 0.0 0.0 0.0 0.0 0.0 0.0 0.0 0.0 0.0 0.0 0.0 0.0 0.0 0.0 0.0 0.0 0.0 0.0 0.0 0.0 0.0 0.0 0.0 0.0 0.0 0.0 0.0 0.0 0.0 0.0 0.0 0.0 0.0 0.0 0.0
0.0 0.0 0.0 0.0 0.0 0.0 0.0 0.0 0.0 0.0 0.0 0.0 0.0 0.0 0.0 0.0 0.0 0.0 0.0 0.0 0.0 0.0 0.0 0.0 0.0 0.0 0.0 0.0 0.0 0.0 0.0 0.0 0.0 0.0 0.0 0.0 0.0 0.0 0.0 0.0 0.0 0.0 0.0
0.0 0.0 0.0 0.0 0.0 0.0 0.0 0.0 0.0 0.0 0.0 0.0 0.0 0.0 0.0 0.0 0.0 0.0 0.0 0.0 0.0 0.0 0.0 0.0 0.0 0.0 0.0 0.0 0.0 0.0 0.0 0.0 0.0 0.0 0.0 0.0 0.0 0.0 0.0 0.0 0.0 0.0 0.0
0.0 0.0 0.0 0.0 0.0 0.0 0.0 0.0 0.0 0.0 0.0 0.0 0.0 0.0 0.0 0.0 0.0 0.0 0.0 0.0 0.0 0.0 0.0 0.0 0.0 0.0 0.0 0.0 0.0 0.0 0.0 0.0 0.0 0.0 0.0 0.0 0.0 0.0 0.0 0.0 0.0 0.0 0.0
0.0 0.0 0.0 0.0 0.0 0.0 0.0 0.0 0.0 0.0 0.0 0.0 0.0 0.0 0.0 0.0 0.0 0.0 0.0 0.0 0.0 0.0 0.0 0.0 0.0 0.0 0.0 0.0 0.0 0.0 0.0 0.0 0.0 0.0 0.0 0.0 0.0 0.0 0.0 0.0 0.0 0.0 0.0
0.0 0.0 0.0 0.0 0.0 0.0 0.0 0.0 0.0 0.0 0.0 0.0 0.0 0.0 0.0 0.0 0.0 0.0 0.0 0.0 0.0 0.0 0.0 0.0 0.0 0.0 0.0 0.0 0.0 0.0 0.0 0.0 0.0 0.0 0.0 0.0 0.0 0.0 0.0 0.0 0.0 0.0 0.1
0.0 0.0 0.0 0.0 0.0 0.0 0.0 0.0 0.0 0.0 0.0 0.0 0.0 0.0 0.0 0.0 0.0 0.0 0.0 0.0 0.0 0.0 0.0 0.0 0.0 0.0 0.0 0.0 0.0 0.0 0.0 0.0 0.0 0.0 0.0 0.0 0.0 0.0 0.0 0.0 0.0 0.1 0.1
0.0 0.0 0.0 0.0 0.0 0.0 0.0 0.0 0.0 0.0 0.0 0.0 0.0 0.0 0.0 0.0 0.0 0.0 0.0 0.0 0.0 0.0 0.0 0.0 0.0 0.0 0.0 0.0 0.0 0.0 0.0 0.0 0.0 0.0 0.0 0.0 0.0 0.0 0.0 0.0 0.8 0.4 0.0
0.0 0.0 0.0 0.0 0.0 0.0 0.0 0.0 0.0 0.0 0.0 0.0 0.0 0.0 0.0 0.0 0.0 0.0 0.0 0.0 0.0 0.0 0.0 0.0 0.0 0.0 0.0 0.0 0.0 0.0 0.0 0.0 0.0 0.0 0.0 0.2 0.1 0.0 0.0 0.7 1.7 1.9 2.1
0.0 0.0 0.0 0.0 0.0 0.0 0.0 0.0 0.0 0.0 0.0 0.0 0.0 0.0 0.0 0.0 0.0 0.0 0.0 0.0 0.0 0.0 0.0 0.0 0.0 0.0 0.0 0.0 0.1 0.0 0.0 0.0 0.8 0.6 1.6 1.3 0.9 0.7 1.8 1.4 1.5 2.5 1.9
0.0 0.0 0.0 0.0 0.0 0.0 0.0 0.0 0.0 0.0 0.0 0.0 0.0 0.0 0.0 0.0 0.0 0.0 0.0 0.0 0.0 0.0 0.0 0.0 0.0 0.0 0.0 0.2 0.0 0.0 0.7 0.5 0.3 0.1 1.1 1.2 1.7 1.4 1.2 1.2 0.9 1.2 1.4
0.0 0.0 0.0 0.0 0.0 0.0 0.0 0.0 0.0 0.0 0.0 0.0 0.0 0.0 0.0 0.0 0.0 0.0 0.0 0.0 0.0 0.0 0.0 0.0 0.0 0.5 0.1 0.0 1.1 1.0 0.7 1.4 1.4 1.5 2.4 2.3 1.9 1.6 0.9 0.4 0.1 0.0 0.0
0.0 0.0 0.0 0.0 0.0 0.0 0.0 0.0 0.0 0.0 0.0 0.0 0.0 0.0 0.0 0.0 0.0 0.0 0.2 0.1 0.0 0.0 0.6 0.5 0.3 1.5 1.2 1.1 1.1 0.8 1.0 1.7 1.9 2.2 2.2 1.7 1.0 0.6 0.3 0.2 0.2 0.1 0.1
0.0 0.0 0.0 0.0 0.0 0.0 0.0 0.0 0.0 0.0 0.0 0.0 0.0 0.0 0.0 0.0 0.0 0.1 0.0 0.9 0.8 0.8 0.5 0.2 4.3 4.0 2.1 4.1 3.8 3.5 2.7 2.3 1.9 1.9 1.9 1.7 1.1 0.8 0.6 0.3 0.5 0.0 0.6
0.0 0.0 0.0 0.0 0.0 0.0 0.0 0.0 0.0 0.0 0.0 0.0 0.0 0.0 0.0 1.7 2.4 1.2 1.1 0.9 0.6 1.5 2.2 2.1 8.0 7.5 7.3 6.2 5.0 4.2 3.3 2.7 2.4 2.0 1.7 1.3 0.9 0.5 0.1 0.0 1.7 1.2 0.4
0.0 0.0 0.0 0.0 0.0 0.0 0.0 0.0 0.0 0.0 0.0 1.2 0.0 0.3 3.5 5.0 5.7 7.4 7.6 7.6 7.6 7.8 8.6 9.4 9.3 8.2 7.1 5.8 4.5 3.3 2.3 1.7 1.2 0.9 0.6 0.3 0.0 0.0 0.0 0.0 0.0 0.5 0.2
0.0 0.0 0.0 0.0 0.0 1.2 0.0 0.0 2.0 5.0 5.5 6.9 7.5 9.4 8.9 9.7 8.7 7.9 7.4 7.0 6.5 5.6 5.9 5.6 5.1 4.3 3.4 2.4 1.9 1.3 1.1 0.6 0.0 0.0 0.1 0.1 0.1 0.1 0.1 0.0 0.0 0.4 0.1
0.0 0.1 0.1 2.7 5.2 6.5 3.4 5.1 6.7 7.2 11.7 14.6 13.1 10.5 9.0 8.1 7.1 6.1 5.1 3.8 4.0 3.0 2.8 2.6 2.4 1.8 1.3 0.9 0.6 0.3 0.1 0.1 0.1 0.1 0.2 0.2 0.2 0.3 0.3 0.1 0.3 0.6 0.4
0.3 0.5 6.5 8.3 9.7 9.7 10.3 10.2 10.1 9.7 8.9 9.2 8.5 7.7 6.9 5.8 5.4 5.1 4.1 3.8 3.5 3.0 2.2 1.8 1.6 1.2 0.9 0.4 0.4 0.4 0.4 0.3 0.3 0.4 0.3 0.3 0.3 0.2 0.1 0.1 0.3 0.4 0.8
4.6 6.7 6.3 7.3 8.4 8.2 8.1 8.0 8.3 7.9 7.8 7.6 7.3 7.2 6.5 4.9 5.0 4.7 4.0 3.3 2.7 2.6 2.0 1.6 1.2 0.8 0.8 0.7 0.7 0.7 0.5 0.2 0.1 0.1 0.0 0.0 0.2 0.2 0.5 0.2 0.8 1.1 0.7
8.7 9.2 8.5 7.6 7.9 7.9 7.4 6.7 6.1 5.6 5.3 5.2 6.1 5.7 4.2 3.0 3.3 2.8 2.4 1.9 1.6 1.2 1.1 1.0 1.0 0.8 0.6 0.5 0.3 0.2 0.2 0.1 0.1 0.2 0.0 0.1 0.1 0.3 0.1 0.1 0.9 1.0 0.8
6.3 6.7 6.4 6.3 6.1 5.8 5.4 4.7 4.5 4.2 4.2 3.7 3.7 3.0 1.8 1.4 1.3 1.0 1.1 1.2 1.2 0.8 0.6 0.5 0.4 0.2 0.1 0.0 0.1 0.1 0.1 0.0 0.1 0.1 0.1 0.1 0.1 0.1 0.1 0.2 0.3 0.6 0.8
4.2 4.0 3.8 3.9 3.7 3.2 3.2 3.0 2.7 2.5 2.2 2.0 1.6 1.2 0.9 1.0 1.0 0.9 1.1 0.8 0.5 0.1 0.1 0.0 0.0 0.0 0.0 0.0 0.0 0.0 0.1 0.1 0.1 0.3 0.6 0.5 0.4 0.4 0.4 0.8 0.4 0.8 0.7
2.5 2.3 2.1 2.1 1.9 1.3 1.0 0.9 0.7 0.7 0.9 0.9 0.7 0.7 0.6 0.4 0.5 0.3 0.1 0.1 0.0 0.0 0.0 0.0 0.0 0.0 0.0 0.0 0.0 0.0 0.0 0.0 0.4 0.6 0.8 1.0 0.5 0.2 0.3 0.7 0.6 0.9 1.2
0.7 0.6 0.6 0.6 0.6 0.6 0.6 0.6 0.5 0.4 0.1 0.1 0.2 0.2 0.2 0.1 0.1 0.2 0.1 0.0 0.0 0.0 0.0 0.0 0.0 0.0 0.0 0.0 0.0 0.1 0.0 0.1 0.1 0.2 0.8 0.8 0.8 0.3 0.6 0.9 0.8 1.4 1.0
0.4 0.4 0.3 0.2 0.1 0.0 0.0 0.0 0.1 0.1 0.0 0.1 0.1 0.1 0.0 0.0 0.0 0.0 0.0 0.0 0.0 0.0 0.0 0.0 0.0 0.0 0.0 0.0 0.0 0.0 0.0 0.0 0.1 0.0 1.4 1.1 0.9 0.5 0.6 1.2 0.7 1.4 0.9

GFSGL_prec_kuchsnow24_090.txt.gz
Snowfall_Accumulation
0.0 0.0 0.0 0.0 0.0 0.0 0.0 0.0 0.0 0.0 0.0 0.0 0.0 0.0 0.0 0.0 0.0 0.0 0.0 0.0 0.0 0.0 0.0 0.0 0.0 0.0 0.0 0.0 0.0 0.0 0.0 0.0 0.0 0.0 0.0 0.0 0.0 0.0 0.0 0.0 0.0 0.0 0.0
0.0 0.0 0.0 0.0 0.0 0.0 0.0 0.0 0.0 0.0 0.0 0.0 0.0 0.0 0.0 0.0 0.0 0.0 0.0 0.0 0.0 0.0 0.0 0.0 0.0 0.0 0.0 0.0 0.0 0.0 0.0 0.0 0.0 0.0 0.0 0.0 0.0 0.0 0.0 0.0 0.0 0.0 0.0
0.0 0.0 0.0 0.0 0.0 0.0 0.0 0.0 0.0 0.0 0.0 0.0 0.0 0.0 0.0 0.0 0.0 0.0 0.0 0.0 0.0 0.0 0.0 0.0 0.0 0.0 0.0 0.0 0.0 0.0 0.0 0.0 0.0 0.0 0.0 0.0 0.0 0.0 0.0 0.0 0.0 0.0 0.0
0.0 0.0 0.0 0.0 0.0 0.0 0.0 0.0 0.0 0.0 0.0 0.0 0.0 0.0 0.0 0.0 0.0 0.0 0.0 0.0 0.0 0.0 0.0 0.0 0.0 0.0 0.0 0.0 0.0 0.0 0.0 0.0 0.0 0.0 0.0 0.0 0.0 0.0 0.0 0.0 0.0 0.0 0.0
0.0 0.0 0.0 0.0 0.0 0.0 0.0 0.0 0.0 0.0 0.0 0.0 0.0 0.0 0.0 0.0 0.0 0.0 0.0 0.0 0.0 0.0 0.0 0.0 0.0 0.0 0.0 0.0 0.0 0.0 0.0 0.0 0.0 0.0 0.0 0.0 0.0 0.0 0.0 0.0 0.0 0.0 0.0
0.0 0.0 0.0 0.0 0.0 0.0 0.0 0.0 0.0 0.0 0.0 0.0 0.0 0.0 0.0 0.0 0.0 0.0 0.0 0.0 0.0 0.0 0.0 0.0 0.0 0.0 0.0 0.0 0.0 0.0 0.0 0.0 0.0 0.0 0.0 0.0 0.0 0.0 0.0 0.0 0.0 0.0 0.0
0.0 0.0 0.0 0.0 0.0 0.0 0.0 0.0 0.0 0.0 0.0 0.0 0.0 0.0 0.0 0.0 0.0 0.0 0.0 0.0 0.0 0.0 0.0 0.0 0.0 0.0 0.0 0.0 0.0 0.0 0.0 0.0 0.0 0.0 0.0 0.0 0.0 0.0 0.0 0.0 0.0 0.0 0.0
0.0 0.0 0.0 0.0 0.0 0.0 0.0 0.0 0.0 0.0 0.0 0.0 0.0 0.0 0.0 0.0 0.0 0.0 0.0 0.0 0.0 0.0 0.0 0.0 0.0 0.0 0.0 0.0 0.0 0.0 0.0 0.0 0.0 0.0 0.0 0.0 0.0 0.0 0.0 0.0 0.8 0.4 0.0
0.0 0.0 0.0 0.0 0.0 0.0 0.0 0.0 0.0 0.0 0.0 0.0 0.0 0.0 0.0 0.0 0.0 0.0 0.0 0.0 0.0 0.0 0.0 0.0 0.0 0.0 0.0 0.0 0.0 0.0 0.0 0.0 0.0 0.0 0.0 0.2 0.1 0.0 0.0 0.7 1.7 1.8 2.0
0.0 0.0 0.0 0.0 0.0 0.0 0.0 0.0 0.0 0.0 0.0 0.0 0.0 0.0 0.0 0.0 0.0 0.0 0.0 0.0 0.0 0.0 0.0 0.0 0.0 0.0 0.0 0.0 0.1 0.0 0.0 0.0 0.8 0.6 1.6 1.3 0.9 0.7 1.8 1.4 1.5 2.2 1.5
0.0 0.0 0.0 0.0 0.0 0.0 0.0 0.0 0.0 0.0 0.0 0.0 0.0 0.0 0.0 0.0 0.0 0.0 0.0 0.0 0.0 0.0 0.0 0.0 0.0 0.0 0.0 0.2 0.0 0.0 0.7 0.5 0.3 0.1 1.1 1.2 1.7 1.4 1.2 1.2 1.5 1.6 1.4
0.0 0.0 0.0 0.0 0.0 0.0 0.0 0.0 0.0 0.0 0.0 0.0 0.0 0.0 0.0 0.0 0.0 0.0 0.0 0.0 0.0 0.0 0.0 0.0 0.0 0.5 0.1 0.0 1.1 1.0 0.7 1.4 1.4 1.5 2.4 2.3 3.5 3.1 2.3 1.3 0.6 0.3 0.2
0.0 0.0 0.0 0.0 0.0 0.0 0.0 0.0 0.0 0.0 0.0 0.0 0.0 0.0 0.0 0.0 0.0 0.0 0.2 0.1 0.0 0.0 0.6 0.5 0.3 1.5 1.2 1.1 1.1 0.8 1.0 1.7 1.9 4.9 4.9 4.6 3.5 2.5 1.8 1.5 1.2 0.9 0.7
0.0 0.0 0.0 0.0 0.0 0.0 0.0 0.0 0.0 0.0 0.0 0.0 0.0 0.0 0.0 0.0 0.0 0.1 0.0 0.9 0.8 0.8 0.5 0.2 4.3 4.0 2.1 4.1 3.8 8.3 8.4 8.3 8.5 8.7 8.6 7.6 5.9 4.3 2.7 1.6 0.9 0.3 0.2
0.0 0.0 0.0 0.0 0.0 0.0 0.0 0.0 0.0 0.0 0.0 0.0 0.0 0.0 0.0 1.7 2.4 1.2 3.4 0.9 0.6 1.5 2.2 4.7 11.1 7.5 11.4 11.7 12.3 11.8 11.1 9.9 8.7 7.3 5.9 4.4 2.8 1.5 0.6 0.1 0.0 0.0 0.0
0.0 0.0 0.0 0.0 0.0 0.0 0.0 0.0 0.0 0.1 0.1 1.2 0.0 1.0 5.2 7.8 8.9 10.5 11.0 10.9 11.1 12.0 13.9 15.5 15.6 14.2 13.0 11.6 10.1 8.6 6.6 5.0 3.8 2.7 1.8 1.0 0.3 0.1 0.0 0.0 0.0 0.0 0.0
0.0 0.0 0.0 0.0 0.0 1.2 0.0 0.0 2.2 5.0 5.5 7.3 8.2 10.3 9.9 11.0 10.0 9.3 8.9 8.6 8.4 7.6 8.4 8.6 8.1 7.0 5.8 4.4 3.8 2.9 2.7 1.8 0.7 0.3 0.3 0.1 0.1 0.1 0.1 0.0 0.0 0.0 0.1
0.1 0.2 0.1 2.7 5.2 6.5 3.4 5.1 6.6 7.2 12.0 15.3 14.8 12.4 10.7 9.6 8.6 7.6 6.7 5.4 6.3 5.0 4.6 4.3 4.0 3.3 2.3 1.8 1.4 0.9 0.5 0.3 0.2 0.1 0.2 0.2 0.2 0.2 0.3 0.1 0.1 0.2 0.1
0.5 0.8 6.7 8.4 9.7 9.6 10.3 10.1 9.9 9.3 8.5 9.5 8.3 8.5 8.2 6.7 6.1 5.8 4.8 4.7 4.5 4.0 3.1 2.6 2.3 1.8 1.3 0.6 0.4 0.4 0.4 0.3 0.3 0.4 0.3 0.3 0.3 0.2 0.1 0.1 0.0 0.1 0.0
4.3 6.3 6.1 7.2 8.1 7.7 7.5 7.3 7.6 7.4 7.4 7.5 7.2 8.0 7.4 4.8 5.6 5.5 4.7 3.9 3.3 3.3 2.7 2.0 1.5 0.8 0.8 0.7 0.7 0.7 0.5 0.2 0.1 0.1 0.0 0.0 0.2 0.2 0.3 0.2 0.2 0.4 0.1
8.0 8.6 7.4 6.5 6.5 6.5 6.2 5.8 5.6 5.1 4.9 5.0 6.1 5.9 4.4 3.0 3.7 3.3 2.8 2.2 1.9 1.2 1.1 1.0 1.0 0.8 0.6 0.5 0.3 0.2 0.2 0.1 0.1 0.1 0.0 0.1 0.1 0.3 0.1 0.1 0.2 0.2 0.2
5.1 5.4 5.0 5.0 5.0 4.7 4.6 4.2 4.0 3.6 3.8 3.6 3.9 3.3 1.8 1.4 1.3 1.0 1.0 1.2 1.2 0.8 0.6 0.5 0.4 0.2 0.1 0.0 0.1 0.1 0.1 0.0 0.1 0.1 0.1 0.1 0.1 0.1 0.1 0.2 0.3 0.3 0.3
3.6 3.5 3.3 3.4 3.2 2.8 2.8 2.7 2.5 2.3 2.0 1.9 1.5 1.1 0.8 0.9 0.9 0.8 1.1 0.8 0.5 0.1 0.1 0.0 0.0 0.0 0.0 0.0 0.0 0.0 0.1 0.1 0.1 0.2 0.5 0.4 0.3 0.3 0.4 0.6 0.2 0.6 0.4
2.1 1.9 1.7 1.2 1.1 1.0 0.6 0.7 0.5 0.5 0.6 0.6 0.5 0.5 0.4 0.3 0.4 0.2 0.0 0.0 0.0 0.0 0.0 0.0 0.0 0.0 0.0 0.0 0.0 0.0 0.0 0.0 0.2 0.4 0.5 0.7 0.4 0.2 0.3 0.5 0.3 0.5 0.9
0.2 0.2 0.2 0.2 0.2 0.3 0.3 0.3 0.3 0.3 0.0 0.0 0.1 0.1 0.1 0.0 0.0 0.1 0.1 0.0 0.0 0.0 0.0 0.0 0.0 0.0 0.0 0.0 0.0 0.1 0.0 0.0 0.1 0.0 0.4 0.5 0.6 0.3 0.5 0.8 0.5 1.0 0.7
0.0 0.0 0.0 0.0 0.0 0.0 0.0 0.0 0.0 0.0 0.0 0.1 0.0 0.0 0.0 0.0 0.0 0.0 0.0 0.0 0.0 0.0 0.0 0.0 0.0 0.0 0.0 0.0 0.0 0.0 0.0 0.0 0.0 0.0 0.8 0.7 0.6 0.3 0.5 1.0 0.6 1.1 0.7

GFSGL_prec_kuchsnow24_093.txt.gz
Snowfall_Accumulation
0.0 0.0 0.0 0.0 0.0 0.0 0.0 0.0 0.0 0.0 0.0 0.0 0.0 0.0 0.0 0.0 0.0 0.0 0.0 0.0 0.0 0.0 0.0 0.0 0.0 0.0 0.0 0.0 0.0 0.0 0.0 0.0 0.0 0.0 0.0 0.0 0.0 0.0 0.0 0.0 0.0 0.0 0.0
0.0 0.0 0.0 0.0 0.0 0.0 0.0 0.0 0.0 0.0 0.0 0.0 0.0 0.0 0.0 0.0 0.0 0.0 0.0 0.0 0.0 0.0 0.0 0.0 0.0 0.0 0.0 0.0 0.0 0.0 0.0 0.0 0.0 0.0 0.0 0.0 0.0 0.0 0.0 0.0 0.0 0.0 0.0
0.0 0.0 0.0 0.0 0.0 0.0 0.0 0.0 0.0 0.0 0.0 0.0 0.0 0.0 0.0 0.0 0.0 0.0 0.0 0.0 0.0 0.0 0.0 0.0 0.0 0.0 0.0 0.0 0.0 0.0 0.0 0.0 0.0 0.0 0.0 0.0 0.0 0.0 0.0 0.0 0.0 0.0 0.0
0.0 0.0 0.0 0.0 0.0 0.0 0.0 0.0 0.0 0.0 0.0 0.0 0.0 0.0 0.0 0.0 0.0 0.0 0.0 0.0 0.0 0.0 0.0 0.0 0.0 0.0 0.0 0.0 0.0 0.0 0.0 0.0 0.0 0.0 0.0 0.0 0.0 0.0 0.0 0.0 0.0 0.0 0.0
0.0 0.0 0.0 0.0 0.0 0.0 0.0 0.0 0.0 0.0 0.0 0.0 0.0 0.0 0.0 0.0 0.0 0.0 0.0 0.0 0.0 0.0 0.0 0.0 0.0 0.0 0.0 0.0 0.0 0.0 0.0 0.0 0.0 0.0 0.0 0.0 0.0 0.0 0.0 0.0 0.0 0.0 0.0
0.0 0.0 0.0 0.0 0.0 0.0 0.0 0.0 0.0 0.0 0.0 0.0 0.0 0.0 0.0 0.0 0.0 0.0 0.0 0.0 0.0 0.0 0.0 0.0 0.0 0.0 0.0 0.0 0.0 0.0 0.0 0.0 0.0 0.0 0.0 0.0 0.0 0.0 0.0 0.0 0.0 0.0 0.0
0.0 0.0 0.0 0.0 0.0 0.0 0.0 0.0 0.0 0.0 0.0 0.0 0.0 0.0 0.0 0.0 0.0 0.0 0.0 0.0 0.0 0.0 0.0 0.0 0.0 0.0 0.0 0.0 0.0 0.0 0.0 0.0 0.0 0.0 0.0 0.0 0.0 0.0 0.0 0.0 0.0 0.0 0.0
0.0 0.0 0.0 0.0 0.0 0.0 0.0 0.0 0.0 0.0 0.0 0.0 0.0 0.0 0.0 0.0 0.0 0.0 0.0 0.0 0.0 0.0 0.0 0.0 0.0 0.0 0.0 0.0 0.0 0.0 0.0 0.0 0.0 0.0 0.0 0.0 0.0 0.0 0.0 0.0 0.8 0.4 0.0
0.0 0.0 0.0 0.0 0.0 0.0 0.0 0.0 0.0 0.0 0.0 0.0 0.0 0.0 0.0 0.0 0.0 0.0 0.0 0.0 0.0 0.0 0.0 0.0 0.0 0.0 0.0 0.0 0.0 0.0 0.0 0.0 0.0 0.0 0.0 0.2 0.1 0.0 0.0 0.7 1.6 1.7 2.0
0.0 0.0 0.0 0.0 0.0 0.0 0.0 0.0 0.0 0.0 0.0 0.0 0.0 0.0 0.0 0.0 0.0 0.0 0.0 0.0 0.0 0.0 0.0 0.0 0.0 0.0 0.0 0.0 0.1 0.0 0.0 0.0 0.8 0.6 1.6 1.3 0.9 0.7 1.8 1.4 1.5 1.8 1.4
0.0 0.0 0.0 0.0 0.0 0.0 0.0 0.0 0.0 0.0 0.0 0.0 0.0 0.0 0.0 0.0 0.0 0.0 0.0 0.0 0.0 0.0 0.0 0.0 0.0 0.0 0.0 0.2 0.0 0.0 0.7 0.5 0.3 0.1 1.1 1.2 1.7 1.4 1.2 1.2 1.5 1.2 0.9
0.0 0.0 0.0 0.0 0.0 0.0 0.0 0.0 0.0 0.0 0.0 0.0 0.0 0.0 0.0 0.0 0.0 0.0 0.0 0.0 0.0 0.0 0.0 0.0 0.0 0.5 0.1 0.0 1.1 1.0 0.7 1.4 1.4 1.5 2.4 2.3 3.5 3.1 2.3 3.0 2.5 2.5 2.4
0.0 0.0 0.0 0.0 0.0 0.0 0.0 0.0 0.0 0.0 0.0 0.0 0.0 0.0 0.0 0.0 0.0 0.0 0.2 0.1 0.0 0.0 0.6 0.5 0.3 1.5 1.2 1.1 1.1 0.8 1.0 1.7 4.0 4.9 8.1 8.0 7.1 6.7 6.1 5.9 5.2 4.6 3.8
0.0 0.0 0.0 0.0 0.0 0.0 0.0 0.0 0.0 0.0 0.0 0.0 0.0 0.0 0.0 0.0 0.0 0.1 0.0 0.9 0.8 0.8 0.5 0.2 4.3 4.0 5.1 7.4 3.8 12.1 13.2 13.9 14.8 15.2 16.1 15.2 13.0 11.2 9.3 7.1 5.6 3.9 3.1
0.0 0.0 0.0 0.0 0.0 0.0 0.0 0.0 0.0 0.0 0.0 0.0 0.0 0.0 0.0 1.7 2.6 1.7 3.4 0.9 0.6 3.2 4.0 6.9 14.3 10.9 14.9 14.8 15.5 15.6 15.2 14.5 13.8 12.2 10.7 8.8 6.8 4.9 3.5 2.1 1.3 0.8 0.6
0.0 0.0 0.0 0.0 0.0 0.0 0.0 0.0 0.0 0.1 0.1 1.2 0.0 1.1 5.3 8.0 9.1 10.5 11.0 10.9 12.4 12.0 15.2 17.3 18.2 18.1 17.3 15.9 13.9 12.2 10.0 8.3 6.8 5.3 3.9 2.6 1.6 0.9 0.4 0.1 0.1 0.1 0.1
0.0 0.0 0.0 0.0 0.0 1.2 0.0 0.0 2.3 5.1 5.5 7.4 8.3 10.4 10.0 11.2 10.0 9.2 8.9 8.6 8.4 7.6 8.8 9.3 9.0 8.2 7.2 5.9 5.3 4.3 4.1 3.1 1.8 1.2 0.8 0.1 0.2 0.2 0.1 0.0 0.0 0.0 0.1
0.1 0.2 0.2 2.8 5.3 6.6 3.5 5.1 6.5 7.2 11.9 15.3 14.8 12.4 10.7 9.6 8.7 7.7 6.7 5.4 6.3 5.0 5.1 5.1 4.9 4.3 3.4 2.9 2.5 1.8 1.1 0.6 0.3 0.2 0.2 0.2 0.2 0.2 0.2 0.1 0.1 0.1 0.1
0.5 0.8 6.5 7.9 9.2 9.1 9.8 9.8 9.5 8.8 7.9 9.2 7.8 8.1 8.2 6.5 5.9 5.5 4.4 4.4 4.8 4.6 3.8 3.3 3.0 2.5 1.9 1.1 0.4 0.4 0.4 0.3 0.3 0.4 0.3 0.3 0.3 0.2 0.1 0.1 0.0 0.1 0.0
4.3 5.5 5.2 6.2 7.2 7.2 7.1 6.7 6.9 6.7 6.9 6.9 6.7 7.6 6.9 4.0 4.8 5.0 4.5 3.7 3.2 3.6 3.0 2.3 1.7 0.8 0.8 0.7 0.7 0.7 0.5 0.2 0.1 0.1 0.0 0.0 0.2 0.2 0.3 0.2 0.2 0.3 0.1
6.8 7.5 6.6 5.9 6.1 6.0 5.7 5.4 5.4 4.9 4.6 4.6 5.7 5.6 3.9 2.6 3.5 3.3 2.7 2.1 1.8 1.0 0.9 0.9 0.9 0.8 0.6 0.5 0.3 0.2 0.2 0.1 0.1 0.1 0.0 0.1 0.1 0.3 0.1 0.1 0.1 0.2 0.2
4.4 4.7 4.4 4.4 4.4 4.4 4.4 4.2 4.0 3.5 3.8 3.5 3.8 3.1 1.6 1.2 1.1 0.6 0.6 0.9 0.8 0.6 0.5 0.5 0.4 0.2 0.1 0.0 0.1 0.1 0.1 0.0 0.1 0.1 0.1 0.1 0.1 0.1 0.1 0.2 0.2 0.3 0.3
3.1 3.0 2.8 2.9 2.7 2.3 2.3 2.6 2.4 1.8 1.5 1.4 1.0 0.6 0.3 0.4 0.4 0.4 0.7 0.6 0.3 0.1 0.0 0.0 0.0 0.0 0.0 0.0 0.0 0.0 0.1 0.1 0.1 0.2 0.4 0.3 0.2 0.3 0.3 0.5 0.2 0.5 0.4
1.7 1.6 1.3 0.9 0.8 0.6 0.2 0.2 0.0 0.0 0.2 0.2 0.0 0.0 0.1 0.0 0.1 0.0 0.0 0.0 0.0 0.0 0.0 0.0 0.0 0.0 0.0 0.0 0.0 0.0 0.0 0.0 0.1 0.2 0.3 0.5 0.2 0.2 0.3 0.4 0.3 0.4 0.6
0.0 0.0 0.0 0.0 0.0 0.0 0.0 0.0 0.0 0.0 0.0 0.0 0.1 0.1 0.1 0.0 0.0 0.1 0.1 0.0 0.0 0.0 0.0 0.0 0.0 0.0 0.0 0.0 0.0 0.1 0.0 0.0 0.1 0.0 0.1 0.3 0.5 0.3 0.5 0.6 0.4 0.7 0.4
0.0 0.0 0.0 0.0 0.0 0.0 0.0 0.0 0.0 0.0 0.0 0.1 0.0 0.0 0.0 0.0 0.0 0.0 0.0 0.0 0.0 0.0 0.0 0.0 0.0 0.0 0.0 0.0 0.0 0.0 0.0 0.0 0.0 0.0 0.5 0.4 0.5 0.3 0.5 0.8 0.4 0.7 0.5